<?xml version="1.0" encoding="UTF-8" standalone="no" ?>
<gpx xmlns="http://www.topografix.com/GPX/1/1" xmlns:xsi="http://www.w3.org/2001/XMLSchema-instance" xsi:schemaLocation="http://www.topografix.com/GPX/1/1 http://www.topografix.com/GPX/1/1/gpx.xsd" version="1.1" creator="VisuGPX - https://www.visugpx.com">
  <metadata>
    <name>Montée au refuge de la Carança par la corniche</name>
    <desc><![CDATA[Magnifique vallée accessible d'abord par une corniche que nous avons visitée de fond en comble (même celle qui va vers le nord) suivie de passerelles super ludiques qui la traversent et la longent pour notre plus grand plaisir. Le refuge est gardé une partie de l'année à partir du 20 Mai par une bande de djeuns sympathiques et bons cuisiniers. De là, bien des randoinnées sont ouvertes, à commencer par celle du lac de la Carança.]]></desc>
  </metadata>
  <trk>
    <name><![CDATA[2017-05-20 17:49:52 CARANÇA MONTEE]]></name>
    <trkseg>
      <trkpt lat="42.52293" lon="2.22152">
        <ele>829.76</ele>
        <time>2017-05-20T10:21:29Z</time>
      </trkpt>
      <trkpt lat="42.52286" lon="2.22157">
        <ele>830.24</ele>
        <time>2017-05-20T10:21:42Z</time>
      </trkpt>
      <trkpt lat="42.52279" lon="2.22158">
        <ele>831.2</ele>
        <time>2017-05-20T10:21:53Z</time>
      </trkpt>
      <trkpt lat="42.5228" lon="2.22159">
        <ele>831.2</ele>
        <time>2017-05-20T10:22:09Z</time>
      </trkpt>
      <trkpt lat="42.52275" lon="2.22154">
        <ele>831.2</ele>
        <time>2017-05-20T10:22:24Z</time>
      </trkpt>
      <trkpt lat="42.52264" lon="2.22156">
        <ele>831.2</ele>
        <time>2017-05-20T10:22:35Z</time>
      </trkpt>
      <trkpt lat="42.52257" lon="2.22158">
        <ele>832.64</ele>
        <time>2017-05-20T10:22:42Z</time>
      </trkpt>
      <trkpt lat="42.52251" lon="2.2216">
        <ele>833.6</ele>
        <time>2017-05-20T10:22:51Z</time>
      </trkpt>
      <trkpt lat="42.52249" lon="2.22159">
        <ele>833.6</ele>
        <time>2017-05-20T10:23:03Z</time>
      </trkpt>
      <trkpt lat="42.52249" lon="2.22158">
        <ele>833.6</ele>
        <time>2017-05-20T10:23:25Z</time>
      </trkpt>
      <trkpt lat="42.52248" lon="2.22162">
        <ele>834.08</ele>
        <time>2017-05-20T10:23:42Z</time>
      </trkpt>
      <trkpt lat="42.52239" lon="2.22166">
        <ele>835.04</ele>
        <time>2017-05-20T10:23:54Z</time>
      </trkpt>
      <trkpt lat="42.52238" lon="2.22168">
        <ele>835.04</ele>
        <time>2017-05-20T10:24:06Z</time>
      </trkpt>
      <trkpt lat="42.5224" lon="2.22167">
        <ele>835.52</ele>
        <time>2017-05-20T10:24:22Z</time>
      </trkpt>
      <trkpt lat="42.52229" lon="2.22169">
        <ele>836</ele>
        <time>2017-05-20T10:24:33Z</time>
      </trkpt>
      <trkpt lat="42.52216" lon="2.22172">
        <ele>836.96</ele>
        <time>2017-05-20T10:24:45Z</time>
      </trkpt>
      <trkpt lat="42.52209" lon="2.22169">
        <ele>836.96</ele>
        <time>2017-05-20T10:24:56Z</time>
      </trkpt>
      <trkpt lat="42.52203" lon="2.2217">
        <ele>836.96</ele>
        <time>2017-05-20T10:25:07Z</time>
      </trkpt>
      <trkpt lat="42.52203" lon="2.22169">
        <ele>836.96</ele>
        <time>2017-05-20T10:25:22Z</time>
      </trkpt>
      <trkpt lat="42.52193" lon="2.22167">
        <ele>836.96</ele>
        <time>2017-05-20T10:25:36Z</time>
      </trkpt>
      <trkpt lat="42.52183" lon="2.22173">
        <ele>836.96</ele>
        <time>2017-05-20T10:25:52Z</time>
      </trkpt>
      <trkpt lat="42.52182" lon="2.22172">
        <ele>836.96</ele>
        <time>2017-05-20T10:25:53Z</time>
      </trkpt>
      <trkpt lat="42.52175" lon="2.22171">
        <ele>836.96</ele>
        <time>2017-05-20T10:26:00Z</time>
      </trkpt>
      <trkpt lat="42.52161" lon="2.22167">
        <ele>837.45</ele>
        <time>2017-05-20T10:26:12Z</time>
      </trkpt>
      <trkpt lat="42.52159" lon="2.22167">
        <ele>837.93</ele>
        <time>2017-05-20T10:26:14Z</time>
      </trkpt>
      <trkpt lat="42.52149" lon="2.22164">
        <ele>838.41</ele>
        <time>2017-05-20T10:26:25Z</time>
      </trkpt>
      <trkpt lat="42.5214" lon="2.22164">
        <ele>838.89</ele>
        <time>2017-05-20T10:26:36Z</time>
      </trkpt>
      <trkpt lat="42.52129" lon="2.22163">
        <ele>838.89</ele>
        <time>2017-05-20T10:26:50Z</time>
      </trkpt>
      <trkpt lat="42.52117" lon="2.22164">
        <ele>839.37</ele>
        <time>2017-05-20T10:27:04Z</time>
      </trkpt>
      <trkpt lat="42.52105" lon="2.22164">
        <ele>840.33</ele>
        <time>2017-05-20T10:27:17Z</time>
      </trkpt>
      <trkpt lat="42.52095" lon="2.22157">
        <ele>841.77</ele>
        <time>2017-05-20T10:27:28Z</time>
      </trkpt>
      <trkpt lat="42.52082" lon="2.22152">
        <ele>841.77</ele>
        <time>2017-05-20T10:27:40Z</time>
      </trkpt>
      <trkpt lat="42.52072" lon="2.22149">
        <ele>842.73</ele>
        <time>2017-05-20T10:27:50Z</time>
      </trkpt>
      <trkpt lat="42.52062" lon="2.22146">
        <ele>842.73</ele>
        <time>2017-05-20T10:28:03Z</time>
      </trkpt>
      <trkpt lat="42.52051" lon="2.22136">
        <ele>843.21</ele>
        <time>2017-05-20T10:28:11Z</time>
      </trkpt>
      <trkpt lat="42.52037" lon="2.22132">
        <ele>843.69</ele>
        <time>2017-05-20T10:28:21Z</time>
      </trkpt>
      <trkpt lat="42.52035" lon="2.22133">
        <ele>844.18</ele>
        <time>2017-05-20T10:28:23Z</time>
      </trkpt>
      <trkpt lat="42.52023" lon="2.22134">
        <ele>844.66</ele>
        <time>2017-05-20T10:28:34Z</time>
      </trkpt>
      <trkpt lat="42.5202" lon="2.22133">
        <ele>844.66</ele>
        <time>2017-05-20T10:28:37Z</time>
      </trkpt>
      <trkpt lat="42.5201" lon="2.2213">
        <ele>845.14</ele>
        <time>2017-05-20T10:28:50Z</time>
      </trkpt>
      <trkpt lat="42.52005" lon="2.22098">
        <ele>844.66</ele>
        <time>2017-05-20T10:29:12Z</time>
      </trkpt>
      <trkpt lat="42.52004" lon="2.221">
        <ele>844.66</ele>
        <time>2017-05-20T10:29:34Z</time>
      </trkpt>
      <trkpt lat="42.52004" lon="2.221">
        <ele>844.66</ele>
        <time>2017-05-20T10:29:51Z</time>
      </trkpt>
      <trkpt lat="42.51995" lon="2.22102">
        <ele>845.62</ele>
        <time>2017-05-20T10:30:02Z</time>
      </trkpt>
      <trkpt lat="42.5199" lon="2.22108">
        <ele>846.1</ele>
        <time>2017-05-20T10:30:14Z</time>
      </trkpt>
      <trkpt lat="42.5198" lon="2.22117">
        <ele>847.06</ele>
        <time>2017-05-20T10:30:23Z</time>
      </trkpt>
      <trkpt lat="42.51976" lon="2.2211">
        <ele>847.54</ele>
        <time>2017-05-20T10:30:45Z</time>
      </trkpt>
      <trkpt lat="42.5197" lon="2.22105">
        <ele>847.54</ele>
        <time>2017-05-20T10:31:05Z</time>
      </trkpt>
      <trkpt lat="42.51968" lon="2.22124">
        <ele>847.54</ele>
        <time>2017-05-20T10:31:25Z</time>
      </trkpt>
      <trkpt lat="42.51966" lon="2.22125">
        <ele>847.54</ele>
        <time>2017-05-20T10:31:40Z</time>
      </trkpt>
      <trkpt lat="42.51963" lon="2.22122">
        <ele>848.02</ele>
        <time>2017-05-20T10:31:51Z</time>
      </trkpt>
      <trkpt lat="42.51954" lon="2.2212">
        <ele>848.5</ele>
        <time>2017-05-20T10:32:04Z</time>
      </trkpt>
      <trkpt lat="42.51945" lon="2.22123">
        <ele>850.42</ele>
        <time>2017-05-20T10:32:16Z</time>
      </trkpt>
      <trkpt lat="42.51937" lon="2.22122">
        <ele>851.38</ele>
        <time>2017-05-20T10:32:30Z</time>
      </trkpt>
      <trkpt lat="42.51929" lon="2.22125">
        <ele>853.31</ele>
        <time>2017-05-20T10:32:39Z</time>
      </trkpt>
      <trkpt lat="42.51921" lon="2.22138">
        <ele>853.79</ele>
        <time>2017-05-20T10:32:52Z</time>
      </trkpt>
      <trkpt lat="42.51919" lon="2.22152">
        <ele>855.23</ele>
        <time>2017-05-20T10:33:05Z</time>
      </trkpt>
      <trkpt lat="42.51903" lon="2.2221">
        <ele>857.15</ele>
        <time>2017-05-20T10:33:18Z</time>
      </trkpt>
      <trkpt lat="42.519" lon="2.22225">
        <ele>858.59</ele>
        <time>2017-05-20T10:33:27Z</time>
      </trkpt>
      <trkpt lat="42.51898" lon="2.22231">
        <ele>858.59</ele>
        <time>2017-05-20T10:33:30Z</time>
      </trkpt>
      <trkpt lat="42.51892" lon="2.22242">
        <ele>859.56</ele>
        <time>2017-05-20T10:33:41Z</time>
      </trkpt>
      <trkpt lat="42.51882" lon="2.22257">
        <ele>860.04</ele>
        <time>2017-05-20T10:33:51Z</time>
      </trkpt>
      <trkpt lat="42.51871" lon="2.22274">
        <ele>861.48</ele>
        <time>2017-05-20T10:34:05Z</time>
      </trkpt>
      <trkpt lat="42.51868" lon="2.22313">
        <ele>862.44</ele>
        <time>2017-05-20T10:34:18Z</time>
      </trkpt>
      <trkpt lat="42.51853" lon="2.22322">
        <ele>863.4</ele>
        <time>2017-05-20T10:34:30Z</time>
      </trkpt>
      <trkpt lat="42.51844" lon="2.22318">
        <ele>863.4</ele>
        <time>2017-05-20T10:34:36Z</time>
      </trkpt>
      <trkpt lat="42.51838" lon="2.22318">
        <ele>863.88</ele>
        <time>2017-05-20T10:34:41Z</time>
      </trkpt>
      <trkpt lat="42.51828" lon="2.22317">
        <ele>865.32</ele>
        <time>2017-05-20T10:34:51Z</time>
      </trkpt>
      <trkpt lat="42.51825" lon="2.22319">
        <ele>866.77</ele>
        <time>2017-05-20T10:35:00Z</time>
      </trkpt>
      <trkpt lat="42.51824" lon="2.2232">
        <ele>867.25</ele>
        <time>2017-05-20T10:35:02Z</time>
      </trkpt>
      <trkpt lat="42.51822" lon="2.22326">
        <ele>867.25</ele>
        <time>2017-05-20T10:35:07Z</time>
      </trkpt>
      <trkpt lat="42.51821" lon="2.22344">
        <ele>868.21</ele>
        <time>2017-05-20T10:35:17Z</time>
      </trkpt>
      <trkpt lat="42.51822" lon="2.2235">
        <ele>869.65</ele>
        <time>2017-05-20T10:35:27Z</time>
      </trkpt>
      <trkpt lat="42.51822" lon="2.22348">
        <ele>870.61</ele>
        <time>2017-05-20T10:35:37Z</time>
      </trkpt>
      <trkpt lat="42.51818" lon="2.22344">
        <ele>871.09</ele>
        <time>2017-05-20T10:35:46Z</time>
      </trkpt>
      <trkpt lat="42.5182" lon="2.22344">
        <ele>871.57</ele>
        <time>2017-05-20T10:35:55Z</time>
      </trkpt>
      <trkpt lat="42.5182" lon="2.22338">
        <ele>871.57</ele>
        <time>2017-05-20T10:36:09Z</time>
      </trkpt>
      <trkpt lat="42.518" lon="2.22327">
        <ele>871.57</ele>
        <time>2017-05-20T10:36:22Z</time>
      </trkpt>
      <trkpt lat="42.51787" lon="2.22331">
        <ele>871.57</ele>
        <time>2017-05-20T10:36:38Z</time>
      </trkpt>
      <trkpt lat="42.51785" lon="2.22329">
        <ele>872.53</ele>
        <time>2017-05-20T10:36:47Z</time>
      </trkpt>
      <trkpt lat="42.51792" lon="2.22332">
        <ele>873.01</ele>
        <time>2017-05-20T10:37:00Z</time>
      </trkpt>
      <trkpt lat="42.51793" lon="2.22345">
        <ele>873.5</ele>
        <time>2017-05-20T10:37:15Z</time>
      </trkpt>
      <trkpt lat="42.51801" lon="2.22337">
        <ele>874.94</ele>
        <time>2017-05-20T10:37:26Z</time>
      </trkpt>
      <trkpt lat="42.518" lon="2.2233">
        <ele>876.86</ele>
        <time>2017-05-20T10:37:36Z</time>
      </trkpt>
      <trkpt lat="42.51798" lon="2.22322">
        <ele>879.26</ele>
        <time>2017-05-20T10:37:47Z</time>
      </trkpt>
      <trkpt lat="42.51801" lon="2.22321">
        <ele>880.71</ele>
        <time>2017-05-20T10:37:57Z</time>
      </trkpt>
      <trkpt lat="42.5183" lon="2.22322">
        <ele>880.71</ele>
        <time>2017-05-20T10:38:19Z</time>
      </trkpt>
      <trkpt lat="42.51836" lon="2.22318">
        <ele>882.63</ele>
        <time>2017-05-20T10:38:29Z</time>
      </trkpt>
      <trkpt lat="42.51837" lon="2.22312">
        <ele>885.03</ele>
        <time>2017-05-20T10:38:37Z</time>
      </trkpt>
      <trkpt lat="42.51832" lon="2.22312">
        <ele>885.51</ele>
        <time>2017-05-20T10:38:41Z</time>
      </trkpt>
      <trkpt lat="42.51822" lon="2.2231">
        <ele>886.95</ele>
        <time>2017-05-20T10:38:47Z</time>
      </trkpt>
      <trkpt lat="42.51815" lon="2.22304">
        <ele>888.88</ele>
        <time>2017-05-20T10:38:56Z</time>
      </trkpt>
      <trkpt lat="42.5182" lon="2.223">
        <ele>890.8</ele>
        <time>2017-05-20T10:39:05Z</time>
      </trkpt>
      <trkpt lat="42.51807" lon="2.22286">
        <ele>893.2</ele>
        <time>2017-05-20T10:39:16Z</time>
      </trkpt>
      <trkpt lat="42.518" lon="2.22279">
        <ele>894.64</ele>
        <time>2017-05-20T10:39:30Z</time>
      </trkpt>
      <trkpt lat="42.51803" lon="2.22278">
        <ele>895.12</ele>
        <time>2017-05-20T10:39:51Z</time>
      </trkpt>
      <trkpt lat="42.51803" lon="2.22277">
        <ele>895.12</ele>
        <time>2017-05-20T10:39:53Z</time>
      </trkpt>
      <trkpt lat="42.51804" lon="2.22275">
        <ele>895.12</ele>
        <time>2017-05-20T10:39:54Z</time>
      </trkpt>
      <trkpt lat="42.51806" lon="2.2227">
        <ele>897.05</ele>
        <time>2017-05-20T10:40:02Z</time>
      </trkpt>
      <trkpt lat="42.51811" lon="2.22264">
        <ele>898.97</ele>
        <time>2017-05-20T10:40:14Z</time>
      </trkpt>
      <trkpt lat="42.51819" lon="2.22266">
        <ele>899.93</ele>
        <time>2017-05-20T10:40:27Z</time>
      </trkpt>
      <trkpt lat="42.51821" lon="2.22262">
        <ele>901.85</ele>
        <time>2017-05-20T10:40:39Z</time>
      </trkpt>
      <trkpt lat="42.51829" lon="2.22262">
        <ele>904.74</ele>
        <time>2017-05-20T10:40:49Z</time>
      </trkpt>
      <trkpt lat="42.51841" lon="2.22266">
        <ele>907.14</ele>
        <time>2017-05-20T10:41:00Z</time>
      </trkpt>
      <trkpt lat="42.51858" lon="2.22272">
        <ele>909.06</ele>
        <time>2017-05-20T10:41:10Z</time>
      </trkpt>
      <trkpt lat="42.51861" lon="2.2227">
        <ele>910.51</ele>
        <time>2017-05-20T10:41:19Z</time>
      </trkpt>
      <trkpt lat="42.51856" lon="2.22272">
        <ele>911.95</ele>
        <time>2017-05-20T10:41:24Z</time>
      </trkpt>
      <trkpt lat="42.51855" lon="2.22277">
        <ele>912.43</ele>
        <time>2017-05-20T10:41:27Z</time>
      </trkpt>
      <trkpt lat="42.51843" lon="2.22278">
        <ele>914.83</ele>
        <time>2017-05-20T10:41:37Z</time>
      </trkpt>
      <trkpt lat="42.51831" lon="2.22273">
        <ele>916.27</ele>
        <time>2017-05-20T10:41:45Z</time>
      </trkpt>
      <trkpt lat="42.51816" lon="2.22266">
        <ele>917.72</ele>
        <time>2017-05-20T10:41:55Z</time>
      </trkpt>
      <trkpt lat="42.51797" lon="2.22255">
        <ele>919.64</ele>
        <time>2017-05-20T10:42:04Z</time>
      </trkpt>
      <trkpt lat="42.51784" lon="2.2225">
        <ele>920.6</ele>
        <time>2017-05-20T10:42:13Z</time>
      </trkpt>
      <trkpt lat="42.51773" lon="2.22248">
        <ele>922.52</ele>
        <time>2017-05-20T10:42:25Z</time>
      </trkpt>
      <trkpt lat="42.51773" lon="2.22245">
        <ele>923.48</ele>
        <time>2017-05-20T10:42:35Z</time>
      </trkpt>
      <trkpt lat="42.51782" lon="2.22238">
        <ele>924.45</ele>
        <time>2017-05-20T10:42:44Z</time>
      </trkpt>
      <trkpt lat="42.51789" lon="2.22233">
        <ele>926.85</ele>
        <time>2017-05-20T10:42:55Z</time>
      </trkpt>
      <trkpt lat="42.51793" lon="2.22228">
        <ele>927.33</ele>
        <time>2017-05-20T10:43:03Z</time>
      </trkpt>
      <trkpt lat="42.51794" lon="2.22225">
        <ele>929.25</ele>
        <time>2017-05-20T10:43:15Z</time>
      </trkpt>
      <trkpt lat="42.51789" lon="2.22218">
        <ele>931.65</ele>
        <time>2017-05-20T10:43:27Z</time>
      </trkpt>
      <trkpt lat="42.51781" lon="2.22213">
        <ele>933.58</ele>
        <time>2017-05-20T10:43:39Z</time>
      </trkpt>
      <trkpt lat="42.51777" lon="2.22215">
        <ele>934.54</ele>
        <time>2017-05-20T10:43:48Z</time>
      </trkpt>
      <trkpt lat="42.51772" lon="2.2222">
        <ele>935.98</ele>
        <time>2017-05-20T10:43:57Z</time>
      </trkpt>
      <trkpt lat="42.51765" lon="2.22224">
        <ele>937.42</ele>
        <time>2017-05-20T10:44:07Z</time>
      </trkpt>
      <trkpt lat="42.51761" lon="2.22233">
        <ele>938.86</ele>
        <time>2017-05-20T10:44:16Z</time>
      </trkpt>
      <trkpt lat="42.51755" lon="2.22234">
        <ele>939.83</ele>
        <time>2017-05-20T10:44:27Z</time>
      </trkpt>
      <trkpt lat="42.5175" lon="2.22232">
        <ele>941.75</ele>
        <time>2017-05-20T10:44:35Z</time>
      </trkpt>
      <trkpt lat="42.51746" lon="2.22231">
        <ele>943.19</ele>
        <time>2017-05-20T10:44:45Z</time>
      </trkpt>
      <trkpt lat="42.51739" lon="2.22231">
        <ele>946.07</ele>
        <time>2017-05-20T10:44:58Z</time>
      </trkpt>
      <trkpt lat="42.51737" lon="2.22227">
        <ele>948.48</ele>
        <time>2017-05-20T10:45:10Z</time>
      </trkpt>
      <trkpt lat="42.51732" lon="2.22225">
        <ele>949.92</ele>
        <time>2017-05-20T10:45:21Z</time>
      </trkpt>
      <trkpt lat="42.51726" lon="2.22221">
        <ele>951.36</ele>
        <time>2017-05-20T10:45:33Z</time>
      </trkpt>
      <trkpt lat="42.51721" lon="2.22221">
        <ele>953.28</ele>
        <time>2017-05-20T10:45:43Z</time>
      </trkpt>
      <trkpt lat="42.51716" lon="2.22223">
        <ele>954.73</ele>
        <time>2017-05-20T10:45:52Z</time>
      </trkpt>
      <trkpt lat="42.51711" lon="2.22223">
        <ele>956.17</ele>
        <time>2017-05-20T10:46:01Z</time>
      </trkpt>
      <trkpt lat="42.51707" lon="2.22226">
        <ele>957.61</ele>
        <time>2017-05-20T10:46:09Z</time>
      </trkpt>
      <trkpt lat="42.51702" lon="2.22228">
        <ele>957.61</ele>
        <time>2017-05-20T10:46:22Z</time>
      </trkpt>
      <trkpt lat="42.517" lon="2.22223">
        <ele>959.53</ele>
        <time>2017-05-20T10:46:36Z</time>
      </trkpt>
      <trkpt lat="42.51704" lon="2.22218">
        <ele>960.98</ele>
        <time>2017-05-20T10:46:44Z</time>
      </trkpt>
      <trkpt lat="42.51704" lon="2.22216">
        <ele>962.9</ele>
        <time>2017-05-20T10:46:55Z</time>
      </trkpt>
      <trkpt lat="42.51694" lon="2.22213">
        <ele>964.34</ele>
        <time>2017-05-20T10:47:06Z</time>
      </trkpt>
      <trkpt lat="42.51686" lon="2.22218">
        <ele>966.74</ele>
        <time>2017-05-20T10:47:19Z</time>
      </trkpt>
      <trkpt lat="42.51682" lon="2.22221">
        <ele>968.18</ele>
        <time>2017-05-20T10:47:29Z</time>
      </trkpt>
      <trkpt lat="42.51675" lon="2.22223">
        <ele>970.11</ele>
        <time>2017-05-20T10:47:41Z</time>
      </trkpt>
      <trkpt lat="42.51668" lon="2.22221">
        <ele>971.55</ele>
        <time>2017-05-20T10:47:52Z</time>
      </trkpt>
      <trkpt lat="42.5166" lon="2.22221">
        <ele>973.47</ele>
        <time>2017-05-20T10:48:03Z</time>
      </trkpt>
      <trkpt lat="42.51654" lon="2.22222">
        <ele>974.91</ele>
        <time>2017-05-20T10:48:13Z</time>
      </trkpt>
      <trkpt lat="42.51649" lon="2.22226">
        <ele>976.84</ele>
        <time>2017-05-20T10:48:24Z</time>
      </trkpt>
      <trkpt lat="42.51643" lon="2.22232">
        <ele>978.28</ele>
        <time>2017-05-20T10:48:34Z</time>
      </trkpt>
      <trkpt lat="42.51637" lon="2.22233">
        <ele>980.2</ele>
        <time>2017-05-20T10:48:43Z</time>
      </trkpt>
      <trkpt lat="42.51634" lon="2.22227">
        <ele>981.64</ele>
        <time>2017-05-20T10:48:52Z</time>
      </trkpt>
      <trkpt lat="42.51633" lon="2.2222">
        <ele>983.09</ele>
        <time>2017-05-20T10:49:02Z</time>
      </trkpt>
      <trkpt lat="42.51631" lon="2.22211">
        <ele>984.53</ele>
        <time>2017-05-20T10:49:13Z</time>
      </trkpt>
      <trkpt lat="42.51626" lon="2.22205">
        <ele>986.93</ele>
        <time>2017-05-20T10:49:25Z</time>
      </trkpt>
      <trkpt lat="42.51622" lon="2.22197">
        <ele>987.41</ele>
        <time>2017-05-20T10:49:35Z</time>
      </trkpt>
      <trkpt lat="42.51621" lon="2.22198">
        <ele>987.41</ele>
        <time>2017-05-20T10:49:45Z</time>
      </trkpt>
      <trkpt lat="42.51621" lon="2.22198">
        <ele>987.41</ele>
        <time>2017-05-20T10:49:56Z</time>
      </trkpt>
      <trkpt lat="42.5162" lon="2.22197">
        <ele>987.41</ele>
        <time>2017-05-20T10:50:13Z</time>
      </trkpt>
      <trkpt lat="42.5162" lon="2.22197">
        <ele>987.41</ele>
        <time>2017-05-20T10:50:32Z</time>
      </trkpt>
      <trkpt lat="42.5162" lon="2.22196">
        <ele>987.41</ele>
        <time>2017-05-20T10:50:46Z</time>
      </trkpt>
      <trkpt lat="42.51619" lon="2.22195">
        <ele>987.41</ele>
        <time>2017-05-20T10:51:09Z</time>
      </trkpt>
      <trkpt lat="42.51619" lon="2.22198">
        <ele>988.37</ele>
        <time>2017-05-20T10:51:20Z</time>
      </trkpt>
      <trkpt lat="42.5162" lon="2.22202">
        <ele>988.37</ele>
        <time>2017-05-20T10:51:33Z</time>
      </trkpt>
      <trkpt lat="42.51621" lon="2.22204">
        <ele>988.37</ele>
        <time>2017-05-20T10:51:46Z</time>
      </trkpt>
      <trkpt lat="42.51625" lon="2.22207">
        <ele>988.37</ele>
        <time>2017-05-20T10:51:56Z</time>
      </trkpt>
      <trkpt lat="42.51627" lon="2.22208">
        <ele>988.85</ele>
        <time>2017-05-20T10:52:08Z</time>
      </trkpt>
      <trkpt lat="42.51634" lon="2.22209">
        <ele>988.85</ele>
        <time>2017-05-20T10:52:32Z</time>
      </trkpt>
      <trkpt lat="42.51636" lon="2.22208">
        <ele>988.85</ele>
        <time>2017-05-20T10:52:43Z</time>
      </trkpt>
      <trkpt lat="42.51644" lon="2.22197">
        <ele>988.85</ele>
        <time>2017-05-20T10:52:54Z</time>
      </trkpt>
      <trkpt lat="42.51645" lon="2.22195">
        <ele>988.85</ele>
        <time>2017-05-20T10:52:56Z</time>
      </trkpt>
      <trkpt lat="42.51646" lon="2.22193">
        <ele>988.85</ele>
        <time>2017-05-20T10:52:59Z</time>
      </trkpt>
      <trkpt lat="42.51655" lon="2.22186">
        <ele>988.85</ele>
        <time>2017-05-20T10:53:09Z</time>
      </trkpt>
      <trkpt lat="42.51658" lon="2.22184">
        <ele>988.85</ele>
        <time>2017-05-20T10:53:13Z</time>
      </trkpt>
      <trkpt lat="42.51674" lon="2.22186">
        <ele>988.37</ele>
        <time>2017-05-20T10:53:26Z</time>
      </trkpt>
      <trkpt lat="42.5168" lon="2.22183">
        <ele>988.37</ele>
        <time>2017-05-20T10:53:39Z</time>
      </trkpt>
      <trkpt lat="42.51683" lon="2.22183">
        <ele>988.37</ele>
        <time>2017-05-20T10:53:46Z</time>
      </trkpt>
      <trkpt lat="42.51694" lon="2.22182">
        <ele>988.37</ele>
        <time>2017-05-20T10:53:55Z</time>
      </trkpt>
      <trkpt lat="42.517" lon="2.22182">
        <ele>988.37</ele>
        <time>2017-05-20T10:53:59Z</time>
      </trkpt>
      <trkpt lat="42.5171" lon="2.22183">
        <ele>988.37</ele>
        <time>2017-05-20T10:54:08Z</time>
      </trkpt>
      <trkpt lat="42.51711" lon="2.22182">
        <ele>988.37</ele>
        <time>2017-05-20T10:54:10Z</time>
      </trkpt>
      <trkpt lat="42.51713" lon="2.22176">
        <ele>988.37</ele>
        <time>2017-05-20T10:54:15Z</time>
      </trkpt>
      <trkpt lat="42.51718" lon="2.22166">
        <ele>988.37</ele>
        <time>2017-05-20T10:54:24Z</time>
      </trkpt>
      <trkpt lat="42.51719" lon="2.22165">
        <ele>988.37</ele>
        <time>2017-05-20T10:54:25Z</time>
      </trkpt>
      <trkpt lat="42.51724" lon="2.22153">
        <ele>988.37</ele>
        <time>2017-05-20T10:54:35Z</time>
      </trkpt>
      <trkpt lat="42.51727" lon="2.22144">
        <ele>988.37</ele>
        <time>2017-05-20T10:54:45Z</time>
      </trkpt>
      <trkpt lat="42.51732" lon="2.2214">
        <ele>987.89</ele>
        <time>2017-05-20T10:54:58Z</time>
      </trkpt>
      <trkpt lat="42.51736" lon="2.22137">
        <ele>987.89</ele>
        <time>2017-05-20T10:55:04Z</time>
      </trkpt>
      <trkpt lat="42.51743" lon="2.22126">
        <ele>987.89</ele>
        <time>2017-05-20T10:55:14Z</time>
      </trkpt>
      <trkpt lat="42.51746" lon="2.22119">
        <ele>987.89</ele>
        <time>2017-05-20T10:55:18Z</time>
      </trkpt>
      <trkpt lat="42.51751" lon="2.22105">
        <ele>987.89</ele>
        <time>2017-05-20T10:55:28Z</time>
      </trkpt>
      <trkpt lat="42.51755" lon="2.221">
        <ele>987.89</ele>
        <time>2017-05-20T10:55:35Z</time>
      </trkpt>
      <trkpt lat="42.51769" lon="2.2209">
        <ele>987.89</ele>
        <time>2017-05-20T10:55:45Z</time>
      </trkpt>
      <trkpt lat="42.51773" lon="2.22088">
        <ele>987.89</ele>
        <time>2017-05-20T10:55:48Z</time>
      </trkpt>
      <trkpt lat="42.51786" lon="2.22084">
        <ele>987.89</ele>
        <time>2017-05-20T10:55:57Z</time>
      </trkpt>
      <trkpt lat="42.51796" lon="2.22093">
        <ele>987.89</ele>
        <time>2017-05-20T10:56:05Z</time>
      </trkpt>
      <trkpt lat="42.51808" lon="2.22093">
        <ele>988.37</ele>
        <time>2017-05-20T10:56:15Z</time>
      </trkpt>
      <trkpt lat="42.51813" lon="2.2209">
        <ele>988.37</ele>
        <time>2017-05-20T10:56:22Z</time>
      </trkpt>
      <trkpt lat="42.51815" lon="2.22088">
        <ele>988.85</ele>
        <time>2017-05-20T10:56:24Z</time>
      </trkpt>
      <trkpt lat="42.51827" lon="2.22086">
        <ele>988.85</ele>
        <time>2017-05-20T10:56:33Z</time>
      </trkpt>
      <trkpt lat="42.51837" lon="2.22108">
        <ele>988.85</ele>
        <time>2017-05-20T10:56:48Z</time>
      </trkpt>
      <trkpt lat="42.51851" lon="2.22123">
        <ele>989.33</ele>
        <time>2017-05-20T10:56:58Z</time>
      </trkpt>
      <trkpt lat="42.51854" lon="2.22117">
        <ele>989.33</ele>
        <time>2017-05-20T10:57:03Z</time>
      </trkpt>
      <trkpt lat="42.5186" lon="2.22108">
        <ele>989.33</ele>
        <time>2017-05-20T10:57:15Z</time>
      </trkpt>
      <trkpt lat="42.51863" lon="2.2211">
        <ele>989.33</ele>
        <time>2017-05-20T10:57:23Z</time>
      </trkpt>
      <trkpt lat="42.51869" lon="2.22109">
        <ele>989.33</ele>
        <time>2017-05-20T10:57:28Z</time>
      </trkpt>
      <trkpt lat="42.51872" lon="2.22109">
        <ele>989.33</ele>
        <time>2017-05-20T10:57:31Z</time>
      </trkpt>
      <trkpt lat="42.51877" lon="2.2211">
        <ele>989.33</ele>
        <time>2017-05-20T10:57:35Z</time>
      </trkpt>
      <trkpt lat="42.51889" lon="2.22104">
        <ele>989.33</ele>
        <time>2017-05-20T10:57:44Z</time>
      </trkpt>
      <trkpt lat="42.51895" lon="2.22107">
        <ele>989.33</ele>
        <time>2017-05-20T10:57:49Z</time>
      </trkpt>
      <trkpt lat="42.51901" lon="2.22105">
        <ele>989.33</ele>
        <time>2017-05-20T10:58:02Z</time>
      </trkpt>
      <trkpt lat="42.51902" lon="2.22104">
        <ele>989.33</ele>
        <time>2017-05-20T10:58:03Z</time>
      </trkpt>
      <trkpt lat="42.51911" lon="2.22099">
        <ele>989.33</ele>
        <time>2017-05-20T10:58:12Z</time>
      </trkpt>
      <trkpt lat="42.51919" lon="2.2209">
        <ele>989.33</ele>
        <time>2017-05-20T10:58:26Z</time>
      </trkpt>
      <trkpt lat="42.51925" lon="2.22087">
        <ele>989.33</ele>
        <time>2017-05-20T10:58:35Z</time>
      </trkpt>
      <trkpt lat="42.51929" lon="2.22088">
        <ele>989.33</ele>
        <time>2017-05-20T10:58:44Z</time>
      </trkpt>
      <trkpt lat="42.51941" lon="2.22098">
        <ele>989.33</ele>
        <time>2017-05-20T10:58:56Z</time>
      </trkpt>
      <trkpt lat="42.51944" lon="2.22103">
        <ele>989.33</ele>
        <time>2017-05-20T10:59:13Z</time>
      </trkpt>
      <trkpt lat="42.51951" lon="2.22114">
        <ele>989.33</ele>
        <time>2017-05-20T10:59:21Z</time>
      </trkpt>
      <trkpt lat="42.51958" lon="2.22116">
        <ele>989.33</ele>
        <time>2017-05-20T10:59:28Z</time>
      </trkpt>
      <trkpt lat="42.51971" lon="2.22118">
        <ele>988.37</ele>
        <time>2017-05-20T10:59:39Z</time>
      </trkpt>
      <trkpt lat="42.51978" lon="2.22118">
        <ele>988.37</ele>
        <time>2017-05-20T10:59:50Z</time>
      </trkpt>
      <trkpt lat="42.51977" lon="2.2211">
        <ele>988.37</ele>
        <time>2017-05-20T11:00:09Z</time>
      </trkpt>
      <trkpt lat="42.51985" lon="2.22112">
        <ele>988.37</ele>
        <time>2017-05-20T11:00:22Z</time>
      </trkpt>
      <trkpt lat="42.51996" lon="2.22133">
        <ele>988.37</ele>
        <time>2017-05-20T11:00:38Z</time>
      </trkpt>
      <trkpt lat="42.52005" lon="2.22112">
        <ele>988.37</ele>
        <time>2017-05-20T11:00:52Z</time>
      </trkpt>
      <trkpt lat="42.52" lon="2.22073">
        <ele>988.37</ele>
        <time>2017-05-20T11:01:03Z</time>
      </trkpt>
      <trkpt lat="42.52004" lon="2.22058">
        <ele>989.81</ele>
        <time>2017-05-20T11:01:14Z</time>
      </trkpt>
      <trkpt lat="42.52003" lon="2.22057">
        <ele>989.81</ele>
        <time>2017-05-20T11:01:15Z</time>
      </trkpt>
      <trkpt lat="42.51999" lon="2.22039">
        <ele>989.81</ele>
        <time>2017-05-20T11:01:27Z</time>
      </trkpt>
      <trkpt lat="42.51997" lon="2.22026">
        <ele>989.81</ele>
        <time>2017-05-20T11:01:37Z</time>
      </trkpt>
      <trkpt lat="42.51997" lon="2.22024">
        <ele>989.81</ele>
        <time>2017-05-20T11:01:38Z</time>
      </trkpt>
      <trkpt lat="42.51994" lon="2.22004">
        <ele>989.81</ele>
        <time>2017-05-20T11:01:49Z</time>
      </trkpt>
      <trkpt lat="42.51993" lon="2.21993">
        <ele>989.81</ele>
        <time>2017-05-20T11:01:57Z</time>
      </trkpt>
      <trkpt lat="42.51991" lon="2.21989">
        <ele>989.81</ele>
        <time>2017-05-20T11:02:00Z</time>
      </trkpt>
      <trkpt lat="42.51982" lon="2.21974">
        <ele>989.81</ele>
        <time>2017-05-20T11:02:11Z</time>
      </trkpt>
      <trkpt lat="42.5198" lon="2.21965">
        <ele>989.81</ele>
        <time>2017-05-20T11:02:16Z</time>
      </trkpt>
      <trkpt lat="42.51978" lon="2.21955">
        <ele>989.81</ele>
        <time>2017-05-20T11:02:23Z</time>
      </trkpt>
      <trkpt lat="42.51973" lon="2.21938">
        <ele>989.81</ele>
        <time>2017-05-20T11:02:32Z</time>
      </trkpt>
      <trkpt lat="42.51969" lon="2.21922">
        <ele>989.81</ele>
        <time>2017-05-20T11:02:42Z</time>
      </trkpt>
      <trkpt lat="42.51968" lon="2.21911">
        <ele>989.33</ele>
        <time>2017-05-20T11:02:51Z</time>
      </trkpt>
      <trkpt lat="42.51967" lon="2.21906">
        <ele>989.33</ele>
        <time>2017-05-20T11:02:54Z</time>
      </trkpt>
      <trkpt lat="42.51966" lon="2.21901">
        <ele>989.33</ele>
        <time>2017-05-20T11:02:57Z</time>
      </trkpt>
      <trkpt lat="42.51963" lon="2.21882">
        <ele>989.33</ele>
        <time>2017-05-20T11:03:07Z</time>
      </trkpt>
      <trkpt lat="42.51962" lon="2.21878">
        <ele>989.33</ele>
        <time>2017-05-20T11:03:10Z</time>
      </trkpt>
      <trkpt lat="42.51961" lon="2.21871">
        <ele>989.33</ele>
        <time>2017-05-20T11:03:17Z</time>
      </trkpt>
      <trkpt lat="42.51961" lon="2.21868">
        <ele>989.33</ele>
        <time>2017-05-20T11:03:19Z</time>
      </trkpt>
      <trkpt lat="42.51961" lon="2.2186">
        <ele>989.33</ele>
        <time>2017-05-20T11:03:24Z</time>
      </trkpt>
      <trkpt lat="42.51963" lon="2.21841">
        <ele>988.85</ele>
        <time>2017-05-20T11:03:35Z</time>
      </trkpt>
      <trkpt lat="42.51963" lon="2.21827">
        <ele>988.85</ele>
        <time>2017-05-20T11:03:43Z</time>
      </trkpt>
      <trkpt lat="42.51961" lon="2.21811">
        <ele>988.85</ele>
        <time>2017-05-20T11:03:53Z</time>
      </trkpt>
      <trkpt lat="42.51958" lon="2.21803">
        <ele>988.85</ele>
        <time>2017-05-20T11:04:03Z</time>
      </trkpt>
      <trkpt lat="42.51954" lon="2.21793">
        <ele>988.37</ele>
        <time>2017-05-20T11:04:15Z</time>
      </trkpt>
      <trkpt lat="42.5195" lon="2.2178">
        <ele>988.37</ele>
        <time>2017-05-20T11:04:27Z</time>
      </trkpt>
      <trkpt lat="42.51949" lon="2.21779">
        <ele>988.37</ele>
        <time>2017-05-20T11:04:28Z</time>
      </trkpt>
      <trkpt lat="42.51948" lon="2.21774">
        <ele>988.37</ele>
        <time>2017-05-20T11:04:39Z</time>
      </trkpt>
      <trkpt lat="42.51948" lon="2.21772">
        <ele>987.89</ele>
        <time>2017-05-20T11:04:58Z</time>
      </trkpt>
      <trkpt lat="42.5195" lon="2.21767">
        <ele>988.37</ele>
        <time>2017-05-20T11:05:19Z</time>
      </trkpt>
      <trkpt lat="42.51951" lon="2.21768">
        <ele>988.37</ele>
        <time>2017-05-20T11:05:41Z</time>
      </trkpt>
      <trkpt lat="42.51952" lon="2.21768">
        <ele>988.37</ele>
        <time>2017-05-20T11:06:01Z</time>
      </trkpt>
      <trkpt lat="42.51955" lon="2.21768">
        <ele>988.37</ele>
        <time>2017-05-20T11:06:29Z</time>
      </trkpt>
      <trkpt lat="42.51953" lon="2.21768">
        <ele>988.37</ele>
        <time>2017-05-20T11:06:57Z</time>
      </trkpt>
      <trkpt lat="42.51953" lon="2.21769">
        <ele>988.85</ele>
        <time>2017-05-20T11:07:30Z</time>
      </trkpt>
      <trkpt lat="42.51952" lon="2.21767">
        <ele>988.85</ele>
        <time>2017-05-20T11:07:50Z</time>
      </trkpt>
      <trkpt lat="42.51949" lon="2.21766">
        <ele>988.85</ele>
        <time>2017-05-20T11:08:17Z</time>
      </trkpt>
      <trkpt lat="42.5195" lon="2.21772">
        <ele>988.85</ele>
        <time>2017-05-20T11:08:31Z</time>
      </trkpt>
      <trkpt lat="42.51958" lon="2.21791">
        <ele>988.85</ele>
        <time>2017-05-20T11:08:44Z</time>
      </trkpt>
      <trkpt lat="42.51962" lon="2.21798">
        <ele>988.85</ele>
        <time>2017-05-20T11:08:50Z</time>
      </trkpt>
      <trkpt lat="42.51961" lon="2.21813">
        <ele>988.85</ele>
        <time>2017-05-20T11:09:02Z</time>
      </trkpt>
      <trkpt lat="42.51961" lon="2.21832">
        <ele>988.85</ele>
        <time>2017-05-20T11:09:13Z</time>
      </trkpt>
      <trkpt lat="42.5196" lon="2.21845">
        <ele>988.85</ele>
        <time>2017-05-20T11:09:24Z</time>
      </trkpt>
      <trkpt lat="42.5196" lon="2.21846">
        <ele>988.85</ele>
        <time>2017-05-20T11:09:25Z</time>
      </trkpt>
      <trkpt lat="42.51962" lon="2.21852">
        <ele>988.85</ele>
        <time>2017-05-20T11:09:29Z</time>
      </trkpt>
      <trkpt lat="42.51966" lon="2.21869">
        <ele>988.37</ele>
        <time>2017-05-20T11:09:39Z</time>
      </trkpt>
      <trkpt lat="42.51967" lon="2.21878">
        <ele>988.37</ele>
        <time>2017-05-20T11:09:44Z</time>
      </trkpt>
      <trkpt lat="42.51968" lon="2.21886">
        <ele>988.37</ele>
        <time>2017-05-20T11:09:48Z</time>
      </trkpt>
      <trkpt lat="42.51967" lon="2.21904">
        <ele>988.37</ele>
        <time>2017-05-20T11:09:59Z</time>
      </trkpt>
      <trkpt lat="42.51968" lon="2.21909">
        <ele>988.37</ele>
        <time>2017-05-20T11:10:02Z</time>
      </trkpt>
      <trkpt lat="42.51972" lon="2.21932">
        <ele>988.37</ele>
        <time>2017-05-20T11:10:13Z</time>
      </trkpt>
      <trkpt lat="42.51979" lon="2.21953">
        <ele>988.37</ele>
        <time>2017-05-20T11:10:22Z</time>
      </trkpt>
      <trkpt lat="42.51987" lon="2.21967">
        <ele>988.37</ele>
        <time>2017-05-20T11:10:29Z</time>
      </trkpt>
      <trkpt lat="42.5199" lon="2.21992">
        <ele>988.37</ele>
        <time>2017-05-20T11:10:44Z</time>
      </trkpt>
      <trkpt lat="42.51994" lon="2.22014">
        <ele>988.37</ele>
        <time>2017-05-20T11:10:55Z</time>
      </trkpt>
      <trkpt lat="42.51996" lon="2.22033">
        <ele>988.37</ele>
        <time>2017-05-20T11:11:06Z</time>
      </trkpt>
      <trkpt lat="42.51997" lon="2.22048">
        <ele>988.37</ele>
        <time>2017-05-20T11:11:18Z</time>
      </trkpt>
      <trkpt lat="42.52" lon="2.22058">
        <ele>988.37</ele>
        <time>2017-05-20T11:11:30Z</time>
      </trkpt>
      <trkpt lat="42.51999" lon="2.22065">
        <ele>988.37</ele>
        <time>2017-05-20T11:11:34Z</time>
      </trkpt>
      <trkpt lat="42.51987" lon="2.22072">
        <ele>988.37</ele>
        <time>2017-05-20T11:11:45Z</time>
      </trkpt>
      <trkpt lat="42.51985" lon="2.22073">
        <ele>986.93</ele>
        <time>2017-05-20T11:11:47Z</time>
      </trkpt>
      <trkpt lat="42.51971" lon="2.22077">
        <ele>986.93</ele>
        <time>2017-05-20T11:12:00Z</time>
      </trkpt>
      <trkpt lat="42.5196" lon="2.2208">
        <ele>986.93</ele>
        <time>2017-05-20T11:12:08Z</time>
      </trkpt>
      <trkpt lat="42.51945" lon="2.22085">
        <ele>987.89</ele>
        <time>2017-05-20T11:12:21Z</time>
      </trkpt>
      <trkpt lat="42.5193" lon="2.22092">
        <ele>987.89</ele>
        <time>2017-05-20T11:12:32Z</time>
      </trkpt>
      <trkpt lat="42.51927" lon="2.22092">
        <ele>987.89</ele>
        <time>2017-05-20T11:12:35Z</time>
      </trkpt>
      <trkpt lat="42.51924" lon="2.22092">
        <ele>988.37</ele>
        <time>2017-05-20T11:12:37Z</time>
      </trkpt>
      <trkpt lat="42.5191" lon="2.22091">
        <ele>988.85</ele>
        <time>2017-05-20T11:12:48Z</time>
      </trkpt>
      <trkpt lat="42.51898" lon="2.22102">
        <ele>988.85</ele>
        <time>2017-05-20T11:12:59Z</time>
      </trkpt>
      <trkpt lat="42.51894" lon="2.221">
        <ele>988.37</ele>
        <time>2017-05-20T11:13:04Z</time>
      </trkpt>
      <trkpt lat="42.51875" lon="2.221">
        <ele>988.37</ele>
        <time>2017-05-20T11:13:17Z</time>
      </trkpt>
      <trkpt lat="42.51863" lon="2.22099">
        <ele>988.37</ele>
        <time>2017-05-20T11:13:26Z</time>
      </trkpt>
      <trkpt lat="42.51862" lon="2.22099">
        <ele>988.37</ele>
        <time>2017-05-20T11:13:27Z</time>
      </trkpt>
      <trkpt lat="42.51854" lon="2.22098">
        <ele>988.37</ele>
        <time>2017-05-20T11:13:33Z</time>
      </trkpt>
      <trkpt lat="42.5184" lon="2.22089">
        <ele>986.93</ele>
        <time>2017-05-20T11:13:46Z</time>
      </trkpt>
      <trkpt lat="42.51836" lon="2.22091">
        <ele>986.93</ele>
        <time>2017-05-20T11:13:49Z</time>
      </trkpt>
      <trkpt lat="42.51824" lon="2.22094">
        <ele>986.93</ele>
        <time>2017-05-20T11:13:59Z</time>
      </trkpt>
      <trkpt lat="42.51822" lon="2.22093">
        <ele>986.93</ele>
        <time>2017-05-20T11:14:02Z</time>
      </trkpt>
      <trkpt lat="42.51813" lon="2.22096">
        <ele>986.45</ele>
        <time>2017-05-20T11:14:12Z</time>
      </trkpt>
      <trkpt lat="42.51806" lon="2.22095">
        <ele>985.97</ele>
        <time>2017-05-20T11:14:21Z</time>
      </trkpt>
      <trkpt lat="42.518" lon="2.22083">
        <ele>985.97</ele>
        <time>2017-05-20T11:14:33Z</time>
      </trkpt>
      <trkpt lat="42.518" lon="2.22071">
        <ele>985.97</ele>
        <time>2017-05-20T11:14:43Z</time>
      </trkpt>
      <trkpt lat="42.51794" lon="2.22056">
        <ele>985.49</ele>
        <time>2017-05-20T11:14:53Z</time>
      </trkpt>
      <trkpt lat="42.51801" lon="2.22069">
        <ele>985.49</ele>
        <time>2017-05-20T11:15:09Z</time>
      </trkpt>
      <trkpt lat="42.51802" lon="2.2207">
        <ele>985.49</ele>
        <time>2017-05-20T11:15:23Z</time>
      </trkpt>
      <trkpt lat="42.51794" lon="2.22069">
        <ele>985.01</ele>
        <time>2017-05-20T11:15:34Z</time>
      </trkpt>
      <trkpt lat="42.51781" lon="2.22069">
        <ele>985.01</ele>
        <time>2017-05-20T11:15:44Z</time>
      </trkpt>
      <trkpt lat="42.51774" lon="2.22071">
        <ele>985.01</ele>
        <time>2017-05-20T11:15:49Z</time>
      </trkpt>
      <trkpt lat="42.51765" lon="2.22073">
        <ele>985.01</ele>
        <time>2017-05-20T11:15:58Z</time>
      </trkpt>
      <trkpt lat="42.51762" lon="2.2208">
        <ele>985.01</ele>
        <time>2017-05-20T11:16:01Z</time>
      </trkpt>
      <trkpt lat="42.51757" lon="2.22113">
        <ele>985.01</ele>
        <time>2017-05-20T11:16:13Z</time>
      </trkpt>
      <trkpt lat="42.51754" lon="2.22119">
        <ele>985.01</ele>
        <time>2017-05-20T11:16:18Z</time>
      </trkpt>
      <trkpt lat="42.51747" lon="2.22126">
        <ele>985.01</ele>
        <time>2017-05-20T11:16:25Z</time>
      </trkpt>
      <trkpt lat="42.51741" lon="2.22134">
        <ele>985.01</ele>
        <time>2017-05-20T11:16:32Z</time>
      </trkpt>
      <trkpt lat="42.51734" lon="2.22141">
        <ele>985.01</ele>
        <time>2017-05-20T11:16:40Z</time>
      </trkpt>
      <trkpt lat="42.51727" lon="2.22147">
        <ele>985.01</ele>
        <time>2017-05-20T11:16:47Z</time>
      </trkpt>
      <trkpt lat="42.51725" lon="2.22151">
        <ele>985.01</ele>
        <time>2017-05-20T11:16:49Z</time>
      </trkpt>
      <trkpt lat="42.51722" lon="2.22172">
        <ele>985.01</ele>
        <time>2017-05-20T11:16:59Z</time>
      </trkpt>
      <trkpt lat="42.51721" lon="2.22177">
        <ele>985.01</ele>
        <time>2017-05-20T11:17:02Z</time>
      </trkpt>
      <trkpt lat="42.51717" lon="2.22183">
        <ele>985.01</ele>
        <time>2017-05-20T11:17:07Z</time>
      </trkpt>
      <trkpt lat="42.51714" lon="2.22184">
        <ele>985.01</ele>
        <time>2017-05-20T11:17:10Z</time>
      </trkpt>
      <trkpt lat="42.51703" lon="2.22183">
        <ele>985.01</ele>
        <time>2017-05-20T11:17:20Z</time>
      </trkpt>
      <trkpt lat="42.51698" lon="2.22184">
        <ele>985.01</ele>
        <time>2017-05-20T11:17:25Z</time>
      </trkpt>
      <trkpt lat="42.51692" lon="2.22191">
        <ele>985.01</ele>
        <time>2017-05-20T11:17:31Z</time>
      </trkpt>
      <trkpt lat="42.5168" lon="2.22194">
        <ele>985.97</ele>
        <time>2017-05-20T11:17:41Z</time>
      </trkpt>
      <trkpt lat="42.51674" lon="2.22197">
        <ele>985.97</ele>
        <time>2017-05-20T11:17:46Z</time>
      </trkpt>
      <trkpt lat="42.51662" lon="2.22201">
        <ele>985.97</ele>
        <time>2017-05-20T11:17:56Z</time>
      </trkpt>
      <trkpt lat="42.51655" lon="2.22205">
        <ele>985.49</ele>
        <time>2017-05-20T11:18:02Z</time>
      </trkpt>
      <trkpt lat="42.51648" lon="2.22208">
        <ele>985.49</ele>
        <time>2017-05-20T11:18:06Z</time>
      </trkpt>
      <trkpt lat="42.51636" lon="2.22213">
        <ele>985.49</ele>
        <time>2017-05-20T11:18:16Z</time>
      </trkpt>
      <trkpt lat="42.51627" lon="2.22208">
        <ele>985.49</ele>
        <time>2017-05-20T11:18:25Z</time>
      </trkpt>
      <trkpt lat="42.51618" lon="2.22204">
        <ele>985.01</ele>
        <time>2017-05-20T11:18:35Z</time>
      </trkpt>
      <trkpt lat="42.51614" lon="2.22205">
        <ele>985.01</ele>
        <time>2017-05-20T11:18:44Z</time>
      </trkpt>
      <trkpt lat="42.51617" lon="2.22205">
        <ele>984.53</ele>
        <time>2017-05-20T11:18:57Z</time>
      </trkpt>
      <trkpt lat="42.51616" lon="2.22205">
        <ele>984.53</ele>
        <time>2017-05-20T11:19:09Z</time>
      </trkpt>
      <trkpt lat="42.51609" lon="2.2221">
        <ele>984.05</ele>
        <time>2017-05-20T11:19:18Z</time>
      </trkpt>
      <trkpt lat="42.51605" lon="2.22209">
        <ele>984.05</ele>
        <time>2017-05-20T11:19:22Z</time>
      </trkpt>
      <trkpt lat="42.51591" lon="2.22211">
        <ele>983.57</ele>
        <time>2017-05-20T11:19:32Z</time>
      </trkpt>
      <trkpt lat="42.5159" lon="2.22212">
        <ele>983.57</ele>
        <time>2017-05-20T11:19:33Z</time>
      </trkpt>
      <trkpt lat="42.51577" lon="2.22208">
        <ele>982.12</ele>
        <time>2017-05-20T11:19:43Z</time>
      </trkpt>
      <trkpt lat="42.51574" lon="2.22208">
        <ele>982.12</ele>
        <time>2017-05-20T11:19:45Z</time>
      </trkpt>
      <trkpt lat="42.51572" lon="2.22208">
        <ele>982.12</ele>
        <time>2017-05-20T11:19:47Z</time>
      </trkpt>
      <trkpt lat="42.5156" lon="2.22215">
        <ele>982.12</ele>
        <time>2017-05-20T11:19:56Z</time>
      </trkpt>
      <trkpt lat="42.51557" lon="2.22218">
        <ele>982.12</ele>
        <time>2017-05-20T11:19:59Z</time>
      </trkpt>
      <trkpt lat="42.51546" lon="2.22218">
        <ele>981.64</ele>
        <time>2017-05-20T11:20:07Z</time>
      </trkpt>
      <trkpt lat="42.51536" lon="2.22217">
        <ele>981.64</ele>
        <time>2017-05-20T11:20:15Z</time>
      </trkpt>
      <trkpt lat="42.51532" lon="2.22214">
        <ele>981.16</ele>
        <time>2017-05-20T11:20:19Z</time>
      </trkpt>
      <trkpt lat="42.51524" lon="2.2221">
        <ele>982.12</ele>
        <time>2017-05-20T11:20:29Z</time>
      </trkpt>
      <trkpt lat="42.51521" lon="2.2221">
        <ele>982.12</ele>
        <time>2017-05-20T11:20:31Z</time>
      </trkpt>
      <trkpt lat="42.51508" lon="2.22206">
        <ele>982.12</ele>
        <time>2017-05-20T11:20:40Z</time>
      </trkpt>
      <trkpt lat="42.51498" lon="2.22204">
        <ele>982.12</ele>
        <time>2017-05-20T11:20:46Z</time>
      </trkpt>
      <trkpt lat="42.51481" lon="2.22206">
        <ele>982.12</ele>
        <time>2017-05-20T11:20:57Z</time>
      </trkpt>
      <trkpt lat="42.51471" lon="2.22206">
        <ele>981.64</ele>
        <time>2017-05-20T11:21:06Z</time>
      </trkpt>
      <trkpt lat="42.51466" lon="2.22204">
        <ele>982.12</ele>
        <time>2017-05-20T11:21:17Z</time>
      </trkpt>
      <trkpt lat="42.5146" lon="2.22202">
        <ele>982.12</ele>
        <time>2017-05-20T11:21:23Z</time>
      </trkpt>
      <trkpt lat="42.51454" lon="2.22204">
        <ele>981.64</ele>
        <time>2017-05-20T11:21:28Z</time>
      </trkpt>
      <trkpt lat="42.51443" lon="2.22204">
        <ele>981.64</ele>
        <time>2017-05-20T11:21:37Z</time>
      </trkpt>
      <trkpt lat="42.5143" lon="2.22201">
        <ele>981.64</ele>
        <time>2017-05-20T11:21:49Z</time>
      </trkpt>
      <trkpt lat="42.51419" lon="2.222">
        <ele>982.12</ele>
        <time>2017-05-20T11:21:57Z</time>
      </trkpt>
      <trkpt lat="42.51409" lon="2.22204">
        <ele>982.12</ele>
        <time>2017-05-20T11:22:06Z</time>
      </trkpt>
      <trkpt lat="42.51406" lon="2.22207">
        <ele>982.12</ele>
        <time>2017-05-20T11:22:10Z</time>
      </trkpt>
      <trkpt lat="42.51397" lon="2.2222">
        <ele>981.64</ele>
        <time>2017-05-20T11:22:19Z</time>
      </trkpt>
      <trkpt lat="42.51394" lon="2.22223">
        <ele>981.64</ele>
        <time>2017-05-20T11:22:22Z</time>
      </trkpt>
      <trkpt lat="42.5139" lon="2.22223">
        <ele>981.64</ele>
        <time>2017-05-20T11:22:26Z</time>
      </trkpt>
      <trkpt lat="42.51388" lon="2.22234">
        <ele>981.64</ele>
        <time>2017-05-20T11:22:30Z</time>
      </trkpt>
      <trkpt lat="42.51385" lon="2.22238">
        <ele>981.64</ele>
        <time>2017-05-20T11:22:33Z</time>
      </trkpt>
      <trkpt lat="42.51381" lon="2.22242">
        <ele>981.64</ele>
        <time>2017-05-20T11:22:38Z</time>
      </trkpt>
      <trkpt lat="42.51379" lon="2.22245">
        <ele>981.64</ele>
        <time>2017-05-20T11:22:41Z</time>
      </trkpt>
      <trkpt lat="42.51377" lon="2.22248">
        <ele>981.64</ele>
        <time>2017-05-20T11:22:43Z</time>
      </trkpt>
      <trkpt lat="42.51376" lon="2.22259">
        <ele>981.64</ele>
        <time>2017-05-20T11:22:47Z</time>
      </trkpt>
      <trkpt lat="42.51373" lon="2.22273">
        <ele>981.64</ele>
        <time>2017-05-20T11:22:58Z</time>
      </trkpt>
      <trkpt lat="42.51369" lon="2.22284">
        <ele>981.64</ele>
        <time>2017-05-20T11:23:07Z</time>
      </trkpt>
      <trkpt lat="42.51366" lon="2.22305">
        <ele>981.16</ele>
        <time>2017-05-20T11:23:18Z</time>
      </trkpt>
      <trkpt lat="42.51365" lon="2.2231">
        <ele>981.16</ele>
        <time>2017-05-20T11:23:20Z</time>
      </trkpt>
      <trkpt lat="42.51366" lon="2.22323">
        <ele>981.16</ele>
        <time>2017-05-20T11:23:25Z</time>
      </trkpt>
      <trkpt lat="42.51366" lon="2.22341">
        <ele>981.16</ele>
        <time>2017-05-20T11:23:32Z</time>
      </trkpt>
      <trkpt lat="42.51364" lon="2.22349">
        <ele>981.16</ele>
        <time>2017-05-20T11:23:36Z</time>
      </trkpt>
      <trkpt lat="42.51356" lon="2.22356">
        <ele>981.64</ele>
        <time>2017-05-20T11:23:44Z</time>
      </trkpt>
      <trkpt lat="42.51354" lon="2.2236">
        <ele>981.64</ele>
        <time>2017-05-20T11:23:46Z</time>
      </trkpt>
      <trkpt lat="42.5135" lon="2.22375">
        <ele>982.12</ele>
        <time>2017-05-20T11:23:56Z</time>
      </trkpt>
      <trkpt lat="42.51349" lon="2.22377">
        <ele>982.12</ele>
        <time>2017-05-20T11:24:11Z</time>
      </trkpt>
      <trkpt lat="42.51347" lon="2.22384">
        <ele>981.64</ele>
        <time>2017-05-20T11:24:29Z</time>
      </trkpt>
      <trkpt lat="42.51344" lon="2.22385">
        <ele>981.64</ele>
        <time>2017-05-20T11:24:40Z</time>
      </trkpt>
      <trkpt lat="42.51337" lon="2.22385">
        <ele>981.64</ele>
        <time>2017-05-20T11:24:52Z</time>
      </trkpt>
      <trkpt lat="42.51329" lon="2.22404">
        <ele>981.64</ele>
        <time>2017-05-20T11:25:14Z</time>
      </trkpt>
      <trkpt lat="42.5132" lon="2.22409">
        <ele>982.12</ele>
        <time>2017-05-20T11:25:31Z</time>
      </trkpt>
      <trkpt lat="42.51314" lon="2.22417">
        <ele>981.64</ele>
        <time>2017-05-20T11:25:38Z</time>
      </trkpt>
      <trkpt lat="42.51293" lon="2.22474">
        <ele>981.64</ele>
        <time>2017-05-20T11:25:51Z</time>
      </trkpt>
      <trkpt lat="42.51281" lon="2.22491">
        <ele>981.64</ele>
        <time>2017-05-20T11:26:04Z</time>
      </trkpt>
      <trkpt lat="42.51276" lon="2.22508">
        <ele>981.64</ele>
        <time>2017-05-20T11:26:17Z</time>
      </trkpt>
      <trkpt lat="42.5128" lon="2.22514">
        <ele>981.16</ele>
        <time>2017-05-20T11:26:31Z</time>
      </trkpt>
      <trkpt lat="42.5129" lon="2.22519">
        <ele>981.16</ele>
        <time>2017-05-20T11:26:35Z</time>
      </trkpt>
      <trkpt lat="42.51305" lon="2.2254">
        <ele>981.16</ele>
        <time>2017-05-20T11:26:47Z</time>
      </trkpt>
      <trkpt lat="42.513" lon="2.22544">
        <ele>981.16</ele>
        <time>2017-05-20T11:27:00Z</time>
      </trkpt>
      <trkpt lat="42.51303" lon="2.22538">
        <ele>981.16</ele>
        <time>2017-05-20T11:27:11Z</time>
      </trkpt>
      <trkpt lat="42.51298" lon="2.22542">
        <ele>981.16</ele>
        <time>2017-05-20T11:27:22Z</time>
      </trkpt>
      <trkpt lat="42.51294" lon="2.22564">
        <ele>981.16</ele>
        <time>2017-05-20T11:27:34Z</time>
      </trkpt>
      <trkpt lat="42.51293" lon="2.22563">
        <ele>981.16</ele>
        <time>2017-05-20T11:27:35Z</time>
      </trkpt>
      <trkpt lat="42.51288" lon="2.22565">
        <ele>981.16</ele>
        <time>2017-05-20T11:27:42Z</time>
      </trkpt>
      <trkpt lat="42.51263" lon="2.22513">
        <ele>981.16</ele>
        <time>2017-05-20T11:27:54Z</time>
      </trkpt>
      <trkpt lat="42.51255" lon="2.22529">
        <ele>981.64</ele>
        <time>2017-05-20T11:28:09Z</time>
      </trkpt>
      <trkpt lat="42.51252" lon="2.22524">
        <ele>981.64</ele>
        <time>2017-05-20T11:28:10Z</time>
      </trkpt>
      <trkpt lat="42.51236" lon="2.22478">
        <ele>981.64</ele>
        <time>2017-05-20T11:28:20Z</time>
      </trkpt>
      <trkpt lat="42.51229" lon="2.22421">
        <ele>981.64</ele>
        <time>2017-05-20T11:28:32Z</time>
      </trkpt>
      <trkpt lat="42.51229" lon="2.22397">
        <ele>981.64</ele>
        <time>2017-05-20T11:28:43Z</time>
      </trkpt>
      <trkpt lat="42.51223" lon="2.22418">
        <ele>981.64</ele>
        <time>2017-05-20T11:28:55Z</time>
      </trkpt>
      <trkpt lat="42.51217" lon="2.2248">
        <ele>981.64</ele>
        <time>2017-05-20T11:29:12Z</time>
      </trkpt>
      <trkpt lat="42.512" lon="2.22511">
        <ele>980.68</ele>
        <time>2017-05-20T11:29:23Z</time>
      </trkpt>
      <trkpt lat="42.51199" lon="2.22514">
        <ele>980.68</ele>
        <time>2017-05-20T11:29:26Z</time>
      </trkpt>
      <trkpt lat="42.51202" lon="2.2252">
        <ele>980.68</ele>
        <time>2017-05-20T11:29:29Z</time>
      </trkpt>
      <trkpt lat="42.51182" lon="2.22502">
        <ele>980.2</ele>
        <time>2017-05-20T11:29:39Z</time>
      </trkpt>
      <trkpt lat="42.51176" lon="2.22498">
        <ele>979.72</ele>
        <time>2017-05-20T11:29:44Z</time>
      </trkpt>
      <trkpt lat="42.51174" lon="2.22492">
        <ele>979.72</ele>
        <time>2017-05-20T11:29:47Z</time>
      </trkpt>
      <trkpt lat="42.51166" lon="2.22477">
        <ele>979.72</ele>
        <time>2017-05-20T11:29:57Z</time>
      </trkpt>
      <trkpt lat="42.51156" lon="2.22466">
        <ele>979.24</ele>
        <time>2017-05-20T11:30:08Z</time>
      </trkpt>
      <trkpt lat="42.51151" lon="2.2246">
        <ele>979.24</ele>
        <time>2017-05-20T11:30:13Z</time>
      </trkpt>
      <trkpt lat="42.5115" lon="2.22449">
        <ele>979.24</ele>
        <time>2017-05-20T11:30:17Z</time>
      </trkpt>
      <trkpt lat="42.51147" lon="2.22443">
        <ele>979.24</ele>
        <time>2017-05-20T11:30:20Z</time>
      </trkpt>
      <trkpt lat="42.51138" lon="2.22433">
        <ele>979.24</ele>
        <time>2017-05-20T11:30:32Z</time>
      </trkpt>
      <trkpt lat="42.51128" lon="2.2242">
        <ele>980.2</ele>
        <time>2017-05-20T11:30:42Z</time>
      </trkpt>
      <trkpt lat="42.5112" lon="2.22414">
        <ele>980.2</ele>
        <time>2017-05-20T11:30:49Z</time>
      </trkpt>
      <trkpt lat="42.5111" lon="2.22405">
        <ele>980.2</ele>
        <time>2017-05-20T11:31:00Z</time>
      </trkpt>
      <trkpt lat="42.51105" lon="2.22398">
        <ele>979.72</ele>
        <time>2017-05-20T11:31:10Z</time>
      </trkpt>
      <trkpt lat="42.51101" lon="2.22401">
        <ele>979.72</ele>
        <time>2017-05-20T11:31:17Z</time>
      </trkpt>
      <trkpt lat="42.51096" lon="2.22382">
        <ele>979.72</ele>
        <time>2017-05-20T11:31:28Z</time>
      </trkpt>
      <trkpt lat="42.51093" lon="2.22364">
        <ele>979.72</ele>
        <time>2017-05-20T11:31:38Z</time>
      </trkpt>
      <trkpt lat="42.51085" lon="2.22357">
        <ele>979.24</ele>
        <time>2017-05-20T11:31:49Z</time>
      </trkpt>
      <trkpt lat="42.51083" lon="2.22346">
        <ele>979.24</ele>
        <time>2017-05-20T11:32:00Z</time>
      </trkpt>
      <trkpt lat="42.51077" lon="2.22352">
        <ele>979.24</ele>
        <time>2017-05-20T11:32:07Z</time>
      </trkpt>
      <trkpt lat="42.51075" lon="2.22356">
        <ele>979.24</ele>
        <time>2017-05-20T11:32:10Z</time>
      </trkpt>
      <trkpt lat="42.5107" lon="2.22361">
        <ele>979.24</ele>
        <time>2017-05-20T11:32:17Z</time>
      </trkpt>
      <trkpt lat="42.51068" lon="2.22367">
        <ele>979.24</ele>
        <time>2017-05-20T11:32:23Z</time>
      </trkpt>
      <trkpt lat="42.51065" lon="2.22371">
        <ele>979.24</ele>
        <time>2017-05-20T11:32:26Z</time>
      </trkpt>
      <trkpt lat="42.51062" lon="2.22374">
        <ele>979.24</ele>
        <time>2017-05-20T11:32:29Z</time>
      </trkpt>
      <trkpt lat="42.51059" lon="2.2238">
        <ele>977.8</ele>
        <time>2017-05-20T11:32:32Z</time>
      </trkpt>
      <trkpt lat="42.51057" lon="2.22381">
        <ele>977.8</ele>
        <time>2017-05-20T11:32:48Z</time>
      </trkpt>
      <trkpt lat="42.5106" lon="2.22379">
        <ele>978.76</ele>
        <time>2017-05-20T11:33:06Z</time>
      </trkpt>
      <trkpt lat="42.51058" lon="2.22386">
        <ele>978.76</ele>
        <time>2017-05-20T11:33:25Z</time>
      </trkpt>
      <trkpt lat="42.51058" lon="2.22388">
        <ele>978.76</ele>
        <time>2017-05-20T11:33:41Z</time>
      </trkpt>
      <trkpt lat="42.51055" lon="2.22389">
        <ele>978.76</ele>
        <time>2017-05-20T11:34:03Z</time>
      </trkpt>
      <trkpt lat="42.51055" lon="2.22388">
        <ele>977.8</ele>
        <time>2017-05-20T11:34:14Z</time>
      </trkpt>
      <trkpt lat="42.51052" lon="2.22386">
        <ele>977.8</ele>
        <time>2017-05-20T11:34:16Z</time>
      </trkpt>
      <trkpt lat="42.51049" lon="2.22383">
        <ele>977.8</ele>
        <time>2017-05-20T11:34:19Z</time>
      </trkpt>
      <trkpt lat="42.51045" lon="2.22386">
        <ele>977.8</ele>
        <time>2017-05-20T11:34:28Z</time>
      </trkpt>
      <trkpt lat="42.51045" lon="2.2239">
        <ele>979.24</ele>
        <time>2017-05-20T11:34:33Z</time>
      </trkpt>
      <trkpt lat="42.51041" lon="2.22404">
        <ele>979.24</ele>
        <time>2017-05-20T11:34:43Z</time>
      </trkpt>
      <trkpt lat="42.51034" lon="2.22404">
        <ele>979.24</ele>
        <time>2017-05-20T11:34:51Z</time>
      </trkpt>
      <trkpt lat="42.51026" lon="2.22405">
        <ele>979.24</ele>
        <time>2017-05-20T11:35:01Z</time>
      </trkpt>
      <trkpt lat="42.51019" lon="2.22418">
        <ele>979.72</ele>
        <time>2017-05-20T11:35:11Z</time>
      </trkpt>
      <trkpt lat="42.51009" lon="2.22414">
        <ele>979.72</ele>
        <time>2017-05-20T11:35:20Z</time>
      </trkpt>
      <trkpt lat="42.51006" lon="2.22413">
        <ele>979.72</ele>
        <time>2017-05-20T11:35:22Z</time>
      </trkpt>
      <trkpt lat="42.50998" lon="2.22408">
        <ele>979.72</ele>
        <time>2017-05-20T11:35:30Z</time>
      </trkpt>
      <trkpt lat="42.50985" lon="2.22401">
        <ele>980.2</ele>
        <time>2017-05-20T11:35:41Z</time>
      </trkpt>
      <trkpt lat="42.50983" lon="2.22405">
        <ele>980.2</ele>
        <time>2017-05-20T11:35:43Z</time>
      </trkpt>
      <trkpt lat="42.50975" lon="2.22421">
        <ele>980.68</ele>
        <time>2017-05-20T11:35:54Z</time>
      </trkpt>
      <trkpt lat="42.5097" lon="2.22422">
        <ele>980.68</ele>
        <time>2017-05-20T11:36:10Z</time>
      </trkpt>
      <trkpt lat="42.50969" lon="2.22428">
        <ele>980.68</ele>
        <time>2017-05-20T11:36:24Z</time>
      </trkpt>
      <trkpt lat="42.50969" lon="2.22427">
        <ele>980.68</ele>
        <time>2017-05-20T11:36:34Z</time>
      </trkpt>
      <trkpt lat="42.50964" lon="2.22422">
        <ele>980.68</ele>
        <time>2017-05-20T11:36:47Z</time>
      </trkpt>
      <trkpt lat="42.50956" lon="2.22424">
        <ele>980.68</ele>
        <time>2017-05-20T11:36:57Z</time>
      </trkpt>
      <trkpt lat="42.50951" lon="2.22435">
        <ele>980.68</ele>
        <time>2017-05-20T11:37:06Z</time>
      </trkpt>
      <trkpt lat="42.5095" lon="2.22431">
        <ele>979.24</ele>
        <time>2017-05-20T11:37:09Z</time>
      </trkpt>
      <trkpt lat="42.50956" lon="2.2242">
        <ele>979.24</ele>
        <time>2017-05-20T11:37:21Z</time>
      </trkpt>
      <trkpt lat="42.50952" lon="2.22418">
        <ele>978.28</ele>
        <time>2017-05-20T11:37:28Z</time>
      </trkpt>
      <trkpt lat="42.50941" lon="2.22424">
        <ele>977.8</ele>
        <time>2017-05-20T11:37:37Z</time>
      </trkpt>
      <trkpt lat="42.5093" lon="2.22422">
        <ele>977.8</ele>
        <time>2017-05-20T11:37:46Z</time>
      </trkpt>
      <trkpt lat="42.50924" lon="2.22425">
        <ele>977.8</ele>
        <time>2017-05-20T11:37:53Z</time>
      </trkpt>
      <trkpt lat="42.50929" lon="2.22457">
        <ele>977.8</ele>
        <time>2017-05-20T11:38:03Z</time>
      </trkpt>
      <trkpt lat="42.50929" lon="2.22486">
        <ele>979.24</ele>
        <time>2017-05-20T11:38:17Z</time>
      </trkpt>
      <trkpt lat="42.50926" lon="2.22495">
        <ele>979.72</ele>
        <time>2017-05-20T11:38:27Z</time>
      </trkpt>
      <trkpt lat="42.50926" lon="2.22495">
        <ele>979.72</ele>
        <time>2017-05-20T11:38:28Z</time>
      </trkpt>
      <trkpt lat="42.50922" lon="2.22499">
        <ele>979.72</ele>
        <time>2017-05-20T11:38:33Z</time>
      </trkpt>
      <trkpt lat="42.50915" lon="2.22507">
        <ele>979.72</ele>
        <time>2017-05-20T11:38:42Z</time>
      </trkpt>
      <trkpt lat="42.50911" lon="2.22503">
        <ele>977.8</ele>
        <time>2017-05-20T11:38:55Z</time>
      </trkpt>
      <trkpt lat="42.50915" lon="2.22493">
        <ele>977.32</ele>
        <time>2017-05-20T11:39:09Z</time>
      </trkpt>
      <trkpt lat="42.50907" lon="2.22493">
        <ele>976.84</ele>
        <time>2017-05-20T11:39:19Z</time>
      </trkpt>
      <trkpt lat="42.50896" lon="2.22502">
        <ele>976.84</ele>
        <time>2017-05-20T11:39:30Z</time>
      </trkpt>
      <trkpt lat="42.50894" lon="2.22515">
        <ele>978.28</ele>
        <time>2017-05-20T11:39:41Z</time>
      </trkpt>
      <trkpt lat="42.50892" lon="2.22521">
        <ele>978.28</ele>
        <time>2017-05-20T11:39:49Z</time>
      </trkpt>
      <trkpt lat="42.5089" lon="2.2253">
        <ele>979.24</ele>
        <time>2017-05-20T11:39:58Z</time>
      </trkpt>
      <trkpt lat="42.50886" lon="2.22536">
        <ele>979.72</ele>
        <time>2017-05-20T11:40:07Z</time>
      </trkpt>
      <trkpt lat="42.50883" lon="2.22546">
        <ele>979.72</ele>
        <time>2017-05-20T11:40:14Z</time>
      </trkpt>
      <trkpt lat="42.50877" lon="2.22556">
        <ele>980.2</ele>
        <time>2017-05-20T11:40:22Z</time>
      </trkpt>
      <trkpt lat="42.50873" lon="2.2256">
        <ele>980.2</ele>
        <time>2017-05-20T11:40:32Z</time>
      </trkpt>
      <trkpt lat="42.50861" lon="2.2257">
        <ele>978.28</ele>
        <time>2017-05-20T11:40:43Z</time>
      </trkpt>
      <trkpt lat="42.50857" lon="2.22584">
        <ele>978.28</ele>
        <time>2017-05-20T11:40:53Z</time>
      </trkpt>
      <trkpt lat="42.50856" lon="2.22597">
        <ele>978.28</ele>
        <time>2017-05-20T11:41:03Z</time>
      </trkpt>
      <trkpt lat="42.50856" lon="2.22602">
        <ele>978.28</ele>
        <time>2017-05-20T11:41:15Z</time>
      </trkpt>
      <trkpt lat="42.50851" lon="2.22606">
        <ele>978.28</ele>
        <time>2017-05-20T11:41:25Z</time>
      </trkpt>
      <trkpt lat="42.50857" lon="2.22617">
        <ele>979.72</ele>
        <time>2017-05-20T11:41:33Z</time>
      </trkpt>
      <trkpt lat="42.50858" lon="2.22632">
        <ele>979.72</ele>
        <time>2017-05-20T11:41:45Z</time>
      </trkpt>
      <trkpt lat="42.50864" lon="2.22647">
        <ele>979.72</ele>
        <time>2017-05-20T11:41:56Z</time>
      </trkpt>
      <trkpt lat="42.50868" lon="2.22651">
        <ele>979.72</ele>
        <time>2017-05-20T11:42:06Z</time>
      </trkpt>
      <trkpt lat="42.50872" lon="2.22661">
        <ele>979.72</ele>
        <time>2017-05-20T11:42:18Z</time>
      </trkpt>
      <trkpt lat="42.50884" lon="2.22674">
        <ele>979.72</ele>
        <time>2017-05-20T11:42:29Z</time>
      </trkpt>
      <trkpt lat="42.50884" lon="2.22683">
        <ele>978.28</ele>
        <time>2017-05-20T11:42:39Z</time>
      </trkpt>
      <trkpt lat="42.5088" lon="2.22693">
        <ele>978.28</ele>
        <time>2017-05-20T11:42:46Z</time>
      </trkpt>
      <trkpt lat="42.50877" lon="2.22703">
        <ele>978.76</ele>
        <time>2017-05-20T11:42:56Z</time>
      </trkpt>
      <trkpt lat="42.50877" lon="2.22703">
        <ele>980.2</ele>
        <time>2017-05-20T11:42:59Z</time>
      </trkpt>
      <trkpt lat="42.50878" lon="2.22704">
        <ele>980.2</ele>
        <time>2017-05-20T11:43:12Z</time>
      </trkpt>
      <trkpt lat="42.50883" lon="2.22704">
        <ele>980.2</ele>
        <time>2017-05-20T11:43:28Z</time>
      </trkpt>
      <trkpt lat="42.50889" lon="2.22708">
        <ele>980.68</ele>
        <time>2017-05-20T11:43:37Z</time>
      </trkpt>
      <trkpt lat="42.50887" lon="2.22715">
        <ele>980.68</ele>
        <time>2017-05-20T11:43:50Z</time>
      </trkpt>
      <trkpt lat="42.50887" lon="2.22721">
        <ele>980.68</ele>
        <time>2017-05-20T11:44:11Z</time>
      </trkpt>
      <trkpt lat="42.50885" lon="2.22722">
        <ele>980.68</ele>
        <time>2017-05-20T11:44:22Z</time>
      </trkpt>
      <trkpt lat="42.50879" lon="2.22722">
        <ele>980.68</ele>
        <time>2017-05-20T11:44:28Z</time>
      </trkpt>
      <trkpt lat="42.50876" lon="2.22727">
        <ele>980.68</ele>
        <time>2017-05-20T11:44:37Z</time>
      </trkpt>
      <trkpt lat="42.50867" lon="2.22739">
        <ele>981.16</ele>
        <time>2017-05-20T11:44:47Z</time>
      </trkpt>
      <trkpt lat="42.50866" lon="2.22751">
        <ele>981.16</ele>
        <time>2017-05-20T11:44:58Z</time>
      </trkpt>
      <trkpt lat="42.50865" lon="2.22754">
        <ele>979.72</ele>
        <time>2017-05-20T11:45:05Z</time>
      </trkpt>
      <trkpt lat="42.50869" lon="2.22755">
        <ele>979.72</ele>
        <time>2017-05-20T11:45:20Z</time>
      </trkpt>
      <trkpt lat="42.50868" lon="2.22751">
        <ele>979.24</ele>
        <time>2017-05-20T11:45:34Z</time>
      </trkpt>
      <trkpt lat="42.50865" lon="2.22748">
        <ele>979.24</ele>
        <time>2017-05-20T11:46:01Z</time>
      </trkpt>
      <trkpt lat="42.5086" lon="2.22745">
        <ele>979.24</ele>
        <time>2017-05-20T11:46:22Z</time>
      </trkpt>
      <trkpt lat="42.50863" lon="2.22749">
        <ele>979.72</ele>
        <time>2017-05-20T11:46:33Z</time>
      </trkpt>
      <trkpt lat="42.50867" lon="2.2275">
        <ele>979.72</ele>
        <time>2017-05-20T11:46:43Z</time>
      </trkpt>
      <trkpt lat="42.50868" lon="2.22753">
        <ele>980.68</ele>
        <time>2017-05-20T11:46:51Z</time>
      </trkpt>
      <trkpt lat="42.50868" lon="2.22754">
        <ele>980.68</ele>
        <time>2017-05-20T11:47:03Z</time>
      </trkpt>
      <trkpt lat="42.50863" lon="2.22766">
        <ele>981.16</ele>
        <time>2017-05-20T11:47:20Z</time>
      </trkpt>
      <trkpt lat="42.50864" lon="2.2277">
        <ele>981.16</ele>
        <time>2017-05-20T11:47:36Z</time>
      </trkpt>
      <trkpt lat="42.50868" lon="2.22767">
        <ele>983.09</ele>
        <time>2017-05-20T11:47:48Z</time>
      </trkpt>
      <trkpt lat="42.50872" lon="2.22768">
        <ele>984.53</ele>
        <time>2017-05-20T11:48:07Z</time>
      </trkpt>
      <trkpt lat="42.50873" lon="2.22774">
        <ele>985.01</ele>
        <time>2017-05-20T11:48:17Z</time>
      </trkpt>
      <trkpt lat="42.50868" lon="2.22783">
        <ele>985.49</ele>
        <time>2017-05-20T11:48:29Z</time>
      </trkpt>
      <trkpt lat="42.50863" lon="2.22791">
        <ele>985.49</ele>
        <time>2017-05-20T11:48:41Z</time>
      </trkpt>
      <trkpt lat="42.50862" lon="2.22793">
        <ele>985.97</ele>
        <time>2017-05-20T11:48:55Z</time>
      </trkpt>
      <trkpt lat="42.5086" lon="2.22797">
        <ele>985.97</ele>
        <time>2017-05-20T11:49:05Z</time>
      </trkpt>
      <trkpt lat="42.50859" lon="2.22798">
        <ele>985.97</ele>
        <time>2017-05-20T11:49:22Z</time>
      </trkpt>
      <trkpt lat="42.50857" lon="2.22805">
        <ele>986.45</ele>
        <time>2017-05-20T11:49:35Z</time>
      </trkpt>
      <trkpt lat="42.50852" lon="2.2281">
        <ele>986.45</ele>
        <time>2017-05-20T11:49:48Z</time>
      </trkpt>
      <trkpt lat="42.50851" lon="2.22813">
        <ele>986.93</ele>
        <time>2017-05-20T11:49:58Z</time>
      </trkpt>
      <trkpt lat="42.5085" lon="2.22815">
        <ele>986.93</ele>
        <time>2017-05-20T11:50:11Z</time>
      </trkpt>
      <trkpt lat="42.50852" lon="2.22815">
        <ele>986.93</ele>
        <time>2017-05-20T11:50:24Z</time>
      </trkpt>
      <trkpt lat="42.50851" lon="2.2281">
        <ele>987.41</ele>
        <time>2017-05-20T11:50:42Z</time>
      </trkpt>
      <trkpt lat="42.50851" lon="2.22812">
        <ele>987.41</ele>
        <time>2017-05-20T11:50:53Z</time>
      </trkpt>
      <trkpt lat="42.50852" lon="2.22817">
        <ele>985.97</ele>
        <time>2017-05-20T11:51:06Z</time>
      </trkpt>
      <trkpt lat="42.50855" lon="2.22823">
        <ele>985.49</ele>
        <time>2017-05-20T11:51:15Z</time>
      </trkpt>
      <trkpt lat="42.5086" lon="2.22833">
        <ele>985.49</ele>
        <time>2017-05-20T11:51:26Z</time>
      </trkpt>
      <trkpt lat="42.50859" lon="2.22834">
        <ele>986.93</ele>
        <time>2017-05-20T11:51:28Z</time>
      </trkpt>
      <trkpt lat="42.50865" lon="2.22838">
        <ele>987.41</ele>
        <time>2017-05-20T11:51:38Z</time>
      </trkpt>
      <trkpt lat="42.50872" lon="2.2284">
        <ele>987.41</ele>
        <time>2017-05-20T11:51:48Z</time>
      </trkpt>
      <trkpt lat="42.50872" lon="2.22839">
        <ele>987.41</ele>
        <time>2017-05-20T11:52:04Z</time>
      </trkpt>
      <trkpt lat="42.50872" lon="2.22846">
        <ele>988.37</ele>
        <time>2017-05-20T11:52:14Z</time>
      </trkpt>
      <trkpt lat="42.50869" lon="2.2286">
        <ele>988.85</ele>
        <time>2017-05-20T11:52:24Z</time>
      </trkpt>
      <trkpt lat="42.50869" lon="2.22876">
        <ele>989.81</ele>
        <time>2017-05-20T11:52:35Z</time>
      </trkpt>
      <trkpt lat="42.50867" lon="2.2289">
        <ele>990.3</ele>
        <time>2017-05-20T11:52:46Z</time>
      </trkpt>
      <trkpt lat="42.50866" lon="2.229">
        <ele>991.74</ele>
        <time>2017-05-20T11:52:57Z</time>
      </trkpt>
      <trkpt lat="42.50863" lon="2.22909">
        <ele>993.18</ele>
        <time>2017-05-20T11:53:09Z</time>
      </trkpt>
      <trkpt lat="42.50859" lon="2.22917">
        <ele>993.66</ele>
        <time>2017-05-20T11:53:21Z</time>
      </trkpt>
      <trkpt lat="42.50856" lon="2.22922">
        <ele>993.66</ele>
        <time>2017-05-20T11:53:33Z</time>
      </trkpt>
      <trkpt lat="42.50854" lon="2.22928">
        <ele>993.66</ele>
        <time>2017-05-20T11:53:45Z</time>
      </trkpt>
      <trkpt lat="42.50857" lon="2.22935">
        <ele>995.1</ele>
        <time>2017-05-20T11:53:59Z</time>
      </trkpt>
      <trkpt lat="42.50859" lon="2.22939">
        <ele>996.06</ele>
        <time>2017-05-20T11:54:06Z</time>
      </trkpt>
      <trkpt lat="42.50861" lon="2.2294">
        <ele>996.54</ele>
        <time>2017-05-20T11:54:14Z</time>
      </trkpt>
      <trkpt lat="42.50861" lon="2.22943">
        <ele>997.02</ele>
        <time>2017-05-20T11:54:24Z</time>
      </trkpt>
      <trkpt lat="42.50861" lon="2.22944">
        <ele>997.02</ele>
        <time>2017-05-20T11:54:39Z</time>
      </trkpt>
      <trkpt lat="42.50857" lon="2.22942">
        <ele>997.02</ele>
        <time>2017-05-20T11:54:52Z</time>
      </trkpt>
      <trkpt lat="42.50856" lon="2.22941">
        <ele>997.02</ele>
        <time>2017-05-20T11:55:05Z</time>
      </trkpt>
      <trkpt lat="42.50849" lon="2.22934">
        <ele>997.02</ele>
        <time>2017-05-20T11:55:18Z</time>
      </trkpt>
      <trkpt lat="42.5085" lon="2.22934">
        <ele>995.58</ele>
        <time>2017-05-20T11:55:24Z</time>
      </trkpt>
      <trkpt lat="42.50851" lon="2.22934">
        <ele>998.95</ele>
        <time>2017-05-20T11:55:25Z</time>
      </trkpt>
      <trkpt lat="42.50851" lon="2.22934">
        <ele>997.51</ele>
        <time>2017-05-20T11:55:26Z</time>
      </trkpt>
      <trkpt lat="42.5085" lon="2.22939">
        <ele>997.51</ele>
        <time>2017-05-20T11:55:47Z</time>
      </trkpt>
      <trkpt lat="42.50854" lon="2.22943">
        <ele>997.51</ele>
        <time>2017-05-20T11:56:01Z</time>
      </trkpt>
      <trkpt lat="42.50849" lon="2.22945">
        <ele>997.02</ele>
        <time>2017-05-20T11:56:10Z</time>
      </trkpt>
      <trkpt lat="42.50842" lon="2.22941">
        <ele>997.02</ele>
        <time>2017-05-20T11:56:20Z</time>
      </trkpt>
      <trkpt lat="42.50838" lon="2.2294">
        <ele>996.06</ele>
        <time>2017-05-20T11:56:32Z</time>
      </trkpt>
      <trkpt lat="42.50828" lon="2.22946">
        <ele>996.06</ele>
        <time>2017-05-20T11:56:42Z</time>
      </trkpt>
      <trkpt lat="42.50826" lon="2.22947">
        <ele>997.51</ele>
        <time>2017-05-20T11:56:45Z</time>
      </trkpt>
      <trkpt lat="42.50821" lon="2.2296">
        <ele>998.95</ele>
        <time>2017-05-20T11:56:55Z</time>
      </trkpt>
      <trkpt lat="42.50815" lon="2.22983">
        <ele>1001.83</ele>
        <time>2017-05-20T11:57:10Z</time>
      </trkpt>
      <trkpt lat="42.50815" lon="2.22984">
        <ele>1001.83</ele>
        <time>2017-05-20T11:57:11Z</time>
      </trkpt>
      <trkpt lat="42.5081" lon="2.22988">
        <ele>1002.31</ele>
        <time>2017-05-20T11:57:23Z</time>
      </trkpt>
      <trkpt lat="42.50805" lon="2.22998">
        <ele>1002.31</ele>
        <time>2017-05-20T11:57:31Z</time>
      </trkpt>
      <trkpt lat="42.50797" lon="2.23009">
        <ele>1002.31</ele>
        <time>2017-05-20T11:57:46Z</time>
      </trkpt>
      <trkpt lat="42.50794" lon="2.23018">
        <ele>1000.87</ele>
        <time>2017-05-20T11:57:59Z</time>
      </trkpt>
      <trkpt lat="42.50788" lon="2.23022">
        <ele>1002.79</ele>
        <time>2017-05-20T11:58:10Z</time>
      </trkpt>
      <trkpt lat="42.50786" lon="2.23026">
        <ele>1002.79</ele>
        <time>2017-05-20T11:58:20Z</time>
      </trkpt>
      <trkpt lat="42.50785" lon="2.2303">
        <ele>1003.27</ele>
        <time>2017-05-20T11:58:31Z</time>
      </trkpt>
      <trkpt lat="42.50779" lon="2.23032">
        <ele>1003.27</ele>
        <time>2017-05-20T11:58:43Z</time>
      </trkpt>
      <trkpt lat="42.50772" lon="2.23037">
        <ele>1003.75</ele>
        <time>2017-05-20T11:58:55Z</time>
      </trkpt>
      <trkpt lat="42.5077" lon="2.23045">
        <ele>1005.2</ele>
        <time>2017-05-20T11:59:06Z</time>
      </trkpt>
      <trkpt lat="42.50767" lon="2.23048">
        <ele>1006.16</ele>
        <time>2017-05-20T11:59:18Z</time>
      </trkpt>
      <trkpt lat="42.50766" lon="2.2305">
        <ele>1006.16</ele>
        <time>2017-05-20T11:59:31Z</time>
      </trkpt>
      <trkpt lat="42.50765" lon="2.23047">
        <ele>1006.16</ele>
        <time>2017-05-20T11:59:52Z</time>
      </trkpt>
      <trkpt lat="42.50774" lon="2.23049">
        <ele>1006.16</ele>
        <time>2017-05-20T12:00:24Z</time>
      </trkpt>
      <trkpt lat="42.50771" lon="2.23049">
        <ele>1006.64</ele>
        <time>2017-05-20T12:00:47Z</time>
      </trkpt>
      <trkpt lat="42.50771" lon="2.23044">
        <ele>1006.64</ele>
        <time>2017-05-20T12:01:08Z</time>
      </trkpt>
      <trkpt lat="42.50769" lon="2.23048">
        <ele>1007.12</ele>
        <time>2017-05-20T12:01:29Z</time>
      </trkpt>
      <trkpt lat="42.50764" lon="2.23051">
        <ele>1007.12</ele>
        <time>2017-05-20T12:01:52Z</time>
      </trkpt>
      <trkpt lat="42.50761" lon="2.23059">
        <ele>1007.6</ele>
        <time>2017-05-20T12:02:12Z</time>
      </trkpt>
      <trkpt lat="42.50759" lon="2.23055">
        <ele>1007.6</ele>
        <time>2017-05-20T12:02:29Z</time>
      </trkpt>
      <trkpt lat="42.50754" lon="2.23054">
        <ele>1008.56</ele>
        <time>2017-05-20T12:02:48Z</time>
      </trkpt>
      <trkpt lat="42.5076" lon="2.23054">
        <ele>1008.56</ele>
        <time>2017-05-20T12:03:02Z</time>
      </trkpt>
      <trkpt lat="42.50767" lon="2.23061">
        <ele>1008.56</ele>
        <time>2017-05-20T12:03:20Z</time>
      </trkpt>
      <trkpt lat="42.5077" lon="2.23062">
        <ele>1008.56</ele>
        <time>2017-05-20T12:03:39Z</time>
      </trkpt>
      <trkpt lat="42.50771" lon="2.23062">
        <ele>1009.04</ele>
        <time>2017-05-20T12:03:58Z</time>
      </trkpt>
      <trkpt lat="42.50772" lon="2.23064">
        <ele>1009.04</ele>
        <time>2017-05-20T12:04:14Z</time>
      </trkpt>
      <trkpt lat="42.50767" lon="2.2306">
        <ele>1009.04</ele>
        <time>2017-05-20T12:04:30Z</time>
      </trkpt>
      <trkpt lat="42.50765" lon="2.23056">
        <ele>1009.04</ele>
        <time>2017-05-20T12:04:41Z</time>
      </trkpt>
      <trkpt lat="42.50762" lon="2.23057">
        <ele>1009.52</ele>
        <time>2017-05-20T12:05:04Z</time>
      </trkpt>
      <trkpt lat="42.5076" lon="2.23058">
        <ele>1009.52</ele>
        <time>2017-05-20T12:05:20Z</time>
      </trkpt>
      <trkpt lat="42.50757" lon="2.23062">
        <ele>1009.52</ele>
        <time>2017-05-20T12:05:33Z</time>
      </trkpt>
      <trkpt lat="42.5075" lon="2.2306">
        <ele>1010</ele>
        <time>2017-05-20T12:05:45Z</time>
      </trkpt>
      <trkpt lat="42.50744" lon="2.23061">
        <ele>1010.96</ele>
        <time>2017-05-20T12:05:55Z</time>
      </trkpt>
      <trkpt lat="42.50734" lon="2.23065">
        <ele>1012.89</ele>
        <time>2017-05-20T12:06:11Z</time>
      </trkpt>
      <trkpt lat="42.50729" lon="2.23071">
        <ele>1011.93</ele>
        <time>2017-05-20T12:06:23Z</time>
      </trkpt>
      <trkpt lat="42.50729" lon="2.2307">
        <ele>1012.89</ele>
        <time>2017-05-20T12:06:34Z</time>
      </trkpt>
      <trkpt lat="42.50732" lon="2.23072">
        <ele>1011.93</ele>
        <time>2017-05-20T12:06:44Z</time>
      </trkpt>
      <trkpt lat="42.50731" lon="2.23078">
        <ele>1013.37</ele>
        <time>2017-05-20T12:06:57Z</time>
      </trkpt>
      <trkpt lat="42.50729" lon="2.23087">
        <ele>1013.85</ele>
        <time>2017-05-20T12:07:16Z</time>
      </trkpt>
      <trkpt lat="42.50728" lon="2.23088">
        <ele>1013.85</ele>
        <time>2017-05-20T12:07:18Z</time>
      </trkpt>
      <trkpt lat="42.50724" lon="2.23094">
        <ele>1014.33</ele>
        <time>2017-05-20T12:07:27Z</time>
      </trkpt>
      <trkpt lat="42.50718" lon="2.23099">
        <ele>1015.29</ele>
        <time>2017-05-20T12:07:37Z</time>
      </trkpt>
      <trkpt lat="42.50709" lon="2.23104">
        <ele>1017.21</ele>
        <time>2017-05-20T12:07:49Z</time>
      </trkpt>
      <trkpt lat="42.50703" lon="2.23107">
        <ele>1018.17</ele>
        <time>2017-05-20T12:08:02Z</time>
      </trkpt>
      <trkpt lat="42.50694" lon="2.23115">
        <ele>1018.65</ele>
        <time>2017-05-20T12:08:15Z</time>
      </trkpt>
      <trkpt lat="42.50692" lon="2.23114">
        <ele>1018.65</ele>
        <time>2017-05-20T12:08:27Z</time>
      </trkpt>
      <trkpt lat="42.50688" lon="2.23119">
        <ele>1019.13</ele>
        <time>2017-05-20T12:08:44Z</time>
      </trkpt>
      <trkpt lat="42.5068" lon="2.23111">
        <ele>1019.13</ele>
        <time>2017-05-20T12:08:58Z</time>
      </trkpt>
      <trkpt lat="42.50675" lon="2.23111">
        <ele>1020.1</ele>
        <time>2017-05-20T12:09:10Z</time>
      </trkpt>
      <trkpt lat="42.50674" lon="2.23115">
        <ele>1020.58</ele>
        <time>2017-05-20T12:09:23Z</time>
      </trkpt>
      <trkpt lat="42.50673" lon="2.2312">
        <ele>1022.98</ele>
        <time>2017-05-20T12:09:37Z</time>
      </trkpt>
      <trkpt lat="42.50666" lon="2.23121">
        <ele>1024.42</ele>
        <time>2017-05-20T12:09:50Z</time>
      </trkpt>
      <trkpt lat="42.50659" lon="2.2312">
        <ele>1024.9</ele>
        <time>2017-05-20T12:10:04Z</time>
      </trkpt>
      <trkpt lat="42.50653" lon="2.23121">
        <ele>1025.38</ele>
        <time>2017-05-20T12:10:17Z</time>
      </trkpt>
      <trkpt lat="42.50647" lon="2.23124">
        <ele>1027.31</ele>
        <time>2017-05-20T12:10:28Z</time>
      </trkpt>
      <trkpt lat="42.50638" lon="2.23126">
        <ele>1027.31</ele>
        <time>2017-05-20T12:10:42Z</time>
      </trkpt>
      <trkpt lat="42.50635" lon="2.23132">
        <ele>1027.31</ele>
        <time>2017-05-20T12:10:57Z</time>
      </trkpt>
      <trkpt lat="42.50631" lon="2.2313">
        <ele>1027.31</ele>
        <time>2017-05-20T12:11:10Z</time>
      </trkpt>
      <trkpt lat="42.5063" lon="2.23129">
        <ele>1026.34</ele>
        <time>2017-05-20T12:11:12Z</time>
      </trkpt>
      <trkpt lat="42.50623" lon="2.23118">
        <ele>1026.34</ele>
        <time>2017-05-20T12:11:28Z</time>
      </trkpt>
      <trkpt lat="42.50624" lon="2.23112">
        <ele>1026.34</ele>
        <time>2017-05-20T12:11:45Z</time>
      </trkpt>
      <trkpt lat="42.50624" lon="2.23109">
        <ele>1026.34</ele>
        <time>2017-05-20T12:11:55Z</time>
      </trkpt>
      <trkpt lat="42.50623" lon="2.23103">
        <ele>1026.34</ele>
        <time>2017-05-20T12:12:08Z</time>
      </trkpt>
      <trkpt lat="42.50625" lon="2.23095">
        <ele>1024.42</ele>
        <time>2017-05-20T12:12:22Z</time>
      </trkpt>
      <trkpt lat="42.50624" lon="2.23086">
        <ele>1025.38</ele>
        <time>2017-05-20T12:12:37Z</time>
      </trkpt>
      <trkpt lat="42.50621" lon="2.23076">
        <ele>1027.31</ele>
        <time>2017-05-20T12:12:49Z</time>
      </trkpt>
      <trkpt lat="42.50606" lon="2.23072">
        <ele>1027.79</ele>
        <time>2017-05-20T12:13:00Z</time>
      </trkpt>
      <trkpt lat="42.50601" lon="2.23068">
        <ele>1029.23</ele>
        <time>2017-05-20T12:13:10Z</time>
      </trkpt>
      <trkpt lat="42.50594" lon="2.23066">
        <ele>1031.15</ele>
        <time>2017-05-20T12:13:23Z</time>
      </trkpt>
      <trkpt lat="42.5059" lon="2.2307">
        <ele>1032.11</ele>
        <time>2017-05-20T12:13:37Z</time>
      </trkpt>
      <trkpt lat="42.50583" lon="2.23062">
        <ele>1033.07</ele>
        <time>2017-05-20T12:13:51Z</time>
      </trkpt>
      <trkpt lat="42.50582" lon="2.23048">
        <ele>1033.07</ele>
        <time>2017-05-20T12:14:08Z</time>
      </trkpt>
      <trkpt lat="42.50578" lon="2.23048">
        <ele>1033.07</ele>
        <time>2017-05-20T12:14:17Z</time>
      </trkpt>
      <trkpt lat="42.50573" lon="2.23048">
        <ele>1033.55</ele>
        <time>2017-05-20T12:14:29Z</time>
      </trkpt>
      <trkpt lat="42.50568" lon="2.23044">
        <ele>1033.55</ele>
        <time>2017-05-20T12:14:40Z</time>
      </trkpt>
      <trkpt lat="42.50558" lon="2.2304">
        <ele>1034.04</ele>
        <time>2017-05-20T12:14:54Z</time>
      </trkpt>
      <trkpt lat="42.50549" lon="2.23028">
        <ele>1034.52</ele>
        <time>2017-05-20T12:15:06Z</time>
      </trkpt>
      <trkpt lat="42.50544" lon="2.23021">
        <ele>1035</ele>
        <time>2017-05-20T12:15:16Z</time>
      </trkpt>
      <trkpt lat="42.50562" lon="2.23039">
        <ele>1035</ele>
        <time>2017-05-20T12:15:27Z</time>
      </trkpt>
      <trkpt lat="42.50557" lon="2.23046">
        <ele>1035</ele>
        <time>2017-05-20T12:15:37Z</time>
      </trkpt>
      <trkpt lat="42.50549" lon="2.23042">
        <ele>1035</ele>
        <time>2017-05-20T12:15:47Z</time>
      </trkpt>
      <trkpt lat="42.5055" lon="2.23054">
        <ele>1035</ele>
        <time>2017-05-20T12:15:57Z</time>
      </trkpt>
      <trkpt lat="42.50546" lon="2.23064">
        <ele>1035</ele>
        <time>2017-05-20T12:16:05Z</time>
      </trkpt>
      <trkpt lat="42.50544" lon="2.23067">
        <ele>1034.04</ele>
        <time>2017-05-20T12:16:18Z</time>
      </trkpt>
      <trkpt lat="42.50545" lon="2.23068">
        <ele>1033.07</ele>
        <time>2017-05-20T12:16:30Z</time>
      </trkpt>
      <trkpt lat="42.50544" lon="2.23072">
        <ele>1033.07</ele>
        <time>2017-05-20T12:16:47Z</time>
      </trkpt>
      <trkpt lat="42.50541" lon="2.23078">
        <ele>1033.07</ele>
        <time>2017-05-20T12:17:01Z</time>
      </trkpt>
      <trkpt lat="42.50539" lon="2.23083">
        <ele>1034.52</ele>
        <time>2017-05-20T12:17:12Z</time>
      </trkpt>
      <trkpt lat="42.50532" lon="2.23086">
        <ele>1035.48</ele>
        <time>2017-05-20T12:17:23Z</time>
      </trkpt>
      <trkpt lat="42.50527" lon="2.23086">
        <ele>1036.44</ele>
        <time>2017-05-20T12:17:34Z</time>
      </trkpt>
      <trkpt lat="42.50524" lon="2.23085">
        <ele>1038.36</ele>
        <time>2017-05-20T12:17:44Z</time>
      </trkpt>
      <trkpt lat="42.50519" lon="2.23088">
        <ele>1039.8</ele>
        <time>2017-05-20T12:17:56Z</time>
      </trkpt>
      <trkpt lat="42.50515" lon="2.2309">
        <ele>1040.28</ele>
        <time>2017-05-20T12:18:06Z</time>
      </trkpt>
      <trkpt lat="42.50512" lon="2.23086">
        <ele>1040.28</ele>
        <time>2017-05-20T12:18:18Z</time>
      </trkpt>
      <trkpt lat="42.50514" lon="2.23082">
        <ele>1041.25</ele>
        <time>2017-05-20T12:18:28Z</time>
      </trkpt>
      <trkpt lat="42.50516" lon="2.23082">
        <ele>1042.21</ele>
        <time>2017-05-20T12:18:38Z</time>
      </trkpt>
      <trkpt lat="42.50515" lon="2.2308">
        <ele>1042.69</ele>
        <time>2017-05-20T12:18:48Z</time>
      </trkpt>
      <trkpt lat="42.50512" lon="2.23081">
        <ele>1043.17</ele>
        <time>2017-05-20T12:18:58Z</time>
      </trkpt>
      <trkpt lat="42.50513" lon="2.23079">
        <ele>1044.13</ele>
        <time>2017-05-20T12:19:10Z</time>
      </trkpt>
      <trkpt lat="42.50511" lon="2.23078">
        <ele>1044.61</ele>
        <time>2017-05-20T12:19:21Z</time>
      </trkpt>
      <trkpt lat="42.50511" lon="2.23079">
        <ele>1045.09</ele>
        <time>2017-05-20T12:19:33Z</time>
      </trkpt>
      <trkpt lat="42.50513" lon="2.23074">
        <ele>1044.13</ele>
        <time>2017-05-20T12:19:44Z</time>
      </trkpt>
      <trkpt lat="42.50513" lon="2.23074">
        <ele>1045.57</ele>
        <time>2017-05-20T12:19:50Z</time>
      </trkpt>
      <trkpt lat="42.50523" lon="2.23076">
        <ele>1046.53</ele>
        <time>2017-05-20T12:20:03Z</time>
      </trkpt>
      <trkpt lat="42.50529" lon="2.23083">
        <ele>1047.01</ele>
        <time>2017-05-20T12:20:16Z</time>
      </trkpt>
      <trkpt lat="42.50528" lon="2.23085">
        <ele>1047.49</ele>
        <time>2017-05-20T12:20:35Z</time>
      </trkpt>
      <trkpt lat="42.50521" lon="2.23086">
        <ele>1047.97</ele>
        <time>2017-05-20T12:21:05Z</time>
      </trkpt>
      <trkpt lat="42.50528" lon="2.23087">
        <ele>1049.42</ele>
        <time>2017-05-20T12:21:24Z</time>
      </trkpt>
      <trkpt lat="42.50534" lon="2.2309">
        <ele>1051.34</ele>
        <time>2017-05-20T12:21:43Z</time>
      </trkpt>
      <trkpt lat="42.50535" lon="2.23082">
        <ele>1051.82</ele>
        <time>2017-05-20T12:21:55Z</time>
      </trkpt>
      <trkpt lat="42.5054" lon="2.23078">
        <ele>1052.3</ele>
        <time>2017-05-20T12:22:06Z</time>
      </trkpt>
      <trkpt lat="42.5054" lon="2.23073">
        <ele>1051.34</ele>
        <time>2017-05-20T12:22:18Z</time>
      </trkpt>
      <trkpt lat="42.50542" lon="2.2307">
        <ele>1051.34</ele>
        <time>2017-05-20T12:22:28Z</time>
      </trkpt>
      <trkpt lat="42.50543" lon="2.23065">
        <ele>1052.78</ele>
        <time>2017-05-20T12:22:39Z</time>
      </trkpt>
      <trkpt lat="42.50546" lon="2.23056">
        <ele>1054.22</ele>
        <time>2017-05-20T12:22:50Z</time>
      </trkpt>
      <trkpt lat="42.50546" lon="2.2305">
        <ele>1055.18</ele>
        <time>2017-05-20T12:23:00Z</time>
      </trkpt>
      <trkpt lat="42.50546" lon="2.23041">
        <ele>1055.67</ele>
        <time>2017-05-20T12:23:09Z</time>
      </trkpt>
      <trkpt lat="42.50543" lon="2.23031">
        <ele>1055.67</ele>
        <time>2017-05-20T12:23:18Z</time>
      </trkpt>
      <trkpt lat="42.50537" lon="2.23022">
        <ele>1057.11</ele>
        <time>2017-05-20T12:23:27Z</time>
      </trkpt>
      <trkpt lat="42.50535" lon="2.23016">
        <ele>1058.07</ele>
        <time>2017-05-20T12:23:41Z</time>
      </trkpt>
      <trkpt lat="42.50526" lon="2.23007">
        <ele>1058.07</ele>
        <time>2017-05-20T12:23:55Z</time>
      </trkpt>
      <trkpt lat="42.50525" lon="2.23002">
        <ele>1058.07</ele>
        <time>2017-05-20T12:24:10Z</time>
      </trkpt>
      <trkpt lat="42.50522" lon="2.22998">
        <ele>1059.51</ele>
        <time>2017-05-20T12:24:21Z</time>
      </trkpt>
      <trkpt lat="42.50523" lon="2.22993">
        <ele>1059.99</ele>
        <time>2017-05-20T12:24:32Z</time>
      </trkpt>
      <trkpt lat="42.50521" lon="2.22987">
        <ele>1059.99</ele>
        <time>2017-05-20T12:24:41Z</time>
      </trkpt>
      <trkpt lat="42.50523" lon="2.22981">
        <ele>1060.47</ele>
        <time>2017-05-20T12:24:55Z</time>
      </trkpt>
      <trkpt lat="42.50523" lon="2.22981">
        <ele>1060.47</ele>
        <time>2017-05-20T12:25:10Z</time>
      </trkpt>
      <trkpt lat="42.50529" lon="2.22982">
        <ele>1060.47</ele>
        <time>2017-05-20T12:25:26Z</time>
      </trkpt>
      <trkpt lat="42.50529" lon="2.2298">
        <ele>1060.47</ele>
        <time>2017-05-20T12:25:44Z</time>
      </trkpt>
      <trkpt lat="42.50528" lon="2.22984">
        <ele>1060.95</ele>
        <time>2017-05-20T12:25:51Z</time>
      </trkpt>
      <trkpt lat="42.50516" lon="2.22983">
        <ele>1061.43</ele>
        <time>2017-05-20T12:26:03Z</time>
      </trkpt>
      <trkpt lat="42.50512" lon="2.22985">
        <ele>1061.91</ele>
        <time>2017-05-20T12:26:20Z</time>
      </trkpt>
      <trkpt lat="42.50513" lon="2.22983">
        <ele>1061.91</ele>
        <time>2017-05-20T12:26:33Z</time>
      </trkpt>
      <trkpt lat="42.50515" lon="2.2298">
        <ele>1061.91</ele>
        <time>2017-05-20T12:26:46Z</time>
      </trkpt>
      <trkpt lat="42.50515" lon="2.22984">
        <ele>1061.91</ele>
        <time>2017-05-20T12:27:01Z</time>
      </trkpt>
      <trkpt lat="42.50514" lon="2.22991">
        <ele>1061.91</ele>
        <time>2017-05-20T12:27:12Z</time>
      </trkpt>
      <trkpt lat="42.5051" lon="2.22995">
        <ele>1062.39</ele>
        <time>2017-05-20T12:27:23Z</time>
      </trkpt>
      <trkpt lat="42.50503" lon="2.23">
        <ele>1063.36</ele>
        <time>2017-05-20T12:27:36Z</time>
      </trkpt>
      <trkpt lat="42.50492" lon="2.22996">
        <ele>1063.84</ele>
        <time>2017-05-20T12:27:50Z</time>
      </trkpt>
      <trkpt lat="42.5049" lon="2.23004">
        <ele>1062.39</ele>
        <time>2017-05-20T12:28:01Z</time>
      </trkpt>
      <trkpt lat="42.50487" lon="2.23008">
        <ele>1061.91</ele>
        <time>2017-05-20T12:28:15Z</time>
      </trkpt>
      <trkpt lat="42.50486" lon="2.23005">
        <ele>1061.43</ele>
        <time>2017-05-20T12:28:27Z</time>
      </trkpt>
      <trkpt lat="42.50486" lon="2.23013">
        <ele>1061.91</ele>
        <time>2017-05-20T12:28:38Z</time>
      </trkpt>
      <trkpt lat="42.50486" lon="2.2302">
        <ele>1063.36</ele>
        <time>2017-05-20T12:28:49Z</time>
      </trkpt>
      <trkpt lat="42.50482" lon="2.23027">
        <ele>1064.8</ele>
        <time>2017-05-20T12:28:59Z</time>
      </trkpt>
      <trkpt lat="42.50478" lon="2.23027">
        <ele>1067.68</ele>
        <time>2017-05-20T12:29:11Z</time>
      </trkpt>
      <trkpt lat="42.50476" lon="2.23028">
        <ele>1069.6</ele>
        <time>2017-05-20T12:29:22Z</time>
      </trkpt>
      <trkpt lat="42.50471" lon="2.23032">
        <ele>1072.01</ele>
        <time>2017-05-20T12:29:34Z</time>
      </trkpt>
      <trkpt lat="42.50464" lon="2.23029">
        <ele>1074.89</ele>
        <time>2017-05-20T12:29:49Z</time>
      </trkpt>
      <trkpt lat="42.50462" lon="2.23035">
        <ele>1077.29</ele>
        <time>2017-05-20T12:30:02Z</time>
      </trkpt>
      <trkpt lat="42.5046" lon="2.23031">
        <ele>1078.74</ele>
        <time>2017-05-20T12:30:15Z</time>
      </trkpt>
      <trkpt lat="42.50458" lon="2.2303">
        <ele>1078.74</ele>
        <time>2017-05-20T12:30:34Z</time>
      </trkpt>
      <trkpt lat="42.50461" lon="2.23027">
        <ele>1079.7</ele>
        <time>2017-05-20T12:30:52Z</time>
      </trkpt>
      <trkpt lat="42.50454" lon="2.23034">
        <ele>1078.74</ele>
        <time>2017-05-20T12:31:02Z</time>
      </trkpt>
      <trkpt lat="42.50449" lon="2.2304">
        <ele>1077.29</ele>
        <time>2017-05-20T12:31:12Z</time>
      </trkpt>
      <trkpt lat="42.50444" lon="2.23041">
        <ele>1078.26</ele>
        <time>2017-05-20T12:31:21Z</time>
      </trkpt>
      <trkpt lat="42.50438" lon="2.2304">
        <ele>1079.7</ele>
        <time>2017-05-20T12:31:31Z</time>
      </trkpt>
      <trkpt lat="42.5043" lon="2.23038">
        <ele>1080.18</ele>
        <time>2017-05-20T12:31:42Z</time>
      </trkpt>
      <trkpt lat="42.50429" lon="2.23035">
        <ele>1078.74</ele>
        <time>2017-05-20T12:31:52Z</time>
      </trkpt>
      <trkpt lat="42.50427" lon="2.23033">
        <ele>1080.18</ele>
        <time>2017-05-20T12:31:56Z</time>
      </trkpt>
      <trkpt lat="42.50426" lon="2.23025">
        <ele>1081.14</ele>
        <time>2017-05-20T12:32:06Z</time>
      </trkpt>
      <trkpt lat="42.50427" lon="2.23012">
        <ele>1082.1</ele>
        <time>2017-05-20T12:32:17Z</time>
      </trkpt>
      <trkpt lat="42.50426" lon="2.23002">
        <ele>1082.1</ele>
        <time>2017-05-20T12:32:27Z</time>
      </trkpt>
      <trkpt lat="42.50429" lon="2.22984">
        <ele>1082.1</ele>
        <time>2017-05-20T12:32:42Z</time>
      </trkpt>
      <trkpt lat="42.50428" lon="2.22979">
        <ele>1082.58</ele>
        <time>2017-05-20T12:32:55Z</time>
      </trkpt>
      <trkpt lat="42.50424" lon="2.22978">
        <ele>1083.54</ele>
        <time>2017-05-20T12:33:03Z</time>
      </trkpt>
      <trkpt lat="42.50418" lon="2.22977">
        <ele>1084.99</ele>
        <time>2017-05-20T12:33:13Z</time>
      </trkpt>
      <trkpt lat="42.50415" lon="2.22974">
        <ele>1084.99</ele>
        <time>2017-05-20T12:33:23Z</time>
      </trkpt>
      <trkpt lat="42.5041" lon="2.22967">
        <ele>1085.95</ele>
        <time>2017-05-20T12:33:38Z</time>
      </trkpt>
      <trkpt lat="42.50402" lon="2.22969">
        <ele>1086.91</ele>
        <time>2017-05-20T12:33:50Z</time>
      </trkpt>
      <trkpt lat="42.504" lon="2.22972">
        <ele>1087.87</ele>
        <time>2017-05-20T12:34:00Z</time>
      </trkpt>
      <trkpt lat="42.50397" lon="2.22975">
        <ele>1088.83</ele>
        <time>2017-05-20T12:34:09Z</time>
      </trkpt>
      <trkpt lat="42.50391" lon="2.22981">
        <ele>1088.83</ele>
        <time>2017-05-20T12:34:18Z</time>
      </trkpt>
      <trkpt lat="42.5039" lon="2.22983">
        <ele>1089.31</ele>
        <time>2017-05-20T12:34:21Z</time>
      </trkpt>
      <trkpt lat="42.50389" lon="2.22987">
        <ele>1089.79</ele>
        <time>2017-05-20T12:34:24Z</time>
      </trkpt>
      <trkpt lat="42.50385" lon="2.22994">
        <ele>1090.75</ele>
        <time>2017-05-20T12:34:35Z</time>
      </trkpt>
      <trkpt lat="42.50379" lon="2.22995">
        <ele>1091.23</ele>
        <time>2017-05-20T12:34:45Z</time>
      </trkpt>
      <trkpt lat="42.50374" lon="2.22994">
        <ele>1091.23</ele>
        <time>2017-05-20T12:34:57Z</time>
      </trkpt>
      <trkpt lat="42.50373" lon="2.22994">
        <ele>1089.79</ele>
        <time>2017-05-20T12:34:59Z</time>
      </trkpt>
      <trkpt lat="42.50369" lon="2.22994">
        <ele>1091.23</ele>
        <time>2017-05-20T12:35:08Z</time>
      </trkpt>
      <trkpt lat="42.50367" lon="2.22998">
        <ele>1091.71</ele>
        <time>2017-05-20T12:35:12Z</time>
      </trkpt>
      <trkpt lat="42.50363" lon="2.23008">
        <ele>1093.16</ele>
        <time>2017-05-20T12:35:22Z</time>
      </trkpt>
      <trkpt lat="42.50357" lon="2.23018">
        <ele>1094.12</ele>
        <time>2017-05-20T12:35:34Z</time>
      </trkpt>
      <trkpt lat="42.50346" lon="2.23029">
        <ele>1095.08</ele>
        <time>2017-05-20T12:35:44Z</time>
      </trkpt>
      <trkpt lat="42.50338" lon="2.23036">
        <ele>1095.56</ele>
        <time>2017-05-20T12:35:57Z</time>
      </trkpt>
      <trkpt lat="42.50333" lon="2.23036">
        <ele>1095.56</ele>
        <time>2017-05-20T12:36:08Z</time>
      </trkpt>
      <trkpt lat="42.50326" lon="2.23035">
        <ele>1096.04</ele>
        <time>2017-05-20T12:36:18Z</time>
      </trkpt>
      <trkpt lat="42.50319" lon="2.23032">
        <ele>1097</ele>
        <time>2017-05-20T12:36:28Z</time>
      </trkpt>
      <trkpt lat="42.50313" lon="2.23027">
        <ele>1097</ele>
        <time>2017-05-20T12:36:38Z</time>
      </trkpt>
      <trkpt lat="42.50309" lon="2.23028">
        <ele>1097</ele>
        <time>2017-05-20T12:36:44Z</time>
      </trkpt>
      <trkpt lat="42.50305" lon="2.23028">
        <ele>1099.4</ele>
        <time>2017-05-20T12:36:55Z</time>
      </trkpt>
      <trkpt lat="42.50298" lon="2.23035">
        <ele>1101.81</ele>
        <time>2017-05-20T12:37:06Z</time>
      </trkpt>
      <trkpt lat="42.50295" lon="2.23036">
        <ele>1101.81</ele>
        <time>2017-05-20T12:37:14Z</time>
      </trkpt>
      <trkpt lat="42.5029" lon="2.23042">
        <ele>1103.25</ele>
        <time>2017-05-20T12:37:25Z</time>
      </trkpt>
      <trkpt lat="42.50293" lon="2.23044">
        <ele>1103.25</ele>
        <time>2017-05-20T12:37:39Z</time>
      </trkpt>
      <trkpt lat="42.50293" lon="2.23043">
        <ele>1103.25</ele>
        <time>2017-05-20T12:37:57Z</time>
      </trkpt>
      <trkpt lat="42.50293" lon="2.23041">
        <ele>1103.25</ele>
        <time>2017-05-20T12:38:13Z</time>
      </trkpt>
      <trkpt lat="42.50297" lon="2.23039">
        <ele>1103.25</ele>
        <time>2017-05-20T12:38:40Z</time>
      </trkpt>
      <trkpt lat="42.50298" lon="2.23027">
        <ele>1103.25</ele>
        <time>2017-05-20T12:39:02Z</time>
      </trkpt>
      <trkpt lat="42.5029" lon="2.2303">
        <ele>1103.25</ele>
        <time>2017-05-20T12:39:15Z</time>
      </trkpt>
      <trkpt lat="42.50284" lon="2.23025">
        <ele>1103.25</ele>
        <time>2017-05-20T12:39:25Z</time>
      </trkpt>
      <trkpt lat="42.50282" lon="2.23025">
        <ele>1103.25</ele>
        <time>2017-05-20T12:39:37Z</time>
      </trkpt>
      <trkpt lat="42.50282" lon="2.23024">
        <ele>1101.81</ele>
        <time>2017-05-20T12:39:49Z</time>
      </trkpt>
      <trkpt lat="42.50282" lon="2.23025">
        <ele>1101.81</ele>
        <time>2017-05-20T12:39:50Z</time>
      </trkpt>
      <trkpt lat="42.50282" lon="2.23026">
        <ele>1099.89</ele>
        <time>2017-05-20T12:40:00Z</time>
      </trkpt>
      <trkpt lat="42.50281" lon="2.23034">
        <ele>1099.89</ele>
        <time>2017-05-20T12:40:09Z</time>
      </trkpt>
      <trkpt lat="42.50273" lon="2.23038">
        <ele>1100.85</ele>
        <time>2017-05-20T12:40:21Z</time>
      </trkpt>
      <trkpt lat="42.50266" lon="2.23044">
        <ele>1103.73</ele>
        <time>2017-05-20T12:40:34Z</time>
      </trkpt>
      <trkpt lat="42.50257" lon="2.23049">
        <ele>1105.17</ele>
        <time>2017-05-20T12:40:45Z</time>
      </trkpt>
      <trkpt lat="42.50251" lon="2.23053">
        <ele>1107.58</ele>
        <time>2017-05-20T12:40:57Z</time>
      </trkpt>
      <trkpt lat="42.50248" lon="2.23058">
        <ele>1108.54</ele>
        <time>2017-05-20T12:41:02Z</time>
      </trkpt>
      <trkpt lat="42.50242" lon="2.2307">
        <ele>1109.5</ele>
        <time>2017-05-20T12:41:13Z</time>
      </trkpt>
      <trkpt lat="42.50237" lon="2.23087">
        <ele>1110.94</ele>
        <time>2017-05-20T12:41:24Z</time>
      </trkpt>
      <trkpt lat="42.50236" lon="2.23101">
        <ele>1112.38</ele>
        <time>2017-05-20T12:41:39Z</time>
      </trkpt>
      <trkpt lat="42.50241" lon="2.23101">
        <ele>1110.94</ele>
        <time>2017-05-20T12:41:55Z</time>
      </trkpt>
      <trkpt lat="42.50241" lon="2.23106">
        <ele>1110.46</ele>
        <time>2017-05-20T12:42:06Z</time>
      </trkpt>
      <trkpt lat="42.50241" lon="2.23106">
        <ele>1110.46</ele>
        <time>2017-05-20T12:42:18Z</time>
      </trkpt>
      <trkpt lat="42.50239" lon="2.23109">
        <ele>1110.46</ele>
        <time>2017-05-20T12:42:30Z</time>
      </trkpt>
      <trkpt lat="42.50235" lon="2.2311">
        <ele>1111.9</ele>
        <time>2017-05-20T12:42:38Z</time>
      </trkpt>
      <trkpt lat="42.50231" lon="2.23117">
        <ele>1113.34</ele>
        <time>2017-05-20T12:42:52Z</time>
      </trkpt>
      <trkpt lat="42.50221" lon="2.23127">
        <ele>1114.79</ele>
        <time>2017-05-20T12:43:04Z</time>
      </trkpt>
      <trkpt lat="42.50217" lon="2.23128">
        <ele>1115.27</ele>
        <time>2017-05-20T12:43:13Z</time>
      </trkpt>
      <trkpt lat="42.50214" lon="2.23134">
        <ele>1116.71</ele>
        <time>2017-05-20T12:43:25Z</time>
      </trkpt>
      <trkpt lat="42.50211" lon="2.23138">
        <ele>1117.67</ele>
        <time>2017-05-20T12:43:39Z</time>
      </trkpt>
      <trkpt lat="42.50207" lon="2.23141">
        <ele>1118.15</ele>
        <time>2017-05-20T12:43:52Z</time>
      </trkpt>
      <trkpt lat="42.50205" lon="2.23142">
        <ele>1118.63</ele>
        <time>2017-05-20T12:44:08Z</time>
      </trkpt>
      <trkpt lat="42.50203" lon="2.23141">
        <ele>1118.63</ele>
        <time>2017-05-20T12:44:24Z</time>
      </trkpt>
      <trkpt lat="42.50201" lon="2.23143">
        <ele>1118.63</ele>
        <time>2017-05-20T12:44:34Z</time>
      </trkpt>
      <trkpt lat="42.50199" lon="2.23146">
        <ele>1118.63</ele>
        <time>2017-05-20T12:44:48Z</time>
      </trkpt>
      <trkpt lat="42.50193" lon="2.2314">
        <ele>1119.11</ele>
        <time>2017-05-20T12:44:59Z</time>
      </trkpt>
      <trkpt lat="42.50186" lon="2.23149">
        <ele>1119.59</ele>
        <time>2017-05-20T12:45:16Z</time>
      </trkpt>
      <trkpt lat="42.50186" lon="2.2315">
        <ele>1120.55</ele>
        <time>2017-05-20T12:45:31Z</time>
      </trkpt>
      <trkpt lat="42.50178" lon="2.23149">
        <ele>1120.55</ele>
        <time>2017-05-20T12:45:43Z</time>
      </trkpt>
      <trkpt lat="42.50173" lon="2.23148">
        <ele>1121.52</ele>
        <time>2017-05-20T12:45:54Z</time>
      </trkpt>
      <trkpt lat="42.50166" lon="2.23146">
        <ele>1123.92</ele>
        <time>2017-05-20T12:46:06Z</time>
      </trkpt>
      <trkpt lat="42.5016" lon="2.23152">
        <ele>1124.88</ele>
        <time>2017-05-20T12:46:18Z</time>
      </trkpt>
      <trkpt lat="42.50153" lon="2.23161">
        <ele>1125.84</ele>
        <time>2017-05-20T12:46:30Z</time>
      </trkpt>
      <trkpt lat="42.50148" lon="2.23175">
        <ele>1126.8</ele>
        <time>2017-05-20T12:46:40Z</time>
      </trkpt>
      <trkpt lat="42.50144" lon="2.23188">
        <ele>1127.76</ele>
        <time>2017-05-20T12:46:50Z</time>
      </trkpt>
      <trkpt lat="42.50141" lon="2.23198">
        <ele>1128.24</ele>
        <time>2017-05-20T12:46:59Z</time>
      </trkpt>
      <trkpt lat="42.50135" lon="2.2321">
        <ele>1128.73</ele>
        <time>2017-05-20T12:47:09Z</time>
      </trkpt>
      <trkpt lat="42.5013" lon="2.23222">
        <ele>1129.69</ele>
        <time>2017-05-20T12:47:18Z</time>
      </trkpt>
      <trkpt lat="42.5012" lon="2.23234">
        <ele>1131.13</ele>
        <time>2017-05-20T12:47:28Z</time>
      </trkpt>
      <trkpt lat="42.50114" lon="2.23242">
        <ele>1132.09</ele>
        <time>2017-05-20T12:47:37Z</time>
      </trkpt>
      <trkpt lat="42.50107" lon="2.23249">
        <ele>1133.53</ele>
        <time>2017-05-20T12:47:48Z</time>
      </trkpt>
      <trkpt lat="42.50108" lon="2.23254">
        <ele>1134.01</ele>
        <time>2017-05-20T12:48:05Z</time>
      </trkpt>
      <trkpt lat="42.50104" lon="2.23254">
        <ele>1134.01</ele>
        <time>2017-05-20T12:48:24Z</time>
      </trkpt>
      <trkpt lat="42.501" lon="2.2326">
        <ele>1134.97</ele>
        <time>2017-05-20T12:48:37Z</time>
      </trkpt>
      <trkpt lat="42.50089" lon="2.23264">
        <ele>1134.97</ele>
        <time>2017-05-20T12:48:48Z</time>
      </trkpt>
      <trkpt lat="42.50078" lon="2.23263">
        <ele>1135.94</ele>
        <time>2017-05-20T12:48:56Z</time>
      </trkpt>
      <trkpt lat="42.50071" lon="2.23262">
        <ele>1137.38</ele>
        <time>2017-05-20T12:49:06Z</time>
      </trkpt>
      <trkpt lat="42.50064" lon="2.23262">
        <ele>1138.82</ele>
        <time>2017-05-20T12:49:14Z</time>
      </trkpt>
      <trkpt lat="42.50052" lon="2.23262">
        <ele>1139.78</ele>
        <time>2017-05-20T12:49:26Z</time>
      </trkpt>
      <trkpt lat="42.50046" lon="2.23263">
        <ele>1140.74</ele>
        <time>2017-05-20T12:49:35Z</time>
      </trkpt>
      <trkpt lat="42.50041" lon="2.23267">
        <ele>1141.7</ele>
        <time>2017-05-20T12:49:44Z</time>
      </trkpt>
      <trkpt lat="42.50038" lon="2.23276">
        <ele>1143.14</ele>
        <time>2017-05-20T12:49:55Z</time>
      </trkpt>
      <trkpt lat="42.5004" lon="2.23283">
        <ele>1144.11</ele>
        <time>2017-05-20T12:50:04Z</time>
      </trkpt>
      <trkpt lat="42.50039" lon="2.23302">
        <ele>1145.55</ele>
        <time>2017-05-20T12:50:14Z</time>
      </trkpt>
      <trkpt lat="42.50043" lon="2.23306">
        <ele>1145.55</ele>
        <time>2017-05-20T12:50:26Z</time>
      </trkpt>
      <trkpt lat="42.5004" lon="2.23309">
        <ele>1145.55</ele>
        <time>2017-05-20T12:50:41Z</time>
      </trkpt>
      <trkpt lat="42.50043" lon="2.2331">
        <ele>1145.55</ele>
        <time>2017-05-20T12:50:55Z</time>
      </trkpt>
      <trkpt lat="42.50041" lon="2.23317">
        <ele>1145.55</ele>
        <time>2017-05-20T12:51:09Z</time>
      </trkpt>
      <trkpt lat="42.50043" lon="2.23328">
        <ele>1146.03</ele>
        <time>2017-05-20T12:51:18Z</time>
      </trkpt>
      <trkpt lat="42.5004" lon="2.23336">
        <ele>1146.99</ele>
        <time>2017-05-20T12:51:28Z</time>
      </trkpt>
      <trkpt lat="42.50031" lon="2.23333">
        <ele>1146.51</ele>
        <time>2017-05-20T12:51:50Z</time>
      </trkpt>
      <trkpt lat="42.50039" lon="2.23334">
        <ele>1146.51</ele>
        <time>2017-05-20T12:52:04Z</time>
      </trkpt>
      <trkpt lat="42.50045" lon="2.23335">
        <ele>1146.51</ele>
        <time>2017-05-20T12:52:20Z</time>
      </trkpt>
      <trkpt lat="42.50042" lon="2.23332">
        <ele>1146.51</ele>
        <time>2017-05-20T12:52:37Z</time>
      </trkpt>
      <trkpt lat="42.50044" lon="2.23335">
        <ele>1146.51</ele>
        <time>2017-05-20T12:52:52Z</time>
      </trkpt>
      <trkpt lat="42.50047" lon="2.23344">
        <ele>1146.51</ele>
        <time>2017-05-20T12:53:09Z</time>
      </trkpt>
      <trkpt lat="42.50046" lon="2.23351">
        <ele>1146.51</ele>
        <time>2017-05-20T12:53:24Z</time>
      </trkpt>
      <trkpt lat="42.50045" lon="2.23362">
        <ele>1147.47</ele>
        <time>2017-05-20T12:53:35Z</time>
      </trkpt>
      <trkpt lat="42.50042" lon="2.23371">
        <ele>1148.91</ele>
        <time>2017-05-20T12:53:44Z</time>
      </trkpt>
      <trkpt lat="42.50032" lon="2.23386">
        <ele>1150.35</ele>
        <time>2017-05-20T12:53:56Z</time>
      </trkpt>
      <trkpt lat="42.50024" lon="2.23393">
        <ele>1152.28</ele>
        <time>2017-05-20T12:54:08Z</time>
      </trkpt>
      <trkpt lat="42.50014" lon="2.23399">
        <ele>1153.72</ele>
        <time>2017-05-20T12:54:19Z</time>
      </trkpt>
      <trkpt lat="42.50013" lon="2.23401">
        <ele>1153.72</ele>
        <time>2017-05-20T12:54:21Z</time>
      </trkpt>
      <trkpt lat="42.50002" lon="2.23405">
        <ele>1155.64</ele>
        <time>2017-05-20T12:54:32Z</time>
      </trkpt>
      <trkpt lat="42.49998" lon="2.23409">
        <ele>1156.6</ele>
        <time>2017-05-20T12:54:42Z</time>
      </trkpt>
      <trkpt lat="42.49992" lon="2.23416">
        <ele>1157.56</ele>
        <time>2017-05-20T12:54:51Z</time>
      </trkpt>
      <trkpt lat="42.49984" lon="2.23423">
        <ele>1158.53</ele>
        <time>2017-05-20T12:54:59Z</time>
      </trkpt>
      <trkpt lat="42.49978" lon="2.23429">
        <ele>1159.49</ele>
        <time>2017-05-20T12:55:08Z</time>
      </trkpt>
      <trkpt lat="42.49968" lon="2.2344">
        <ele>1160.93</ele>
        <time>2017-05-20T12:55:18Z</time>
      </trkpt>
      <trkpt lat="42.49956" lon="2.23452">
        <ele>1161.89</ele>
        <time>2017-05-20T12:55:30Z</time>
      </trkpt>
      <trkpt lat="42.49946" lon="2.2346">
        <ele>1163.33</ele>
        <time>2017-05-20T12:55:40Z</time>
      </trkpt>
      <trkpt lat="42.49936" lon="2.2347">
        <ele>1165.26</ele>
        <time>2017-05-20T12:55:52Z</time>
      </trkpt>
      <trkpt lat="42.49929" lon="2.23476">
        <ele>1166.7</ele>
        <time>2017-05-20T12:56:02Z</time>
      </trkpt>
      <trkpt lat="42.4992" lon="2.23487">
        <ele>1167.18</ele>
        <time>2017-05-20T12:56:13Z</time>
      </trkpt>
      <trkpt lat="42.4992" lon="2.23488">
        <ele>1167.66</ele>
        <time>2017-05-20T12:56:14Z</time>
      </trkpt>
      <trkpt lat="42.49915" lon="2.235">
        <ele>1168.62</ele>
        <time>2017-05-20T12:56:24Z</time>
      </trkpt>
      <trkpt lat="42.49911" lon="2.23507">
        <ele>1169.1</ele>
        <time>2017-05-20T12:56:34Z</time>
      </trkpt>
      <trkpt lat="42.49906" lon="2.23516">
        <ele>1170.06</ele>
        <time>2017-05-20T12:56:45Z</time>
      </trkpt>
      <trkpt lat="42.49899" lon="2.23525">
        <ele>1171.02</ele>
        <time>2017-05-20T12:56:54Z</time>
      </trkpt>
      <trkpt lat="42.49895" lon="2.23534">
        <ele>1171.98</ele>
        <time>2017-05-20T12:57:02Z</time>
      </trkpt>
      <trkpt lat="42.49894" lon="2.23537">
        <ele>1171.98</ele>
        <time>2017-05-20T12:57:05Z</time>
      </trkpt>
      <trkpt lat="42.49886" lon="2.23548">
        <ele>1172.95</ele>
        <time>2017-05-20T12:57:15Z</time>
      </trkpt>
      <trkpt lat="42.49881" lon="2.23554">
        <ele>1173.43</ele>
        <time>2017-05-20T12:57:21Z</time>
      </trkpt>
      <trkpt lat="42.49872" lon="2.23567">
        <ele>1174.39</ele>
        <time>2017-05-20T12:57:31Z</time>
      </trkpt>
      <trkpt lat="42.49864" lon="2.23577">
        <ele>1175.83</ele>
        <time>2017-05-20T12:57:41Z</time>
      </trkpt>
      <trkpt lat="42.4986" lon="2.23589">
        <ele>1176.31</ele>
        <time>2017-05-20T12:57:48Z</time>
      </trkpt>
      <trkpt lat="42.49852" lon="2.2359">
        <ele>1177.27</ele>
        <time>2017-05-20T12:57:58Z</time>
      </trkpt>
      <trkpt lat="42.49844" lon="2.23592">
        <ele>1178.71</ele>
        <time>2017-05-20T12:58:10Z</time>
      </trkpt>
      <trkpt lat="42.49834" lon="2.236">
        <ele>1179.19</ele>
        <time>2017-05-20T12:58:22Z</time>
      </trkpt>
      <trkpt lat="42.49825" lon="2.23606">
        <ele>1180.64</ele>
        <time>2017-05-20T12:58:33Z</time>
      </trkpt>
      <trkpt lat="42.49818" lon="2.23612">
        <ele>1181.6</ele>
        <time>2017-05-20T12:58:42Z</time>
      </trkpt>
      <trkpt lat="42.49811" lon="2.23618">
        <ele>1183.04</ele>
        <time>2017-05-20T12:58:50Z</time>
      </trkpt>
      <trkpt lat="42.49805" lon="2.23626">
        <ele>1184</ele>
        <time>2017-05-20T12:59:00Z</time>
      </trkpt>
      <trkpt lat="42.49797" lon="2.2363">
        <ele>1185.44</ele>
        <time>2017-05-20T12:59:09Z</time>
      </trkpt>
      <trkpt lat="42.49789" lon="2.23635">
        <ele>1186.88</ele>
        <time>2017-05-20T12:59:19Z</time>
      </trkpt>
      <trkpt lat="42.49783" lon="2.23641">
        <ele>1187.37</ele>
        <time>2017-05-20T12:59:29Z</time>
      </trkpt>
      <trkpt lat="42.49779" lon="2.23649">
        <ele>1187.85</ele>
        <time>2017-05-20T12:59:42Z</time>
      </trkpt>
      <trkpt lat="42.49773" lon="2.23651">
        <ele>1190.25</ele>
        <time>2017-05-20T12:59:52Z</time>
      </trkpt>
      <trkpt lat="42.49772" lon="2.2365">
        <ele>1190.25</ele>
        <time>2017-05-20T12:59:53Z</time>
      </trkpt>
      <trkpt lat="42.49783" lon="2.23645">
        <ele>1189.29</ele>
        <time>2017-05-20T13:00:14Z</time>
      </trkpt>
      <trkpt lat="42.49785" lon="2.23647">
        <ele>1189.29</ele>
        <time>2017-05-20T13:00:28Z</time>
      </trkpt>
      <trkpt lat="42.49778" lon="2.23644">
        <ele>1190.73</ele>
        <time>2017-05-20T13:00:36Z</time>
      </trkpt>
      <trkpt lat="42.49771" lon="2.23644">
        <ele>1191.69</ele>
        <time>2017-05-20T13:00:46Z</time>
      </trkpt>
      <trkpt lat="42.49766" lon="2.23645">
        <ele>1192.65</ele>
        <time>2017-05-20T13:00:55Z</time>
      </trkpt>
      <trkpt lat="42.49761" lon="2.23647">
        <ele>1194.09</ele>
        <time>2017-05-20T13:01:02Z</time>
      </trkpt>
      <trkpt lat="42.49753" lon="2.23652">
        <ele>1195.06</ele>
        <time>2017-05-20T13:01:14Z</time>
      </trkpt>
      <trkpt lat="42.49744" lon="2.23655">
        <ele>1195.54</ele>
        <time>2017-05-20T13:01:26Z</time>
      </trkpt>
      <trkpt lat="42.49743" lon="2.23656">
        <ele>1195.54</ele>
        <time>2017-05-20T13:01:28Z</time>
      </trkpt>
      <trkpt lat="42.49735" lon="2.23657">
        <ele>1196.5</ele>
        <time>2017-05-20T13:01:36Z</time>
      </trkpt>
      <trkpt lat="42.49733" lon="2.23656">
        <ele>1197.46</ele>
        <time>2017-05-20T13:01:55Z</time>
      </trkpt>
      <trkpt lat="42.49726" lon="2.23658">
        <ele>1197.94</ele>
        <time>2017-05-20T13:02:04Z</time>
      </trkpt>
      <trkpt lat="42.49717" lon="2.2366">
        <ele>1198.42</ele>
        <time>2017-05-20T13:02:15Z</time>
      </trkpt>
      <trkpt lat="42.49706" lon="2.23651">
        <ele>1199.38</ele>
        <time>2017-05-20T13:02:25Z</time>
      </trkpt>
      <trkpt lat="42.49699" lon="2.23654">
        <ele>1200.34</ele>
        <time>2017-05-20T13:02:34Z</time>
      </trkpt>
      <trkpt lat="42.49692" lon="2.23655">
        <ele>1200.82</ele>
        <time>2017-05-20T13:02:40Z</time>
      </trkpt>
      <trkpt lat="42.49688" lon="2.23658">
        <ele>1201.3</ele>
        <time>2017-05-20T13:02:43Z</time>
      </trkpt>
      <trkpt lat="42.49683" lon="2.23659">
        <ele>1201.79</ele>
        <time>2017-05-20T13:02:48Z</time>
      </trkpt>
      <trkpt lat="42.49675" lon="2.23661">
        <ele>1202.27</ele>
        <time>2017-05-20T13:02:58Z</time>
      </trkpt>
      <trkpt lat="42.49665" lon="2.23667">
        <ele>1203.23</ele>
        <time>2017-05-20T13:03:07Z</time>
      </trkpt>
      <trkpt lat="42.49656" lon="2.23674">
        <ele>1203.71</ele>
        <time>2017-05-20T13:03:17Z</time>
      </trkpt>
      <trkpt lat="42.49649" lon="2.2368">
        <ele>1205.15</ele>
        <time>2017-05-20T13:03:25Z</time>
      </trkpt>
      <trkpt lat="42.49638" lon="2.23689">
        <ele>1206.11</ele>
        <time>2017-05-20T13:03:35Z</time>
      </trkpt>
      <trkpt lat="42.49631" lon="2.23696">
        <ele>1207.07</ele>
        <time>2017-05-20T13:03:42Z</time>
      </trkpt>
      <trkpt lat="42.49625" lon="2.237">
        <ele>1208.51</ele>
        <time>2017-05-20T13:03:51Z</time>
      </trkpt>
      <trkpt lat="42.49616" lon="2.23698">
        <ele>1209.48</ele>
        <time>2017-05-20T13:04:02Z</time>
      </trkpt>
      <trkpt lat="42.49608" lon="2.23696">
        <ele>1210.44</ele>
        <time>2017-05-20T13:04:11Z</time>
      </trkpt>
      <trkpt lat="42.49593" lon="2.23702">
        <ele>1212.36</ele>
        <time>2017-05-20T13:04:22Z</time>
      </trkpt>
      <trkpt lat="42.49584" lon="2.23704">
        <ele>1213.8</ele>
        <time>2017-05-20T13:04:32Z</time>
      </trkpt>
      <trkpt lat="42.49574" lon="2.23709">
        <ele>1215.24</ele>
        <time>2017-05-20T13:04:43Z</time>
      </trkpt>
      <trkpt lat="42.49573" lon="2.23709">
        <ele>1215.24</ele>
        <time>2017-05-20T13:04:44Z</time>
      </trkpt>
      <trkpt lat="42.49564" lon="2.23713">
        <ele>1216.21</ele>
        <time>2017-05-20T13:04:55Z</time>
      </trkpt>
      <trkpt lat="42.49557" lon="2.23717">
        <ele>1217.65</ele>
        <time>2017-05-20T13:05:08Z</time>
      </trkpt>
      <trkpt lat="42.49552" lon="2.23723">
        <ele>1217.65</ele>
        <time>2017-05-20T13:05:19Z</time>
      </trkpt>
      <trkpt lat="42.49551" lon="2.23723">
        <ele>1217.65</ele>
        <time>2017-05-20T13:05:34Z</time>
      </trkpt>
      <trkpt lat="42.49551" lon="2.23723">
        <ele>1216.21</ele>
        <time>2017-05-20T13:05:36Z</time>
      </trkpt>
      <trkpt lat="42.49548" lon="2.23725">
        <ele>1216.21</ele>
        <time>2017-05-20T13:05:48Z</time>
      </trkpt>
      <trkpt lat="42.49547" lon="2.23721">
        <ele>1217.65</ele>
        <time>2017-05-20T13:05:53Z</time>
      </trkpt>
      <trkpt lat="42.49539" lon="2.23721">
        <ele>1218.61</ele>
        <time>2017-05-20T13:06:05Z</time>
      </trkpt>
      <trkpt lat="42.49539" lon="2.23727">
        <ele>1219.57</ele>
        <time>2017-05-20T13:06:21Z</time>
      </trkpt>
      <trkpt lat="42.49543" lon="2.23732">
        <ele>1221.01</ele>
        <time>2017-05-20T13:06:38Z</time>
      </trkpt>
      <trkpt lat="42.49542" lon="2.23738">
        <ele>1223.42</ele>
        <time>2017-05-20T13:06:53Z</time>
      </trkpt>
      <trkpt lat="42.49533" lon="2.23744">
        <ele>1224.38</ele>
        <time>2017-05-20T13:07:05Z</time>
      </trkpt>
      <trkpt lat="42.4952" lon="2.23749">
        <ele>1225.34</ele>
        <time>2017-05-20T13:07:19Z</time>
      </trkpt>
      <trkpt lat="42.49518" lon="2.23751">
        <ele>1225.82</ele>
        <time>2017-05-20T13:07:32Z</time>
      </trkpt>
      <trkpt lat="42.49515" lon="2.23752">
        <ele>1224.86</ele>
        <time>2017-05-20T13:07:46Z</time>
      </trkpt>
      <trkpt lat="42.49516" lon="2.23751">
        <ele>1224.38</ele>
        <time>2017-05-20T13:07:57Z</time>
      </trkpt>
      <trkpt lat="42.49516" lon="2.2375">
        <ele>1224.38</ele>
        <time>2017-05-20T13:08:08Z</time>
      </trkpt>
      <trkpt lat="42.49518" lon="2.23752">
        <ele>1225.34</ele>
        <time>2017-05-20T13:08:18Z</time>
      </trkpt>
      <trkpt lat="42.49516" lon="2.23752">
        <ele>1226.78</ele>
        <time>2017-05-20T13:08:26Z</time>
      </trkpt>
      <trkpt lat="42.49515" lon="2.23754">
        <ele>1227.74</ele>
        <time>2017-05-20T13:08:34Z</time>
      </trkpt>
      <trkpt lat="42.49507" lon="2.23755">
        <ele>1227.74</ele>
        <time>2017-05-20T13:08:44Z</time>
      </trkpt>
      <trkpt lat="42.49503" lon="2.23754">
        <ele>1226.78</ele>
        <time>2017-05-20T13:08:50Z</time>
      </trkpt>
      <trkpt lat="42.49502" lon="2.23753">
        <ele>1225.82</ele>
        <time>2017-05-20T13:09:06Z</time>
      </trkpt>
      <trkpt lat="42.49496" lon="2.23761">
        <ele>1225.34</ele>
        <time>2017-05-20T13:09:18Z</time>
      </trkpt>
      <trkpt lat="42.495" lon="2.23761">
        <ele>1225.34</ele>
        <time>2017-05-20T13:09:31Z</time>
      </trkpt>
      <trkpt lat="42.49501" lon="2.23757">
        <ele>1226.78</ele>
        <time>2017-05-20T13:09:38Z</time>
      </trkpt>
      <trkpt lat="42.49498" lon="2.23755">
        <ele>1229.18</ele>
        <time>2017-05-20T13:09:48Z</time>
      </trkpt>
      <trkpt lat="42.49493" lon="2.2376">
        <ele>1229.18</ele>
        <time>2017-05-20T13:09:57Z</time>
      </trkpt>
      <trkpt lat="42.49488" lon="2.23764">
        <ele>1229.18</ele>
        <time>2017-05-20T13:10:08Z</time>
      </trkpt>
      <trkpt lat="42.49491" lon="2.2376">
        <ele>1229.18</ele>
        <time>2017-05-20T13:10:19Z</time>
      </trkpt>
      <trkpt lat="42.49484" lon="2.23761">
        <ele>1231.11</ele>
        <time>2017-05-20T13:10:30Z</time>
      </trkpt>
      <trkpt lat="42.4948" lon="2.23762">
        <ele>1232.07</ele>
        <time>2017-05-20T13:10:37Z</time>
      </trkpt>
      <trkpt lat="42.49477" lon="2.23765">
        <ele>1233.51</ele>
        <time>2017-05-20T13:10:47Z</time>
      </trkpt>
      <trkpt lat="42.49472" lon="2.23768">
        <ele>1234.47</ele>
        <time>2017-05-20T13:10:56Z</time>
      </trkpt>
      <trkpt lat="42.49467" lon="2.2378">
        <ele>1235.91</ele>
        <time>2017-05-20T13:11:09Z</time>
      </trkpt>
      <trkpt lat="42.4946" lon="2.23789">
        <ele>1237.35</ele>
        <time>2017-05-20T13:11:20Z</time>
      </trkpt>
      <trkpt lat="42.49455" lon="2.23799">
        <ele>1237.83</ele>
        <time>2017-05-20T13:11:29Z</time>
      </trkpt>
      <trkpt lat="42.49451" lon="2.23808">
        <ele>1238.8</ele>
        <time>2017-05-20T13:11:38Z</time>
      </trkpt>
      <trkpt lat="42.49447" lon="2.23818">
        <ele>1239.28</ele>
        <time>2017-05-20T13:11:47Z</time>
      </trkpt>
      <trkpt lat="42.49444" lon="2.23823">
        <ele>1240.72</ele>
        <time>2017-05-20T13:11:56Z</time>
      </trkpt>
      <trkpt lat="42.49439" lon="2.23833">
        <ele>1241.68</ele>
        <time>2017-05-20T13:12:06Z</time>
      </trkpt>
      <trkpt lat="42.49435" lon="2.23841">
        <ele>1243.6</ele>
        <time>2017-05-20T13:12:18Z</time>
      </trkpt>
      <trkpt lat="42.4943" lon="2.23852">
        <ele>1243.6</ele>
        <time>2017-05-20T13:12:27Z</time>
      </trkpt>
      <trkpt lat="42.49427" lon="2.23862">
        <ele>1245.53</ele>
        <time>2017-05-20T13:12:37Z</time>
      </trkpt>
      <trkpt lat="42.49425" lon="2.23871">
        <ele>1246.49</ele>
        <time>2017-05-20T13:12:43Z</time>
      </trkpt>
      <trkpt lat="42.49421" lon="2.23879">
        <ele>1247.45</ele>
        <time>2017-05-20T13:12:52Z</time>
      </trkpt>
      <trkpt lat="42.49418" lon="2.23888">
        <ele>1248.89</ele>
        <time>2017-05-20T13:13:02Z</time>
      </trkpt>
      <trkpt lat="42.49412" lon="2.23897">
        <ele>1249.85</ele>
        <time>2017-05-20T13:13:12Z</time>
      </trkpt>
      <trkpt lat="42.49406" lon="2.23899">
        <ele>1250.81</ele>
        <time>2017-05-20T13:13:21Z</time>
      </trkpt>
      <trkpt lat="42.494" lon="2.23903">
        <ele>1252.25</ele>
        <time>2017-05-20T13:13:30Z</time>
      </trkpt>
      <trkpt lat="42.49398" lon="2.23913">
        <ele>1253.22</ele>
        <time>2017-05-20T13:13:39Z</time>
      </trkpt>
      <trkpt lat="42.49392" lon="2.23917">
        <ele>1254.18</ele>
        <time>2017-05-20T13:13:47Z</time>
      </trkpt>
      <trkpt lat="42.49384" lon="2.23926">
        <ele>1254.66</ele>
        <time>2017-05-20T13:13:58Z</time>
      </trkpt>
      <trkpt lat="42.49381" lon="2.23935">
        <ele>1256.1</ele>
        <time>2017-05-20T13:14:07Z</time>
      </trkpt>
      <trkpt lat="42.49378" lon="2.23944">
        <ele>1257.54</ele>
        <time>2017-05-20T13:14:15Z</time>
      </trkpt>
      <trkpt lat="42.49372" lon="2.23952">
        <ele>1258.5</ele>
        <time>2017-05-20T13:14:25Z</time>
      </trkpt>
      <trkpt lat="42.49366" lon="2.23958">
        <ele>1258.98</ele>
        <time>2017-05-20T13:14:33Z</time>
      </trkpt>
      <trkpt lat="42.4934" lon="2.23937">
        <ele>1260.91</ele>
        <time>2017-05-20T13:14:44Z</time>
      </trkpt>
      <trkpt lat="42.49335" lon="2.23943">
        <ele>1261.39</ele>
        <time>2017-05-20T13:14:53Z</time>
      </trkpt>
      <trkpt lat="42.49328" lon="2.23943">
        <ele>1262.35</ele>
        <time>2017-05-20T13:15:01Z</time>
      </trkpt>
      <trkpt lat="42.49314" lon="2.23935">
        <ele>1263.79</ele>
        <time>2017-05-20T13:15:13Z</time>
      </trkpt>
      <trkpt lat="42.49298" lon="2.23922">
        <ele>1263.79</ele>
        <time>2017-05-20T13:15:25Z</time>
      </trkpt>
      <trkpt lat="42.49288" lon="2.23931">
        <ele>1263.79</ele>
        <time>2017-05-20T13:15:41Z</time>
      </trkpt>
      <trkpt lat="42.49281" lon="2.23937">
        <ele>1264.27</ele>
        <time>2017-05-20T13:16:00Z</time>
      </trkpt>
      <trkpt lat="42.49293" lon="2.23917">
        <ele>1264.27</ele>
        <time>2017-05-20T13:16:28Z</time>
      </trkpt>
      <trkpt lat="42.49293" lon="2.23914">
        <ele>1264.27</ele>
        <time>2017-05-20T13:16:49Z</time>
      </trkpt>
      <trkpt lat="42.49293" lon="2.239">
        <ele>1264.27</ele>
        <time>2017-05-20T13:17:13Z</time>
      </trkpt>
      <trkpt lat="42.49299" lon="2.23907">
        <ele>1264.27</ele>
        <time>2017-05-20T13:17:36Z</time>
      </trkpt>
      <trkpt lat="42.49301" lon="2.23909">
        <ele>1264.75</ele>
        <time>2017-05-20T13:18:02Z</time>
      </trkpt>
      <trkpt lat="42.49302" lon="2.23913">
        <ele>1265.23</ele>
        <time>2017-05-20T13:18:34Z</time>
      </trkpt>
      <trkpt lat="42.49302" lon="2.23915">
        <ele>1265.23</ele>
        <time>2017-05-20T13:19:00Z</time>
      </trkpt>
      <trkpt lat="42.49299" lon="2.23914">
        <ele>1265.71</ele>
        <time>2017-05-20T13:19:17Z</time>
      </trkpt>
      <trkpt lat="42.49297" lon="2.23918">
        <ele>1265.71</ele>
        <time>2017-05-20T13:19:42Z</time>
      </trkpt>
      <trkpt lat="42.49294" lon="2.2392">
        <ele>1266.19</ele>
        <time>2017-05-20T13:20:09Z</time>
      </trkpt>
      <trkpt lat="42.49296" lon="2.2391">
        <ele>1266.19</ele>
        <time>2017-05-20T13:20:37Z</time>
      </trkpt>
      <trkpt lat="42.49295" lon="2.23911">
        <ele>1266.67</ele>
        <time>2017-05-20T13:20:58Z</time>
      </trkpt>
      <trkpt lat="42.49292" lon="2.23914">
        <ele>1266.67</ele>
        <time>2017-05-20T13:21:24Z</time>
      </trkpt>
      <trkpt lat="42.49294" lon="2.23909">
        <ele>1267.16</ele>
        <time>2017-05-20T13:21:48Z</time>
      </trkpt>
      <trkpt lat="42.49299" lon="2.2391">
        <ele>1267.16</ele>
        <time>2017-05-20T13:22:14Z</time>
      </trkpt>
      <trkpt lat="42.49298" lon="2.23911">
        <ele>1267.64</ele>
        <time>2017-05-20T13:22:37Z</time>
      </trkpt>
      <trkpt lat="42.49293" lon="2.23925">
        <ele>1267.64</ele>
        <time>2017-05-20T13:23:04Z</time>
      </trkpt>
      <trkpt lat="42.493" lon="2.23915">
        <ele>1268.12</ele>
        <time>2017-05-20T13:23:37Z</time>
      </trkpt>
      <trkpt lat="42.49302" lon="2.23918">
        <ele>1268.12</ele>
        <time>2017-05-20T13:23:54Z</time>
      </trkpt>
      <trkpt lat="42.49302" lon="2.23916">
        <ele>1268.6</ele>
        <time>2017-05-20T13:24:05Z</time>
      </trkpt>
      <trkpt lat="42.49303" lon="2.23918">
        <ele>1268.6</ele>
        <time>2017-05-20T13:24:20Z</time>
      </trkpt>
      <trkpt lat="42.493" lon="2.2392">
        <ele>1269.08</ele>
        <time>2017-05-20T13:24:41Z</time>
      </trkpt>
      <trkpt lat="42.49301" lon="2.23923">
        <ele>1269.08</ele>
        <time>2017-05-20T13:24:52Z</time>
      </trkpt>
      <trkpt lat="42.49301" lon="2.2392">
        <ele>1269.08</ele>
        <time>2017-05-20T13:25:09Z</time>
      </trkpt>
      <trkpt lat="42.493" lon="2.23921">
        <ele>1269.08</ele>
        <time>2017-05-20T13:25:24Z</time>
      </trkpt>
      <trkpt lat="42.49298" lon="2.23915">
        <ele>1270.04</ele>
        <time>2017-05-20T13:25:41Z</time>
      </trkpt>
      <trkpt lat="42.49288" lon="2.23913">
        <ele>1271.48</ele>
        <time>2017-05-20T13:25:52Z</time>
      </trkpt>
      <trkpt lat="42.49282" lon="2.2391">
        <ele>1272.44</ele>
        <time>2017-05-20T13:26:01Z</time>
      </trkpt>
      <trkpt lat="42.49273" lon="2.23911">
        <ele>1272.92</ele>
        <time>2017-05-20T13:26:13Z</time>
      </trkpt>
      <trkpt lat="42.49264" lon="2.2391">
        <ele>1273.88</ele>
        <time>2017-05-20T13:26:22Z</time>
      </trkpt>
      <trkpt lat="42.49258" lon="2.23911">
        <ele>1275.33</ele>
        <time>2017-05-20T13:26:32Z</time>
      </trkpt>
      <trkpt lat="42.49252" lon="2.23911">
        <ele>1275.81</ele>
        <time>2017-05-20T13:26:40Z</time>
      </trkpt>
      <trkpt lat="42.49252" lon="2.23904">
        <ele>1276.77</ele>
        <time>2017-05-20T13:26:51Z</time>
      </trkpt>
      <trkpt lat="42.49253" lon="2.239">
        <ele>1278.69</ele>
        <time>2017-05-20T13:27:00Z</time>
      </trkpt>
      <trkpt lat="42.49252" lon="2.23896">
        <ele>1280.13</ele>
        <time>2017-05-20T13:27:11Z</time>
      </trkpt>
      <trkpt lat="42.49249" lon="2.23893">
        <ele>1281.57</ele>
        <time>2017-05-20T13:27:24Z</time>
      </trkpt>
      <trkpt lat="42.49246" lon="2.2389">
        <ele>1283.02</ele>
        <time>2017-05-20T13:27:37Z</time>
      </trkpt>
      <trkpt lat="42.49239" lon="2.23894">
        <ele>1284.46</ele>
        <time>2017-05-20T13:27:49Z</time>
      </trkpt>
      <trkpt lat="42.49237" lon="2.2389">
        <ele>1285.9</ele>
        <time>2017-05-20T13:28:01Z</time>
      </trkpt>
      <trkpt lat="42.49231" lon="2.23889">
        <ele>1287.34</ele>
        <time>2017-05-20T13:28:12Z</time>
      </trkpt>
      <trkpt lat="42.49226" lon="2.23887">
        <ele>1288.3</ele>
        <time>2017-05-20T13:28:25Z</time>
      </trkpt>
      <trkpt lat="42.49219" lon="2.23893">
        <ele>1288.78</ele>
        <time>2017-05-20T13:28:34Z</time>
      </trkpt>
      <trkpt lat="42.49214" lon="2.23896">
        <ele>1288.78</ele>
        <time>2017-05-20T13:28:40Z</time>
      </trkpt>
      <trkpt lat="42.49213" lon="2.23894">
        <ele>1287.34</ele>
        <time>2017-05-20T13:28:42Z</time>
      </trkpt>
      <trkpt lat="42.49208" lon="2.23893">
        <ele>1286.38</ele>
        <time>2017-05-20T13:28:52Z</time>
      </trkpt>
      <trkpt lat="42.49204" lon="2.23904">
        <ele>1284.46</ele>
        <time>2017-05-20T13:29:04Z</time>
      </trkpt>
      <trkpt lat="42.49201" lon="2.23905">
        <ele>1283.5</ele>
        <time>2017-05-20T13:29:13Z</time>
      </trkpt>
      <trkpt lat="42.49197" lon="2.23907">
        <ele>1284.46</ele>
        <time>2017-05-20T13:29:23Z</time>
      </trkpt>
      <trkpt lat="42.49189" lon="2.23903">
        <ele>1286.38</ele>
        <time>2017-05-20T13:29:33Z</time>
      </trkpt>
      <trkpt lat="42.4918" lon="2.23896">
        <ele>1288.3</ele>
        <time>2017-05-20T13:29:46Z</time>
      </trkpt>
      <trkpt lat="42.49169" lon="2.23897">
        <ele>1290.23</ele>
        <time>2017-05-20T13:29:58Z</time>
      </trkpt>
      <trkpt lat="42.49162" lon="2.23897">
        <ele>1291.19</ele>
        <time>2017-05-20T13:30:07Z</time>
      </trkpt>
      <trkpt lat="42.49155" lon="2.239">
        <ele>1292.15</ele>
        <time>2017-05-20T13:30:19Z</time>
      </trkpt>
      <trkpt lat="42.49147" lon="2.23896">
        <ele>1293.11</ele>
        <time>2017-05-20T13:30:30Z</time>
      </trkpt>
      <trkpt lat="42.49145" lon="2.23892">
        <ele>1294.55</ele>
        <time>2017-05-20T13:30:40Z</time>
      </trkpt>
      <trkpt lat="42.49139" lon="2.23893">
        <ele>1295.51</ele>
        <time>2017-05-20T13:30:50Z</time>
      </trkpt>
      <trkpt lat="42.49135" lon="2.23896">
        <ele>1295.99</ele>
        <time>2017-05-20T13:30:59Z</time>
      </trkpt>
      <trkpt lat="42.49128" lon="2.23899">
        <ele>1296.96</ele>
        <time>2017-05-20T13:31:07Z</time>
      </trkpt>
      <trkpt lat="42.49126" lon="2.23902">
        <ele>1297.44</ele>
        <time>2017-05-20T13:31:16Z</time>
      </trkpt>
      <trkpt lat="42.49119" lon="2.23906">
        <ele>1298.88</ele>
        <time>2017-05-20T13:31:28Z</time>
      </trkpt>
      <trkpt lat="42.49112" lon="2.2391">
        <ele>1299.84</ele>
        <time>2017-05-20T13:31:40Z</time>
      </trkpt>
      <trkpt lat="42.49106" lon="2.23918">
        <ele>1300.8</ele>
        <time>2017-05-20T13:31:52Z</time>
      </trkpt>
      <trkpt lat="42.49103" lon="2.23926">
        <ele>1301.28</ele>
        <time>2017-05-20T13:32:06Z</time>
      </trkpt>
      <trkpt lat="42.49102" lon="2.23924">
        <ele>1302.24</ele>
        <time>2017-05-20T13:32:17Z</time>
      </trkpt>
      <trkpt lat="42.49096" lon="2.23927">
        <ele>1302.72</ele>
        <time>2017-05-20T13:32:31Z</time>
      </trkpt>
      <trkpt lat="42.4909" lon="2.23935">
        <ele>1304.17</ele>
        <time>2017-05-20T13:32:41Z</time>
      </trkpt>
      <trkpt lat="42.49086" lon="2.23944">
        <ele>1305.61</ele>
        <time>2017-05-20T13:32:54Z</time>
      </trkpt>
      <trkpt lat="42.49082" lon="2.23949">
        <ele>1306.09</ele>
        <time>2017-05-20T13:33:05Z</time>
      </trkpt>
      <trkpt lat="42.49076" lon="2.23951">
        <ele>1307.53</ele>
        <time>2017-05-20T13:33:13Z</time>
      </trkpt>
      <trkpt lat="42.49069" lon="2.23957">
        <ele>1309.45</ele>
        <time>2017-05-20T13:33:25Z</time>
      </trkpt>
      <trkpt lat="42.49064" lon="2.23962">
        <ele>1310.41</ele>
        <time>2017-05-20T13:33:37Z</time>
      </trkpt>
      <trkpt lat="42.49057" lon="2.23965">
        <ele>1311.86</ele>
        <time>2017-05-20T13:33:47Z</time>
      </trkpt>
      <trkpt lat="42.49051" lon="2.23969">
        <ele>1313.3</ele>
        <time>2017-05-20T13:33:57Z</time>
      </trkpt>
      <trkpt lat="42.49039" lon="2.2397">
        <ele>1315.22</ele>
        <time>2017-05-20T13:34:09Z</time>
      </trkpt>
      <trkpt lat="42.49029" lon="2.23969">
        <ele>1316.18</ele>
        <time>2017-05-20T13:34:20Z</time>
      </trkpt>
      <trkpt lat="42.49023" lon="2.23968">
        <ele>1317.62</ele>
        <time>2017-05-20T13:34:29Z</time>
      </trkpt>
      <trkpt lat="42.49018" lon="2.2397">
        <ele>1319.07</ele>
        <time>2017-05-20T13:34:38Z</time>
      </trkpt>
      <trkpt lat="42.49011" lon="2.23969">
        <ele>1320.03</ele>
        <time>2017-05-20T13:34:49Z</time>
      </trkpt>
      <trkpt lat="42.49005" lon="2.23965">
        <ele>1320.99</ele>
        <time>2017-05-20T13:34:58Z</time>
      </trkpt>
      <trkpt lat="42.48997" lon="2.23955">
        <ele>1322.43</ele>
        <time>2017-05-20T13:35:09Z</time>
      </trkpt>
      <trkpt lat="42.48989" lon="2.23948">
        <ele>1324.35</ele>
        <time>2017-05-20T13:35:20Z</time>
      </trkpt>
      <trkpt lat="42.48982" lon="2.23943">
        <ele>1325.31</ele>
        <time>2017-05-20T13:35:29Z</time>
      </trkpt>
      <trkpt lat="42.48973" lon="2.23936">
        <ele>1326.76</ele>
        <time>2017-05-20T13:35:43Z</time>
      </trkpt>
      <trkpt lat="42.48966" lon="2.23934">
        <ele>1327.24</ele>
        <time>2017-05-20T13:35:53Z</time>
      </trkpt>
      <trkpt lat="42.48959" lon="2.23931">
        <ele>1329.16</ele>
        <time>2017-05-20T13:36:02Z</time>
      </trkpt>
      <trkpt lat="42.48949" lon="2.23932">
        <ele>1330.12</ele>
        <time>2017-05-20T13:36:11Z</time>
      </trkpt>
      <trkpt lat="42.48943" lon="2.2393">
        <ele>1330.6</ele>
        <time>2017-05-20T13:36:19Z</time>
      </trkpt>
      <trkpt lat="42.48937" lon="2.23929">
        <ele>1331.56</ele>
        <time>2017-05-20T13:36:30Z</time>
      </trkpt>
      <trkpt lat="42.48927" lon="2.23932">
        <ele>1332.52</ele>
        <time>2017-05-20T13:36:43Z</time>
      </trkpt>
      <trkpt lat="42.48926" lon="2.23924">
        <ele>1333.49</ele>
        <time>2017-05-20T13:36:52Z</time>
      </trkpt>
      <trkpt lat="42.48922" lon="2.23915">
        <ele>1333.97</ele>
        <time>2017-05-20T13:37:06Z</time>
      </trkpt>
      <trkpt lat="42.48924" lon="2.23907">
        <ele>1334.45</ele>
        <time>2017-05-20T13:37:19Z</time>
      </trkpt>
      <trkpt lat="42.48924" lon="2.23904">
        <ele>1334.93</ele>
        <time>2017-05-20T13:37:29Z</time>
      </trkpt>
      <trkpt lat="42.48923" lon="2.239">
        <ele>1336.37</ele>
        <time>2017-05-20T13:37:38Z</time>
      </trkpt>
      <trkpt lat="42.48921" lon="2.23891">
        <ele>1337.33</ele>
        <time>2017-05-20T13:37:48Z</time>
      </trkpt>
      <trkpt lat="42.48917" lon="2.23885">
        <ele>1338.77</ele>
        <time>2017-05-20T13:37:58Z</time>
      </trkpt>
      <trkpt lat="42.48908" lon="2.23883">
        <ele>1340.22</ele>
        <time>2017-05-20T13:38:09Z</time>
      </trkpt>
      <trkpt lat="42.48904" lon="2.23877">
        <ele>1341.66</ele>
        <time>2017-05-20T13:38:19Z</time>
      </trkpt>
      <trkpt lat="42.48895" lon="2.23869">
        <ele>1343.1</ele>
        <time>2017-05-20T13:38:33Z</time>
      </trkpt>
      <trkpt lat="42.48889" lon="2.23865">
        <ele>1343.58</ele>
        <time>2017-05-20T13:38:42Z</time>
      </trkpt>
      <trkpt lat="42.48887" lon="2.23857">
        <ele>1345.5</ele>
        <time>2017-05-20T13:38:56Z</time>
      </trkpt>
      <trkpt lat="42.48884" lon="2.23854">
        <ele>1346.46</ele>
        <time>2017-05-20T13:39:07Z</time>
      </trkpt>
      <trkpt lat="42.48881" lon="2.23855">
        <ele>1347.43</ele>
        <time>2017-05-20T13:39:17Z</time>
      </trkpt>
      <trkpt lat="42.48878" lon="2.23847">
        <ele>1347.91</ele>
        <time>2017-05-20T13:39:27Z</time>
      </trkpt>
      <trkpt lat="42.48875" lon="2.23839">
        <ele>1348.39</ele>
        <time>2017-05-20T13:39:37Z</time>
      </trkpt>
      <trkpt lat="42.48868" lon="2.23834">
        <ele>1349.35</ele>
        <time>2017-05-20T13:39:49Z</time>
      </trkpt>
      <trkpt lat="42.48861" lon="2.23829">
        <ele>1350.31</ele>
        <time>2017-05-20T13:40:02Z</time>
      </trkpt>
      <trkpt lat="42.48854" lon="2.23827">
        <ele>1352.23</ele>
        <time>2017-05-20T13:40:15Z</time>
      </trkpt>
      <trkpt lat="42.48851" lon="2.23823">
        <ele>1352.23</ele>
        <time>2017-05-20T13:40:24Z</time>
      </trkpt>
      <trkpt lat="42.48848" lon="2.23817">
        <ele>1353.19</ele>
        <time>2017-05-20T13:40:35Z</time>
      </trkpt>
      <trkpt lat="42.48843" lon="2.23814">
        <ele>1353.19</ele>
        <time>2017-05-20T13:40:48Z</time>
      </trkpt>
      <trkpt lat="42.48839" lon="2.23809">
        <ele>1354.63</ele>
        <time>2017-05-20T13:41:00Z</time>
      </trkpt>
      <trkpt lat="42.48836" lon="2.23804">
        <ele>1356.08</ele>
        <time>2017-05-20T13:41:12Z</time>
      </trkpt>
      <trkpt lat="42.48832" lon="2.23803">
        <ele>1356.56</ele>
        <time>2017-05-20T13:41:25Z</time>
      </trkpt>
      <trkpt lat="42.48825" lon="2.23802">
        <ele>1357.52</ele>
        <time>2017-05-20T13:41:37Z</time>
      </trkpt>
      <trkpt lat="42.48821" lon="2.23803">
        <ele>1357.52</ele>
        <time>2017-05-20T13:41:54Z</time>
      </trkpt>
      <trkpt lat="42.48813" lon="2.23807">
        <ele>1357.52</ele>
        <time>2017-05-20T13:42:06Z</time>
      </trkpt>
      <trkpt lat="42.48809" lon="2.23806">
        <ele>1358.96</ele>
        <time>2017-05-20T13:42:14Z</time>
      </trkpt>
      <trkpt lat="42.48805" lon="2.23802">
        <ele>1360.4</ele>
        <time>2017-05-20T13:42:23Z</time>
      </trkpt>
      <trkpt lat="42.48793" lon="2.23796">
        <ele>1361.36</ele>
        <time>2017-05-20T13:42:35Z</time>
      </trkpt>
      <trkpt lat="42.48787" lon="2.23792">
        <ele>1362.81</ele>
        <time>2017-05-20T13:42:46Z</time>
      </trkpt>
      <trkpt lat="42.48778" lon="2.23793">
        <ele>1363.77</ele>
        <time>2017-05-20T13:42:58Z</time>
      </trkpt>
      <trkpt lat="42.48775" lon="2.23793">
        <ele>1365.69</ele>
        <time>2017-05-20T13:43:08Z</time>
      </trkpt>
      <trkpt lat="42.4877" lon="2.23793">
        <ele>1366.17</ele>
        <time>2017-05-20T13:43:19Z</time>
      </trkpt>
      <trkpt lat="42.48761" lon="2.23793">
        <ele>1368.09</ele>
        <time>2017-05-20T13:43:31Z</time>
      </trkpt>
      <trkpt lat="42.48757" lon="2.23797">
        <ele>1369.05</ele>
        <time>2017-05-20T13:43:42Z</time>
      </trkpt>
      <trkpt lat="42.48752" lon="2.23801">
        <ele>1370.02</ele>
        <time>2017-05-20T13:43:52Z</time>
      </trkpt>
      <trkpt lat="42.48745" lon="2.23803">
        <ele>1371.94</ele>
        <time>2017-05-20T13:44:04Z</time>
      </trkpt>
      <trkpt lat="42.48741" lon="2.23806">
        <ele>1372.42</ele>
        <time>2017-05-20T13:44:11Z</time>
      </trkpt>
      <trkpt lat="42.48736" lon="2.23812">
        <ele>1373.86</ele>
        <time>2017-05-20T13:44:23Z</time>
      </trkpt>
      <trkpt lat="42.4873" lon="2.23816">
        <ele>1375.3</ele>
        <time>2017-05-20T13:44:35Z</time>
      </trkpt>
      <trkpt lat="42.48726" lon="2.23818">
        <ele>1376.26</ele>
        <time>2017-05-20T13:44:44Z</time>
      </trkpt>
      <trkpt lat="42.48721" lon="2.23822">
        <ele>1376.75</ele>
        <time>2017-05-20T13:44:53Z</time>
      </trkpt>
      <trkpt lat="42.48713" lon="2.23824">
        <ele>1378.19</ele>
        <time>2017-05-20T13:45:07Z</time>
      </trkpt>
      <trkpt lat="42.48707" lon="2.2382">
        <ele>1379.63</ele>
        <time>2017-05-20T13:45:19Z</time>
      </trkpt>
      <trkpt lat="42.48703" lon="2.23822">
        <ele>1380.11</ele>
        <time>2017-05-20T13:45:31Z</time>
      </trkpt>
      <trkpt lat="42.487" lon="2.23817">
        <ele>1380.59</ele>
        <time>2017-05-20T13:45:45Z</time>
      </trkpt>
      <trkpt lat="42.48696" lon="2.23821">
        <ele>1380.59</ele>
        <time>2017-05-20T13:46:05Z</time>
      </trkpt>
      <trkpt lat="42.48701" lon="2.2383">
        <ele>1380.59</ele>
        <time>2017-05-20T13:46:21Z</time>
      </trkpt>
      <trkpt lat="42.487" lon="2.23824">
        <ele>1380.59</ele>
        <time>2017-05-20T13:46:39Z</time>
      </trkpt>
      <trkpt lat="42.48698" lon="2.23825">
        <ele>1380.59</ele>
        <time>2017-05-20T13:47:00Z</time>
      </trkpt>
      <trkpt lat="42.48701" lon="2.23825">
        <ele>1381.07</ele>
        <time>2017-05-20T13:47:15Z</time>
      </trkpt>
      <trkpt lat="42.487" lon="2.23828">
        <ele>1381.07</ele>
        <time>2017-05-20T13:47:35Z</time>
      </trkpt>
      <trkpt lat="42.48704" lon="2.2382">
        <ele>1382.03</ele>
        <time>2017-05-20T13:47:51Z</time>
      </trkpt>
      <trkpt lat="42.48698" lon="2.23819">
        <ele>1382.03</ele>
        <time>2017-05-20T13:48:07Z</time>
      </trkpt>
      <trkpt lat="42.48692" lon="2.23823">
        <ele>1382.99</ele>
        <time>2017-05-20T13:48:18Z</time>
      </trkpt>
      <trkpt lat="42.48683" lon="2.23826">
        <ele>1384.92</ele>
        <time>2017-05-20T13:48:31Z</time>
      </trkpt>
      <trkpt lat="42.48678" lon="2.23827">
        <ele>1384.92</ele>
        <time>2017-05-20T13:48:48Z</time>
      </trkpt>
      <trkpt lat="42.48683" lon="2.2383">
        <ele>1384.92</ele>
        <time>2017-05-20T13:49:05Z</time>
      </trkpt>
      <trkpt lat="42.48682" lon="2.2383">
        <ele>1385.4</ele>
        <time>2017-05-20T13:49:25Z</time>
      </trkpt>
      <trkpt lat="42.48679" lon="2.23833">
        <ele>1385.4</ele>
        <time>2017-05-20T13:49:49Z</time>
      </trkpt>
      <trkpt lat="42.48682" lon="2.23829">
        <ele>1385.4</ele>
        <time>2017-05-20T13:50:04Z</time>
      </trkpt>
      <trkpt lat="42.48683" lon="2.2383">
        <ele>1385.88</ele>
        <time>2017-05-20T13:50:26Z</time>
      </trkpt>
      <trkpt lat="42.4868" lon="2.23833">
        <ele>1385.88</ele>
        <time>2017-05-20T13:50:43Z</time>
      </trkpt>
      <trkpt lat="42.48675" lon="2.23835">
        <ele>1386.36</ele>
        <time>2017-05-20T13:50:57Z</time>
      </trkpt>
      <trkpt lat="42.48665" lon="2.23831">
        <ele>1388.28</ele>
        <time>2017-05-20T13:51:09Z</time>
      </trkpt>
      <trkpt lat="42.48659" lon="2.23828">
        <ele>1389.72</ele>
        <time>2017-05-20T13:51:19Z</time>
      </trkpt>
      <trkpt lat="42.48654" lon="2.23825">
        <ele>1390.68</ele>
        <time>2017-05-20T13:51:30Z</time>
      </trkpt>
      <trkpt lat="42.48653" lon="2.23826">
        <ele>1390.68</ele>
        <time>2017-05-20T13:51:48Z</time>
      </trkpt>
      <trkpt lat="42.48645" lon="2.2383">
        <ele>1390.68</ele>
        <time>2017-05-20T13:52:20Z</time>
      </trkpt>
      <trkpt lat="42.48643" lon="2.23824">
        <ele>1391.17</ele>
        <time>2017-05-20T13:52:32Z</time>
      </trkpt>
      <trkpt lat="42.48639" lon="2.2382">
        <ele>1392.61</ele>
        <time>2017-05-20T13:52:43Z</time>
      </trkpt>
      <trkpt lat="42.48632" lon="2.23813">
        <ele>1393.57</ele>
        <time>2017-05-20T13:52:52Z</time>
      </trkpt>
      <trkpt lat="42.48625" lon="2.23809">
        <ele>1395.01</ele>
        <time>2017-05-20T13:53:02Z</time>
      </trkpt>
      <trkpt lat="42.48619" lon="2.2381">
        <ele>1396.45</ele>
        <time>2017-05-20T13:53:11Z</time>
      </trkpt>
      <trkpt lat="42.48609" lon="2.23811">
        <ele>1398.86</ele>
        <time>2017-05-20T13:53:23Z</time>
      </trkpt>
      <trkpt lat="42.48603" lon="2.23813">
        <ele>1399.34</ele>
        <time>2017-05-20T13:53:32Z</time>
      </trkpt>
      <trkpt lat="42.48598" lon="2.23815">
        <ele>1400.78</ele>
        <time>2017-05-20T13:53:42Z</time>
      </trkpt>
      <trkpt lat="42.4859" lon="2.23818">
        <ele>1402.22</ele>
        <time>2017-05-20T13:53:54Z</time>
      </trkpt>
      <trkpt lat="42.48584" lon="2.2382">
        <ele>1404.14</ele>
        <time>2017-05-20T13:54:06Z</time>
      </trkpt>
      <trkpt lat="42.4858" lon="2.23819">
        <ele>1405.58</ele>
        <time>2017-05-20T13:54:19Z</time>
      </trkpt>
      <trkpt lat="42.48571" lon="2.23819">
        <ele>1407.03</ele>
        <time>2017-05-20T13:54:33Z</time>
      </trkpt>
      <trkpt lat="42.48563" lon="2.2382">
        <ele>1407.99</ele>
        <time>2017-05-20T13:54:44Z</time>
      </trkpt>
      <trkpt lat="42.48561" lon="2.23821">
        <ele>1407.99</ele>
        <time>2017-05-20T13:55:02Z</time>
      </trkpt>
      <trkpt lat="42.4856" lon="2.23825">
        <ele>1407.99</ele>
        <time>2017-05-20T13:55:22Z</time>
      </trkpt>
      <trkpt lat="42.4856" lon="2.23829">
        <ele>1408.47</ele>
        <time>2017-05-20T13:55:39Z</time>
      </trkpt>
      <trkpt lat="42.48552" lon="2.23823">
        <ele>1409.91</ele>
        <time>2017-05-20T13:55:50Z</time>
      </trkpt>
      <trkpt lat="42.48551" lon="2.23819">
        <ele>1411.35</ele>
        <time>2017-05-20T13:56:08Z</time>
      </trkpt>
      <trkpt lat="42.48545" lon="2.23827">
        <ele>1411.35</ele>
        <time>2017-05-20T13:56:30Z</time>
      </trkpt>
      <trkpt lat="42.48548" lon="2.23827">
        <ele>1411.35</ele>
        <time>2017-05-20T13:56:47Z</time>
      </trkpt>
      <trkpt lat="42.48538" lon="2.23825">
        <ele>1412.79</ele>
        <time>2017-05-20T13:56:59Z</time>
      </trkpt>
      <trkpt lat="42.48527" lon="2.23828">
        <ele>1414.72</ele>
        <time>2017-05-20T13:57:10Z</time>
      </trkpt>
      <trkpt lat="42.48521" lon="2.23829">
        <ele>1416.16</ele>
        <time>2017-05-20T13:57:22Z</time>
      </trkpt>
      <trkpt lat="42.48516" lon="2.23833">
        <ele>1417.12</ele>
        <time>2017-05-20T13:57:34Z</time>
      </trkpt>
      <trkpt lat="42.48511" lon="2.23836">
        <ele>1418.56</ele>
        <time>2017-05-20T13:57:44Z</time>
      </trkpt>
      <trkpt lat="42.48508" lon="2.23834">
        <ele>1420</ele>
        <time>2017-05-20T13:57:55Z</time>
      </trkpt>
      <trkpt lat="42.4851" lon="2.23826">
        <ele>1421.45</ele>
        <time>2017-05-20T13:58:11Z</time>
      </trkpt>
      <trkpt lat="42.48514" lon="2.23825">
        <ele>1423.37</ele>
        <time>2017-05-20T13:58:23Z</time>
      </trkpt>
      <trkpt lat="42.48516" lon="2.23822">
        <ele>1423.37</ele>
        <time>2017-05-20T13:58:33Z</time>
      </trkpt>
      <trkpt lat="42.48519" lon="2.23815">
        <ele>1423.85</ele>
        <time>2017-05-20T13:58:44Z</time>
      </trkpt>
      <trkpt lat="42.48523" lon="2.23809">
        <ele>1423.85</ele>
        <time>2017-05-20T13:58:53Z</time>
      </trkpt>
      <trkpt lat="42.48529" lon="2.23806">
        <ele>1423.85</ele>
        <time>2017-05-20T13:59:05Z</time>
      </trkpt>
      <trkpt lat="42.48532" lon="2.23804">
        <ele>1423.85</ele>
        <time>2017-05-20T13:59:16Z</time>
      </trkpt>
      <trkpt lat="42.48544" lon="2.23808">
        <ele>1424.33</ele>
        <time>2017-05-20T13:59:46Z</time>
      </trkpt>
      <trkpt lat="42.48543" lon="2.23808">
        <ele>1424.81</ele>
        <time>2017-05-20T14:00:00Z</time>
      </trkpt>
      <trkpt lat="42.48542" lon="2.2381">
        <ele>1424.81</ele>
        <time>2017-05-20T14:00:21Z</time>
      </trkpt>
      <trkpt lat="42.48539" lon="2.23806">
        <ele>1424.81</ele>
        <time>2017-05-20T14:00:31Z</time>
      </trkpt>
      <trkpt lat="42.48528" lon="2.2381">
        <ele>1424.81</ele>
        <time>2017-05-20T14:00:41Z</time>
      </trkpt>
      <trkpt lat="42.48516" lon="2.2382">
        <ele>1424.81</ele>
        <time>2017-05-20T14:00:51Z</time>
      </trkpt>
      <trkpt lat="42.48511" lon="2.23824">
        <ele>1424.81</ele>
        <time>2017-05-20T14:01:03Z</time>
      </trkpt>
      <trkpt lat="42.48511" lon="2.23826">
        <ele>1424.81</ele>
        <time>2017-05-20T14:01:19Z</time>
      </trkpt>
      <trkpt lat="42.48512" lon="2.23823">
        <ele>1424.81</ele>
        <time>2017-05-20T14:01:44Z</time>
      </trkpt>
      <trkpt lat="42.48507" lon="2.23816">
        <ele>1424.81</ele>
        <time>2017-05-20T14:02:13Z</time>
      </trkpt>
      <trkpt lat="42.4851" lon="2.23816">
        <ele>1424.81</ele>
        <time>2017-05-20T14:02:34Z</time>
      </trkpt>
      <trkpt lat="42.48512" lon="2.23822">
        <ele>1424.81</ele>
        <time>2017-05-20T14:02:54Z</time>
      </trkpt>
      <trkpt lat="42.48507" lon="2.23827">
        <ele>1422.89</ele>
        <time>2017-05-20T14:03:04Z</time>
      </trkpt>
      <trkpt lat="42.48507" lon="2.23838">
        <ele>1421.45</ele>
        <time>2017-05-20T14:03:19Z</time>
      </trkpt>
      <trkpt lat="42.48507" lon="2.23841">
        <ele>1420.49</ele>
        <time>2017-05-20T14:03:31Z</time>
      </trkpt>
      <trkpt lat="42.48499" lon="2.23835">
        <ele>1420.49</ele>
        <time>2017-05-20T14:03:53Z</time>
      </trkpt>
      <trkpt lat="42.48504" lon="2.23841">
        <ele>1420</ele>
        <time>2017-05-20T14:04:18Z</time>
      </trkpt>
      <trkpt lat="42.48511" lon="2.23839">
        <ele>1420.49</ele>
        <time>2017-05-20T14:04:43Z</time>
      </trkpt>
      <trkpt lat="42.48509" lon="2.23837">
        <ele>1420.49</ele>
        <time>2017-05-20T14:05:05Z</time>
      </trkpt>
      <trkpt lat="42.48509" lon="2.23832">
        <ele>1420.49</ele>
        <time>2017-05-20T14:05:31Z</time>
      </trkpt>
      <trkpt lat="42.48502" lon="2.23833">
        <ele>1420.97</ele>
        <time>2017-05-20T14:05:54Z</time>
      </trkpt>
      <trkpt lat="42.48506" lon="2.2384">
        <ele>1420.97</ele>
        <time>2017-05-20T14:06:19Z</time>
      </trkpt>
      <trkpt lat="42.4851" lon="2.23844">
        <ele>1421.45</ele>
        <time>2017-05-20T14:06:44Z</time>
      </trkpt>
      <trkpt lat="42.4851" lon="2.23847">
        <ele>1421.45</ele>
        <time>2017-05-20T14:07:09Z</time>
      </trkpt>
      <trkpt lat="42.48501" lon="2.23841">
        <ele>1421.93</ele>
        <time>2017-05-20T14:07:34Z</time>
      </trkpt>
      <trkpt lat="42.48503" lon="2.23843">
        <ele>1421.93</ele>
        <time>2017-05-20T14:07:51Z</time>
      </trkpt>
      <trkpt lat="42.485" lon="2.23845">
        <ele>1422.41</ele>
        <time>2017-05-20T14:08:10Z</time>
      </trkpt>
      <trkpt lat="42.48497" lon="2.23846">
        <ele>1423.85</ele>
        <time>2017-05-20T14:08:25Z</time>
      </trkpt>
      <trkpt lat="42.48494" lon="2.23848">
        <ele>1424.33</ele>
        <time>2017-05-20T14:08:36Z</time>
      </trkpt>
      <trkpt lat="42.48487" lon="2.23852">
        <ele>1426.73</ele>
        <time>2017-05-20T14:08:47Z</time>
      </trkpt>
      <trkpt lat="42.48479" lon="2.23853">
        <ele>1428.18</ele>
        <time>2017-05-20T14:08:57Z</time>
      </trkpt>
      <trkpt lat="42.48471" lon="2.23859">
        <ele>1430.1</ele>
        <time>2017-05-20T14:09:09Z</time>
      </trkpt>
      <trkpt lat="42.48469" lon="2.23863">
        <ele>1432.02</ele>
        <time>2017-05-20T14:09:19Z</time>
      </trkpt>
      <trkpt lat="42.48459" lon="2.23867">
        <ele>1432.98</ele>
        <time>2017-05-20T14:09:32Z</time>
      </trkpt>
      <trkpt lat="42.48452" lon="2.23868">
        <ele>1434.91</ele>
        <time>2017-05-20T14:09:42Z</time>
      </trkpt>
      <trkpt lat="42.48447" lon="2.23871">
        <ele>1435.87</ele>
        <time>2017-05-20T14:09:53Z</time>
      </trkpt>
      <trkpt lat="42.4844" lon="2.23874">
        <ele>1437.31</ele>
        <time>2017-05-20T14:10:05Z</time>
      </trkpt>
      <trkpt lat="42.48432" lon="2.23878">
        <ele>1439.23</ele>
        <time>2017-05-20T14:10:18Z</time>
      </trkpt>
      <trkpt lat="42.48427" lon="2.23881">
        <ele>1440.19</ele>
        <time>2017-05-20T14:10:28Z</time>
      </trkpt>
      <trkpt lat="42.48421" lon="2.23885">
        <ele>1441.63</ele>
        <time>2017-05-20T14:10:40Z</time>
      </trkpt>
      <trkpt lat="42.48413" lon="2.23885">
        <ele>1443.08</ele>
        <time>2017-05-20T14:10:53Z</time>
      </trkpt>
      <trkpt lat="42.48406" lon="2.23886">
        <ele>1444.04</ele>
        <time>2017-05-20T14:11:03Z</time>
      </trkpt>
      <trkpt lat="42.484" lon="2.23887">
        <ele>1445.48</ele>
        <time>2017-05-20T14:11:14Z</time>
      </trkpt>
      <trkpt lat="42.48396" lon="2.23885">
        <ele>1446.92</ele>
        <time>2017-05-20T14:11:23Z</time>
      </trkpt>
      <trkpt lat="42.48387" lon="2.23885">
        <ele>1448.36</ele>
        <time>2017-05-20T14:11:37Z</time>
      </trkpt>
      <trkpt lat="42.48381" lon="2.23886">
        <ele>1449.81</ele>
        <time>2017-05-20T14:11:48Z</time>
      </trkpt>
      <trkpt lat="42.48366" lon="2.23895">
        <ele>1451.73</ele>
        <time>2017-05-20T14:12:01Z</time>
      </trkpt>
      <trkpt lat="42.4836" lon="2.23896">
        <ele>1452.69</ele>
        <time>2017-05-20T14:12:13Z</time>
      </trkpt>
      <trkpt lat="42.48356" lon="2.23896">
        <ele>1454.13</ele>
        <time>2017-05-20T14:12:25Z</time>
      </trkpt>
      <trkpt lat="42.4835" lon="2.23898">
        <ele>1455.09</ele>
        <time>2017-05-20T14:12:37Z</time>
      </trkpt>
      <trkpt lat="42.48348" lon="2.23899">
        <ele>1455.57</ele>
        <time>2017-05-20T14:12:56Z</time>
      </trkpt>
      <trkpt lat="42.48347" lon="2.23892">
        <ele>1455.57</ele>
        <time>2017-05-20T14:13:10Z</time>
      </trkpt>
      <trkpt lat="42.48347" lon="2.23894">
        <ele>1456.05</ele>
        <time>2017-05-20T14:13:22Z</time>
      </trkpt>
      <trkpt lat="42.48349" lon="2.23893">
        <ele>1456.05</ele>
        <time>2017-05-20T14:13:43Z</time>
      </trkpt>
      <trkpt lat="42.48347" lon="2.23891">
        <ele>1456.05</ele>
        <time>2017-05-20T14:13:57Z</time>
      </trkpt>
      <trkpt lat="42.48341" lon="2.23897">
        <ele>1457.02</ele>
        <time>2017-05-20T14:14:06Z</time>
      </trkpt>
      <trkpt lat="42.48334" lon="2.23901">
        <ele>1458.46</ele>
        <time>2017-05-20T14:14:16Z</time>
      </trkpt>
      <trkpt lat="42.48329" lon="2.23907">
        <ele>1458.94</ele>
        <time>2017-05-20T14:14:29Z</time>
      </trkpt>
      <trkpt lat="42.48324" lon="2.23912">
        <ele>1460.86</ele>
        <time>2017-05-20T14:14:39Z</time>
      </trkpt>
      <trkpt lat="42.48317" lon="2.2392">
        <ele>1461.82</ele>
        <time>2017-05-20T14:14:51Z</time>
      </trkpt>
      <trkpt lat="42.48311" lon="2.23926">
        <ele>1463.74</ele>
        <time>2017-05-20T14:15:02Z</time>
      </trkpt>
      <trkpt lat="42.48305" lon="2.23932">
        <ele>1465.19</ele>
        <time>2017-05-20T14:15:14Z</time>
      </trkpt>
      <trkpt lat="42.48299" lon="2.23938">
        <ele>1466.15</ele>
        <time>2017-05-20T14:15:24Z</time>
      </trkpt>
      <trkpt lat="42.48293" lon="2.2394">
        <ele>1467.59</ele>
        <time>2017-05-20T14:15:33Z</time>
      </trkpt>
      <trkpt lat="42.48287" lon="2.2394">
        <ele>1469.03</ele>
        <time>2017-05-20T14:15:42Z</time>
      </trkpt>
      <trkpt lat="42.48278" lon="2.23942">
        <ele>1470.47</ele>
        <time>2017-05-20T14:15:54Z</time>
      </trkpt>
      <trkpt lat="42.48266" lon="2.23946">
        <ele>1472.4</ele>
        <time>2017-05-20T14:16:08Z</time>
      </trkpt>
      <trkpt lat="42.48257" lon="2.23948">
        <ele>1473.84</ele>
        <time>2017-05-20T14:16:20Z</time>
      </trkpt>
      <trkpt lat="42.4825" lon="2.23949">
        <ele>1475.76</ele>
        <time>2017-05-20T14:16:32Z</time>
      </trkpt>
      <trkpt lat="42.48243" lon="2.23946">
        <ele>1477.2</ele>
        <time>2017-05-20T14:16:44Z</time>
      </trkpt>
      <trkpt lat="42.48236" lon="2.23944">
        <ele>1478.65</ele>
        <time>2017-05-20T14:16:56Z</time>
      </trkpt>
      <trkpt lat="42.4823" lon="2.23942">
        <ele>1480.57</ele>
        <time>2017-05-20T14:17:07Z</time>
      </trkpt>
      <trkpt lat="42.48222" lon="2.23941">
        <ele>1481.53</ele>
        <time>2017-05-20T14:17:21Z</time>
      </trkpt>
      <trkpt lat="42.48215" lon="2.23941">
        <ele>1482.97</ele>
        <time>2017-05-20T14:17:31Z</time>
      </trkpt>
      <trkpt lat="42.48208" lon="2.23944">
        <ele>1484.41</ele>
        <time>2017-05-20T14:17:43Z</time>
      </trkpt>
      <trkpt lat="42.48202" lon="2.23942">
        <ele>1485.85</ele>
        <time>2017-05-20T14:17:54Z</time>
      </trkpt>
      <trkpt lat="42.48193" lon="2.2394">
        <ele>1486.34</ele>
        <time>2017-05-20T14:18:04Z</time>
      </trkpt>
      <trkpt lat="42.48186" lon="2.23937">
        <ele>1487.3</ele>
        <time>2017-05-20T14:18:14Z</time>
      </trkpt>
      <trkpt lat="42.48176" lon="2.23936">
        <ele>1488.26</ele>
        <time>2017-05-20T14:18:27Z</time>
      </trkpt>
      <trkpt lat="42.48169" lon="2.23934">
        <ele>1490.18</ele>
        <time>2017-05-20T14:18:39Z</time>
      </trkpt>
      <trkpt lat="42.48162" lon="2.23933">
        <ele>1492.1</ele>
        <time>2017-05-20T14:18:51Z</time>
      </trkpt>
      <trkpt lat="42.48154" lon="2.23933">
        <ele>1493.55</ele>
        <time>2017-05-20T14:19:03Z</time>
      </trkpt>
      <trkpt lat="42.48146" lon="2.23934">
        <ele>1494.99</ele>
        <time>2017-05-20T14:19:13Z</time>
      </trkpt>
      <trkpt lat="42.48137" lon="2.23933">
        <ele>1495.95</ele>
        <time>2017-05-20T14:19:25Z</time>
      </trkpt>
      <trkpt lat="42.4813" lon="2.23936">
        <ele>1496.91</ele>
        <time>2017-05-20T14:19:36Z</time>
      </trkpt>
      <trkpt lat="42.48119" lon="2.23941">
        <ele>1498.35</ele>
        <time>2017-05-20T14:19:48Z</time>
      </trkpt>
      <trkpt lat="42.48113" lon="2.23942">
        <ele>1499.79</ele>
        <time>2017-05-20T14:20:00Z</time>
      </trkpt>
      <trkpt lat="42.48107" lon="2.23944">
        <ele>1500.76</ele>
        <time>2017-05-20T14:20:10Z</time>
      </trkpt>
      <trkpt lat="42.481" lon="2.23943">
        <ele>1501.72</ele>
        <time>2017-05-20T14:20:19Z</time>
      </trkpt>
      <trkpt lat="42.48092" lon="2.23941">
        <ele>1503.64</ele>
        <time>2017-05-20T14:20:30Z</time>
      </trkpt>
      <trkpt lat="42.48086" lon="2.23941">
        <ele>1505.08</ele>
        <time>2017-05-20T14:20:40Z</time>
      </trkpt>
      <trkpt lat="42.48077" lon="2.23943">
        <ele>1507</ele>
        <time>2017-05-20T14:20:52Z</time>
      </trkpt>
      <trkpt lat="42.48071" lon="2.23942">
        <ele>1508.45</ele>
        <time>2017-05-20T14:21:03Z</time>
      </trkpt>
      <trkpt lat="42.48065" lon="2.23944">
        <ele>1509.41</ele>
        <time>2017-05-20T14:21:14Z</time>
      </trkpt>
      <trkpt lat="42.48059" lon="2.23945">
        <ele>1510.85</ele>
        <time>2017-05-20T14:21:25Z</time>
      </trkpt>
      <trkpt lat="42.48052" lon="2.23948">
        <ele>1512.77</ele>
        <time>2017-05-20T14:21:36Z</time>
      </trkpt>
      <trkpt lat="42.48048" lon="2.23951">
        <ele>1513.25</ele>
        <time>2017-05-20T14:21:45Z</time>
      </trkpt>
      <trkpt lat="42.48041" lon="2.23951">
        <ele>1515.18</ele>
        <time>2017-05-20T14:21:58Z</time>
      </trkpt>
      <trkpt lat="42.48034" lon="2.23954">
        <ele>1516.62</ele>
        <time>2017-05-20T14:22:09Z</time>
      </trkpt>
      <trkpt lat="42.48027" lon="2.23954">
        <ele>1517.58</ele>
        <time>2017-05-20T14:22:20Z</time>
      </trkpt>
      <trkpt lat="42.48018" lon="2.23961">
        <ele>1519.02</ele>
        <time>2017-05-20T14:22:33Z</time>
      </trkpt>
      <trkpt lat="42.48012" lon="2.23964">
        <ele>1520.46</ele>
        <time>2017-05-20T14:22:42Z</time>
      </trkpt>
      <trkpt lat="42.48005" lon="2.23964">
        <ele>1521.42</ele>
        <time>2017-05-20T14:22:53Z</time>
      </trkpt>
      <trkpt lat="42.47997" lon="2.23964">
        <ele>1522.87</ele>
        <time>2017-05-20T14:23:05Z</time>
      </trkpt>
      <trkpt lat="42.47991" lon="2.23962">
        <ele>1524.31</ele>
        <time>2017-05-20T14:23:18Z</time>
      </trkpt>
      <trkpt lat="42.47973" lon="2.23964">
        <ele>1525.27</ele>
        <time>2017-05-20T14:23:31Z</time>
      </trkpt>
      <trkpt lat="42.47965" lon="2.2397">
        <ele>1526.23</ele>
        <time>2017-05-20T14:23:42Z</time>
      </trkpt>
      <trkpt lat="42.47959" lon="2.23972">
        <ele>1527.67</ele>
        <time>2017-05-20T14:23:54Z</time>
      </trkpt>
      <trkpt lat="42.47952" lon="2.23973">
        <ele>1528.63</ele>
        <time>2017-05-20T14:24:05Z</time>
      </trkpt>
      <trkpt lat="42.47946" lon="2.23973">
        <ele>1530.08</ele>
        <time>2017-05-20T14:24:15Z</time>
      </trkpt>
      <trkpt lat="42.47939" lon="2.23974">
        <ele>1531.04</ele>
        <time>2017-05-20T14:24:27Z</time>
      </trkpt>
      <trkpt lat="42.47933" lon="2.23973">
        <ele>1532</ele>
        <time>2017-05-20T14:24:43Z</time>
      </trkpt>
      <trkpt lat="42.47927" lon="2.23973">
        <ele>1533.44</ele>
        <time>2017-05-20T14:24:52Z</time>
      </trkpt>
      <trkpt lat="42.47922" lon="2.23975">
        <ele>1533.92</ele>
        <time>2017-05-20T14:25:04Z</time>
      </trkpt>
      <trkpt lat="42.47916" lon="2.23981">
        <ele>1534.4</ele>
        <time>2017-05-20T14:25:15Z</time>
      </trkpt>
      <trkpt lat="42.4791" lon="2.23982">
        <ele>1535.36</ele>
        <time>2017-05-20T14:25:25Z</time>
      </trkpt>
      <trkpt lat="42.47901" lon="2.23983">
        <ele>1536.32</ele>
        <time>2017-05-20T14:25:35Z</time>
      </trkpt>
      <trkpt lat="42.47898" lon="2.23985">
        <ele>1537.77</ele>
        <time>2017-05-20T14:25:47Z</time>
      </trkpt>
      <trkpt lat="42.47891" lon="2.23987">
        <ele>1539.21</ele>
        <time>2017-05-20T14:25:58Z</time>
      </trkpt>
      <trkpt lat="42.47884" lon="2.23989">
        <ele>1541.13</ele>
        <time>2017-05-20T14:26:11Z</time>
      </trkpt>
      <trkpt lat="42.47877" lon="2.23988">
        <ele>1542.57</ele>
        <time>2017-05-20T14:26:23Z</time>
      </trkpt>
      <trkpt lat="42.47871" lon="2.23988">
        <ele>1543.53</ele>
        <time>2017-05-20T14:26:32Z</time>
      </trkpt>
      <trkpt lat="42.47864" lon="2.23987">
        <ele>1545.46</ele>
        <time>2017-05-20T14:26:46Z</time>
      </trkpt>
      <trkpt lat="42.47856" lon="2.23987">
        <ele>1546.42</ele>
        <time>2017-05-20T14:26:56Z</time>
      </trkpt>
      <trkpt lat="42.47849" lon="2.23987">
        <ele>1548.34</ele>
        <time>2017-05-20T14:27:07Z</time>
      </trkpt>
      <trkpt lat="42.47839" lon="2.23987">
        <ele>1549.3</ele>
        <time>2017-05-20T14:27:21Z</time>
      </trkpt>
      <trkpt lat="42.47831" lon="2.23985">
        <ele>1551.22</ele>
        <time>2017-05-20T14:27:33Z</time>
      </trkpt>
      <trkpt lat="42.47824" lon="2.23986">
        <ele>1552.19</ele>
        <time>2017-05-20T14:27:43Z</time>
      </trkpt>
      <trkpt lat="42.47812" lon="2.23995">
        <ele>1553.63</ele>
        <time>2017-05-20T14:27:54Z</time>
      </trkpt>
      <trkpt lat="42.47805" lon="2.23999">
        <ele>1555.07</ele>
        <time>2017-05-20T14:28:05Z</time>
      </trkpt>
      <trkpt lat="42.47797" lon="2.24">
        <ele>1556.99</ele>
        <time>2017-05-20T14:28:17Z</time>
      </trkpt>
      <trkpt lat="42.47788" lon="2.23999">
        <ele>1557.95</ele>
        <time>2017-05-20T14:28:29Z</time>
      </trkpt>
      <trkpt lat="42.47779" lon="2.23997">
        <ele>1560.36</ele>
        <time>2017-05-20T14:28:43Z</time>
      </trkpt>
      <trkpt lat="42.47774" lon="2.23995">
        <ele>1560.36</ele>
        <time>2017-05-20T14:28:57Z</time>
      </trkpt>
      <trkpt lat="42.47769" lon="2.23992">
        <ele>1561.8</ele>
        <time>2017-05-20T14:29:08Z</time>
      </trkpt>
      <trkpt lat="42.47765" lon="2.23992">
        <ele>1562.28</ele>
        <time>2017-05-20T14:29:19Z</time>
      </trkpt>
      <trkpt lat="42.47759" lon="2.23993">
        <ele>1563.72</ele>
        <time>2017-05-20T14:29:29Z</time>
      </trkpt>
      <trkpt lat="42.47751" lon="2.23995">
        <ele>1565.64</ele>
        <time>2017-05-20T14:29:41Z</time>
      </trkpt>
      <trkpt lat="42.47746" lon="2.23996">
        <ele>1566.61</ele>
        <time>2017-05-20T14:29:50Z</time>
      </trkpt>
      <trkpt lat="42.47741" lon="2.23995">
        <ele>1567.57</ele>
        <time>2017-05-20T14:30:00Z</time>
      </trkpt>
      <trkpt lat="42.47729" lon="2.23998">
        <ele>1569.49</ele>
        <time>2017-05-20T14:30:13Z</time>
      </trkpt>
      <trkpt lat="42.47723" lon="2.24">
        <ele>1570.93</ele>
        <time>2017-05-20T14:30:22Z</time>
      </trkpt>
      <trkpt lat="42.47717" lon="2.24002">
        <ele>1572.37</ele>
        <time>2017-05-20T14:30:37Z</time>
      </trkpt>
      <trkpt lat="42.47709" lon="2.24003">
        <ele>1573.82</ele>
        <time>2017-05-20T14:30:48Z</time>
      </trkpt>
      <trkpt lat="42.47701" lon="2.24">
        <ele>1575.26</ele>
        <time>2017-05-20T14:30:59Z</time>
      </trkpt>
      <trkpt lat="42.47693" lon="2.23997">
        <ele>1576.7</ele>
        <time>2017-05-20T14:31:09Z</time>
      </trkpt>
      <trkpt lat="42.47686" lon="2.23995">
        <ele>1578.14</ele>
        <time>2017-05-20T14:31:20Z</time>
      </trkpt>
      <trkpt lat="42.47677" lon="2.23993">
        <ele>1579.58</ele>
        <time>2017-05-20T14:31:33Z</time>
      </trkpt>
      <trkpt lat="42.47668" lon="2.23985">
        <ele>1580.54</ele>
        <time>2017-05-20T14:31:45Z</time>
      </trkpt>
      <trkpt lat="42.47662" lon="2.2398">
        <ele>1581.03</ele>
        <time>2017-05-20T14:31:53Z</time>
      </trkpt>
      <trkpt lat="42.47655" lon="2.23976">
        <ele>1582.47</ele>
        <time>2017-05-20T14:32:04Z</time>
      </trkpt>
      <trkpt lat="42.47649" lon="2.23971">
        <ele>1583.43</ele>
        <time>2017-05-20T14:32:15Z</time>
      </trkpt>
      <trkpt lat="42.4764" lon="2.23968">
        <ele>1584.39</ele>
        <time>2017-05-20T14:32:26Z</time>
      </trkpt>
      <trkpt lat="42.47631" lon="2.23968">
        <ele>1585.35</ele>
        <time>2017-05-20T14:32:36Z</time>
      </trkpt>
      <trkpt lat="42.47624" lon="2.23961">
        <ele>1586.79</ele>
        <time>2017-05-20T14:32:47Z</time>
      </trkpt>
      <trkpt lat="42.47617" lon="2.23959">
        <ele>1587.75</ele>
        <time>2017-05-20T14:32:58Z</time>
      </trkpt>
      <trkpt lat="42.47612" lon="2.23957">
        <ele>1588.24</ele>
        <time>2017-05-20T14:33:08Z</time>
      </trkpt>
      <trkpt lat="42.47605" lon="2.23956">
        <ele>1589.68</ele>
        <time>2017-05-20T14:33:19Z</time>
      </trkpt>
      <trkpt lat="42.47598" lon="2.23954">
        <ele>1591.12</ele>
        <time>2017-05-20T14:33:32Z</time>
      </trkpt>
      <trkpt lat="42.4759" lon="2.23952">
        <ele>1592.56</ele>
        <time>2017-05-20T14:33:44Z</time>
      </trkpt>
      <trkpt lat="42.47584" lon="2.23953">
        <ele>1594.48</ele>
        <time>2017-05-20T14:33:56Z</time>
      </trkpt>
      <trkpt lat="42.47574" lon="2.23959">
        <ele>1594.96</ele>
        <time>2017-05-20T14:34:10Z</time>
      </trkpt>
      <trkpt lat="42.47565" lon="2.23956">
        <ele>1597.37</ele>
        <time>2017-05-20T14:34:25Z</time>
      </trkpt>
      <trkpt lat="42.47558" lon="2.23958">
        <ele>1597.85</ele>
        <time>2017-05-20T14:34:36Z</time>
      </trkpt>
      <trkpt lat="42.47549" lon="2.23958">
        <ele>1598.81</ele>
        <time>2017-05-20T14:34:48Z</time>
      </trkpt>
      <trkpt lat="42.47542" lon="2.2396">
        <ele>1600.25</ele>
        <time>2017-05-20T14:35:00Z</time>
      </trkpt>
      <trkpt lat="42.47534" lon="2.23962">
        <ele>1602.17</ele>
        <time>2017-05-20T14:35:14Z</time>
      </trkpt>
      <trkpt lat="42.47527" lon="2.23961">
        <ele>1603.62</ele>
        <time>2017-05-20T14:35:24Z</time>
      </trkpt>
      <trkpt lat="42.47519" lon="2.23963">
        <ele>1604.58</ele>
        <time>2017-05-20T14:35:33Z</time>
      </trkpt>
      <trkpt lat="42.47512" lon="2.23961">
        <ele>1606.02</ele>
        <time>2017-05-20T14:35:44Z</time>
      </trkpt>
      <trkpt lat="42.47505" lon="2.23959">
        <ele>1606.98</ele>
        <time>2017-05-20T14:35:53Z</time>
      </trkpt>
      <trkpt lat="42.47499" lon="2.23965">
        <ele>1606.98</ele>
        <time>2017-05-20T14:36:10Z</time>
      </trkpt>
      <trkpt lat="42.47491" lon="2.23963">
        <ele>1607.94</ele>
        <time>2017-05-20T14:36:26Z</time>
      </trkpt>
      <trkpt lat="42.47483" lon="2.2396">
        <ele>1609.38</ele>
        <time>2017-05-20T14:36:36Z</time>
      </trkpt>
      <trkpt lat="42.47478" lon="2.23954">
        <ele>1609.86</ele>
        <time>2017-05-20T14:36:47Z</time>
      </trkpt>
      <trkpt lat="42.4747" lon="2.23946">
        <ele>1611.31</ele>
        <time>2017-05-20T14:37:00Z</time>
      </trkpt>
      <trkpt lat="42.47465" lon="2.2394">
        <ele>1613.23</ele>
        <time>2017-05-20T14:37:12Z</time>
      </trkpt>
      <trkpt lat="42.47457" lon="2.23936">
        <ele>1613.71</ele>
        <time>2017-05-20T14:37:22Z</time>
      </trkpt>
      <trkpt lat="42.4745" lon="2.2393">
        <ele>1614.67</ele>
        <time>2017-05-20T14:37:32Z</time>
      </trkpt>
      <trkpt lat="42.47442" lon="2.23922">
        <ele>1616.11</ele>
        <time>2017-05-20T14:37:44Z</time>
      </trkpt>
      <trkpt lat="42.47433" lon="2.2392">
        <ele>1617.56</ele>
        <time>2017-05-20T14:37:55Z</time>
      </trkpt>
      <trkpt lat="42.47424" lon="2.23915">
        <ele>1618.52</ele>
        <time>2017-05-20T14:38:06Z</time>
      </trkpt>
      <trkpt lat="42.47418" lon="2.23912">
        <ele>1619</ele>
        <time>2017-05-20T14:38:15Z</time>
      </trkpt>
      <trkpt lat="42.47411" lon="2.23912">
        <ele>1620.44</ele>
        <time>2017-05-20T14:38:25Z</time>
      </trkpt>
      <trkpt lat="42.47406" lon="2.23908">
        <ele>1620.44</ele>
        <time>2017-05-20T14:38:39Z</time>
      </trkpt>
      <trkpt lat="42.47404" lon="2.23908">
        <ele>1620.44</ele>
        <time>2017-05-20T14:39:00Z</time>
      </trkpt>
      <trkpt lat="42.47405" lon="2.23923">
        <ele>1620.92</ele>
        <time>2017-05-20T14:39:22Z</time>
      </trkpt>
      <trkpt lat="42.47402" lon="2.23922">
        <ele>1620.92</ele>
        <time>2017-05-20T14:39:47Z</time>
      </trkpt>
      <trkpt lat="42.47401" lon="2.23922">
        <ele>1621.4</ele>
        <time>2017-05-20T14:40:16Z</time>
      </trkpt>
      <trkpt lat="42.47401" lon="2.23913">
        <ele>1621.4</ele>
        <time>2017-05-20T14:40:40Z</time>
      </trkpt>
      <trkpt lat="42.474" lon="2.23917">
        <ele>1621.88</ele>
        <time>2017-05-20T14:41:09Z</time>
      </trkpt>
      <trkpt lat="42.47396" lon="2.23915">
        <ele>1622.36</ele>
        <time>2017-05-20T14:41:31Z</time>
      </trkpt>
      <trkpt lat="42.47398" lon="2.23917">
        <ele>1622.84</ele>
        <time>2017-05-20T14:41:52Z</time>
      </trkpt>
      <trkpt lat="42.47397" lon="2.23919">
        <ele>1622.84</ele>
        <time>2017-05-20T14:42:10Z</time>
      </trkpt>
      <trkpt lat="42.47402" lon="2.23916">
        <ele>1623.32</ele>
        <time>2017-05-20T14:42:28Z</time>
      </trkpt>
      <trkpt lat="42.47393" lon="2.23912">
        <ele>1624.28</ele>
        <time>2017-05-20T14:42:39Z</time>
      </trkpt>
      <trkpt lat="42.47384" lon="2.2391">
        <ele>1626.21</ele>
        <time>2017-05-20T14:42:48Z</time>
      </trkpt>
      <trkpt lat="42.47375" lon="2.23906">
        <ele>1628.13</ele>
        <time>2017-05-20T14:43:00Z</time>
      </trkpt>
      <trkpt lat="42.47367" lon="2.23908">
        <ele>1629.57</ele>
        <time>2017-05-20T14:43:10Z</time>
      </trkpt>
      <trkpt lat="42.47357" lon="2.23908">
        <ele>1630.53</ele>
        <time>2017-05-20T14:43:21Z</time>
      </trkpt>
      <trkpt lat="42.47349" lon="2.23903">
        <ele>1631.49</ele>
        <time>2017-05-20T14:43:32Z</time>
      </trkpt>
      <trkpt lat="42.47339" lon="2.23901">
        <ele>1632.94</ele>
        <time>2017-05-20T14:43:44Z</time>
      </trkpt>
      <trkpt lat="42.47332" lon="2.23901">
        <ele>1633.9</ele>
        <time>2017-05-20T14:43:54Z</time>
      </trkpt>
      <trkpt lat="42.47324" lon="2.239">
        <ele>1634.86</ele>
        <time>2017-05-20T14:44:04Z</time>
      </trkpt>
      <trkpt lat="42.47317" lon="2.23894">
        <ele>1635.82</ele>
        <time>2017-05-20T14:44:15Z</time>
      </trkpt>
      <trkpt lat="42.47309" lon="2.23888">
        <ele>1637.26</ele>
        <time>2017-05-20T14:44:25Z</time>
      </trkpt>
      <trkpt lat="42.473" lon="2.23882">
        <ele>1638.7</ele>
        <time>2017-05-20T14:44:37Z</time>
      </trkpt>
      <trkpt lat="42.47292" lon="2.23878">
        <ele>1640.15</ele>
        <time>2017-05-20T14:44:50Z</time>
      </trkpt>
      <trkpt lat="42.47284" lon="2.23878">
        <ele>1641.11</ele>
        <time>2017-05-20T14:45:01Z</time>
      </trkpt>
      <trkpt lat="42.47279" lon="2.23872">
        <ele>1642.07</ele>
        <time>2017-05-20T14:45:12Z</time>
      </trkpt>
      <trkpt lat="42.47272" lon="2.23865">
        <ele>1643.03</ele>
        <time>2017-05-20T14:45:23Z</time>
      </trkpt>
      <trkpt lat="42.47264" lon="2.2386">
        <ele>1643.99</ele>
        <time>2017-05-20T14:45:34Z</time>
      </trkpt>
      <trkpt lat="42.4726" lon="2.23857">
        <ele>1645.43</ele>
        <time>2017-05-20T14:45:44Z</time>
      </trkpt>
      <trkpt lat="42.47254" lon="2.23851">
        <ele>1646.4</ele>
        <time>2017-05-20T14:45:56Z</time>
      </trkpt>
      <trkpt lat="42.4725" lon="2.23844">
        <ele>1646.88</ele>
        <time>2017-05-20T14:46:07Z</time>
      </trkpt>
      <trkpt lat="42.47246" lon="2.23842">
        <ele>1647.36</ele>
        <time>2017-05-20T14:46:22Z</time>
      </trkpt>
      <trkpt lat="42.47245" lon="2.23839">
        <ele>1647.84</ele>
        <time>2017-05-20T14:46:38Z</time>
      </trkpt>
      <trkpt lat="42.47242" lon="2.23838">
        <ele>1647.84</ele>
        <time>2017-05-20T14:46:55Z</time>
      </trkpt>
      <trkpt lat="42.47242" lon="2.23839">
        <ele>1648.32</ele>
        <time>2017-05-20T14:47:11Z</time>
      </trkpt>
      <trkpt lat="42.47245" lon="2.23853">
        <ele>1648.8</ele>
        <time>2017-05-20T14:47:28Z</time>
      </trkpt>
      <trkpt lat="42.47243" lon="2.23849">
        <ele>1650.24</ele>
        <time>2017-05-20T14:48:00Z</time>
      </trkpt>
      <trkpt lat="42.47242" lon="2.23847">
        <ele>1649.76</ele>
        <time>2017-05-20T14:48:16Z</time>
      </trkpt>
      <trkpt lat="42.47241" lon="2.23836">
        <ele>1650.24</ele>
        <time>2017-05-20T14:48:27Z</time>
      </trkpt>
      <trkpt lat="42.47241" lon="2.23836">
        <ele>1650.72</ele>
        <time>2017-05-20T14:48:40Z</time>
      </trkpt>
      <trkpt lat="42.47239" lon="2.23832">
        <ele>1651.68</ele>
        <time>2017-05-20T14:48:59Z</time>
      </trkpt>
      <trkpt lat="42.47237" lon="2.23828">
        <ele>1652.64</ele>
        <time>2017-05-20T14:49:08Z</time>
      </trkpt>
      <trkpt lat="42.47236" lon="2.2382">
        <ele>1654.09</ele>
        <time>2017-05-20T14:49:20Z</time>
      </trkpt>
      <trkpt lat="42.47237" lon="2.23811">
        <ele>1656.49</ele>
        <time>2017-05-20T14:49:32Z</time>
      </trkpt>
      <trkpt lat="42.47231" lon="2.23804">
        <ele>1657.93</ele>
        <time>2017-05-20T14:49:44Z</time>
      </trkpt>
      <trkpt lat="42.47224" lon="2.23797">
        <ele>1658.89</ele>
        <time>2017-05-20T14:49:56Z</time>
      </trkpt>
      <trkpt lat="42.47224" lon="2.23789">
        <ele>1659.85</ele>
        <time>2017-05-20T14:50:08Z</time>
      </trkpt>
      <trkpt lat="42.47224" lon="2.23782">
        <ele>1662.26</ele>
        <time>2017-05-20T14:50:21Z</time>
      </trkpt>
      <trkpt lat="42.47226" lon="2.23776">
        <ele>1664.18</ele>
        <time>2017-05-20T14:50:34Z</time>
      </trkpt>
      <trkpt lat="42.47226" lon="2.23772">
        <ele>1665.14</ele>
        <time>2017-05-20T14:50:43Z</time>
      </trkpt>
      <trkpt lat="42.47227" lon="2.23769">
        <ele>1666.58</ele>
        <time>2017-05-20T14:50:53Z</time>
      </trkpt>
      <trkpt lat="42.47226" lon="2.23765">
        <ele>1668.02</ele>
        <time>2017-05-20T14:51:02Z</time>
      </trkpt>
      <trkpt lat="42.47227" lon="2.23766">
        <ele>1669.47</ele>
        <time>2017-05-20T14:51:13Z</time>
      </trkpt>
      <trkpt lat="42.4723" lon="2.23767">
        <ele>1670.91</ele>
        <time>2017-05-20T14:51:30Z</time>
      </trkpt>
      <trkpt lat="42.4723" lon="2.23765">
        <ele>1672.83</ele>
        <time>2017-05-20T14:51:46Z</time>
      </trkpt>
      <trkpt lat="42.47231" lon="2.23762">
        <ele>1674.27</ele>
        <time>2017-05-20T14:52:00Z</time>
      </trkpt>
      <trkpt lat="42.47234" lon="2.23761">
        <ele>1675.72</ele>
        <time>2017-05-20T14:52:09Z</time>
      </trkpt>
      <trkpt lat="42.47237" lon="2.23755">
        <ele>1677.64</ele>
        <time>2017-05-20T14:52:21Z</time>
      </trkpt>
      <trkpt lat="42.47234" lon="2.23755">
        <ele>1679.08</ele>
        <time>2017-05-20T14:52:34Z</time>
      </trkpt>
      <trkpt lat="42.47232" lon="2.2375">
        <ele>1681</ele>
        <time>2017-05-20T14:52:46Z</time>
      </trkpt>
      <trkpt lat="42.47228" lon="2.23746">
        <ele>1681.48</ele>
        <time>2017-05-20T14:52:58Z</time>
      </trkpt>
      <trkpt lat="42.47227" lon="2.23742">
        <ele>1682.93</ele>
        <time>2017-05-20T14:53:12Z</time>
      </trkpt>
      <trkpt lat="42.47223" lon="2.23735">
        <ele>1684.85</ele>
        <time>2017-05-20T14:53:25Z</time>
      </trkpt>
      <trkpt lat="42.4722" lon="2.23729">
        <ele>1686.29</ele>
        <time>2017-05-20T14:53:36Z</time>
      </trkpt>
      <trkpt lat="42.47218" lon="2.23722">
        <ele>1688.69</ele>
        <time>2017-05-20T14:53:49Z</time>
      </trkpt>
      <trkpt lat="42.47215" lon="2.23719">
        <ele>1691.1</ele>
        <time>2017-05-20T14:54:00Z</time>
      </trkpt>
      <trkpt lat="42.47216" lon="2.23716">
        <ele>1692.54</ele>
        <time>2017-05-20T14:54:12Z</time>
      </trkpt>
      <trkpt lat="42.47212" lon="2.23715">
        <ele>1693.98</ele>
        <time>2017-05-20T14:54:24Z</time>
      </trkpt>
      <trkpt lat="42.47211" lon="2.23711">
        <ele>1695.42</ele>
        <time>2017-05-20T14:54:35Z</time>
      </trkpt>
      <trkpt lat="42.47206" lon="2.23712">
        <ele>1695.42</ele>
        <time>2017-05-20T14:54:47Z</time>
      </trkpt>
      <trkpt lat="42.47205" lon="2.23712">
        <ele>1695.9</ele>
        <time>2017-05-20T14:54:59Z</time>
      </trkpt>
      <trkpt lat="42.47201" lon="2.23709">
        <ele>1694.94</ele>
        <time>2017-05-20T14:55:08Z</time>
      </trkpt>
      <trkpt lat="42.47197" lon="2.23707">
        <ele>1694.94</ele>
        <time>2017-05-20T14:55:16Z</time>
      </trkpt>
      <trkpt lat="42.47193" lon="2.23703">
        <ele>1694.94</ele>
        <time>2017-05-20T14:55:26Z</time>
      </trkpt>
      <trkpt lat="42.47191" lon="2.23702">
        <ele>1696.38</ele>
        <time>2017-05-20T14:55:29Z</time>
      </trkpt>
      <trkpt lat="42.47185" lon="2.23698">
        <ele>1698.31</ele>
        <time>2017-05-20T14:55:39Z</time>
      </trkpt>
      <trkpt lat="42.47181" lon="2.23693">
        <ele>1700.23</ele>
        <time>2017-05-20T14:55:50Z</time>
      </trkpt>
      <trkpt lat="42.47176" lon="2.23691">
        <ele>1699.27</ele>
        <time>2017-05-20T14:56:01Z</time>
      </trkpt>
      <trkpt lat="42.47171" lon="2.23688">
        <ele>1698.79</ele>
        <time>2017-05-20T14:56:12Z</time>
      </trkpt>
      <trkpt lat="42.47164" lon="2.23691">
        <ele>1698.79</ele>
        <time>2017-05-20T14:56:21Z</time>
      </trkpt>
      <trkpt lat="42.4716" lon="2.23691">
        <ele>1700.23</ele>
        <time>2017-05-20T14:56:34Z</time>
      </trkpt>
      <trkpt lat="42.47155" lon="2.2369">
        <ele>1702.15</ele>
        <time>2017-05-20T14:56:45Z</time>
      </trkpt>
      <trkpt lat="42.47153" lon="2.2369">
        <ele>1703.59</ele>
        <time>2017-05-20T14:56:58Z</time>
      </trkpt>
      <trkpt lat="42.4715" lon="2.23689">
        <ele>1705.52</ele>
        <time>2017-05-20T14:57:10Z</time>
      </trkpt>
      <trkpt lat="42.47145" lon="2.2369">
        <ele>1706.96</ele>
        <time>2017-05-20T14:57:22Z</time>
      </trkpt>
      <trkpt lat="42.47142" lon="2.23684">
        <ele>1708.88</ele>
        <time>2017-05-20T14:57:33Z</time>
      </trkpt>
      <trkpt lat="42.47134" lon="2.23675">
        <ele>1709.84</ele>
        <time>2017-05-20T14:57:45Z</time>
      </trkpt>
      <trkpt lat="42.47134" lon="2.23674">
        <ele>1709.84</ele>
        <time>2017-05-20T14:57:56Z</time>
      </trkpt>
      <trkpt lat="42.47135" lon="2.2367">
        <ele>1710.32</ele>
        <time>2017-05-20T14:58:18Z</time>
      </trkpt>
      <trkpt lat="42.47133" lon="2.23672">
        <ele>1710.8</ele>
        <time>2017-05-20T14:58:38Z</time>
      </trkpt>
      <trkpt lat="42.47133" lon="2.23671">
        <ele>1712.25</ele>
        <time>2017-05-20T14:58:46Z</time>
      </trkpt>
      <trkpt lat="42.47135" lon="2.23676">
        <ele>1711.76</ele>
        <time>2017-05-20T14:59:02Z</time>
      </trkpt>
      <trkpt lat="42.47135" lon="2.23676">
        <ele>1712.25</ele>
        <time>2017-05-20T14:59:19Z</time>
      </trkpt>
      <trkpt lat="42.47136" lon="2.23678">
        <ele>1712.25</ele>
        <time>2017-05-20T14:59:37Z</time>
      </trkpt>
      <trkpt lat="42.47137" lon="2.23676">
        <ele>1711.76</ele>
        <time>2017-05-20T14:59:50Z</time>
      </trkpt>
      <trkpt lat="42.47136" lon="2.23676">
        <ele>1712.25</ele>
        <time>2017-05-20T15:00:16Z</time>
      </trkpt>
      <trkpt lat="42.47134" lon="2.23678">
        <ele>1712.73</ele>
        <time>2017-05-20T15:00:35Z</time>
      </trkpt>
      <trkpt lat="42.47133" lon="2.23677">
        <ele>1712.73</ele>
        <time>2017-05-20T15:00:59Z</time>
      </trkpt>
      <trkpt lat="42.47132" lon="2.23675">
        <ele>1713.21</ele>
        <time>2017-05-20T15:01:15Z</time>
      </trkpt>
      <trkpt lat="42.47133" lon="2.23675">
        <ele>1713.21</ele>
        <time>2017-05-20T15:01:32Z</time>
      </trkpt>
      <trkpt lat="42.47133" lon="2.23671">
        <ele>1713.69</ele>
        <time>2017-05-20T15:02:02Z</time>
      </trkpt>
      <trkpt lat="42.47135" lon="2.23672">
        <ele>1712.25</ele>
        <time>2017-05-20T15:02:09Z</time>
      </trkpt>
      <trkpt lat="42.47135" lon="2.23671">
        <ele>1713.69</ele>
        <time>2017-05-20T15:02:11Z</time>
      </trkpt>
      <trkpt lat="42.47139" lon="2.23672">
        <ele>1713.69</ele>
        <time>2017-05-20T15:02:31Z</time>
      </trkpt>
      <trkpt lat="42.47135" lon="2.23672">
        <ele>1713.69</ele>
        <time>2017-05-20T15:02:53Z</time>
      </trkpt>
      <trkpt lat="42.47127" lon="2.23675">
        <ele>1712.25</ele>
        <time>2017-05-20T15:03:06Z</time>
      </trkpt>
      <trkpt lat="42.47123" lon="2.23677">
        <ele>1711.76</ele>
        <time>2017-05-20T15:03:17Z</time>
      </trkpt>
      <trkpt lat="42.47119" lon="2.23675">
        <ele>1710.8</ele>
        <time>2017-05-20T15:03:28Z</time>
      </trkpt>
      <trkpt lat="42.47115" lon="2.23673">
        <ele>1710.8</ele>
        <time>2017-05-20T15:03:49Z</time>
      </trkpt>
      <trkpt lat="42.47113" lon="2.23675">
        <ele>1710.8</ele>
        <time>2017-05-20T15:04:01Z</time>
      </trkpt>
      <trkpt lat="42.47109" lon="2.23671">
        <ele>1710.32</ele>
        <time>2017-05-20T15:04:13Z</time>
      </trkpt>
      <trkpt lat="42.47104" lon="2.23663">
        <ele>1710.32</ele>
        <time>2017-05-20T15:04:23Z</time>
      </trkpt>
      <trkpt lat="42.47099" lon="2.23654">
        <ele>1710.32</ele>
        <time>2017-05-20T15:04:34Z</time>
      </trkpt>
      <trkpt lat="42.47099" lon="2.23651">
        <ele>1711.28</ele>
        <time>2017-05-20T15:04:38Z</time>
      </trkpt>
      <trkpt lat="42.47093" lon="2.23644">
        <ele>1712.25</ele>
        <time>2017-05-20T15:04:49Z</time>
      </trkpt>
      <trkpt lat="42.47088" lon="2.23639">
        <ele>1712.25</ele>
        <time>2017-05-20T15:04:58Z</time>
      </trkpt>
      <trkpt lat="42.47082" lon="2.23637">
        <ele>1712.25</ele>
        <time>2017-05-20T15:05:10Z</time>
      </trkpt>
      <trkpt lat="42.47078" lon="2.23635">
        <ele>1712.25</ele>
        <time>2017-05-20T15:05:19Z</time>
      </trkpt>
      <trkpt lat="42.47072" lon="2.23629">
        <ele>1713.69</ele>
        <time>2017-05-20T15:05:31Z</time>
      </trkpt>
      <trkpt lat="42.47065" lon="2.23626">
        <ele>1713.69</ele>
        <time>2017-05-20T15:05:42Z</time>
      </trkpt>
      <trkpt lat="42.47059" lon="2.23621">
        <ele>1715.13</ele>
        <time>2017-05-20T15:05:52Z</time>
      </trkpt>
      <trkpt lat="42.47053" lon="2.23618">
        <ele>1715.13</ele>
        <time>2017-05-20T15:06:00Z</time>
      </trkpt>
      <trkpt lat="42.4705" lon="2.23612">
        <ele>1715.61</ele>
        <time>2017-05-20T15:06:09Z</time>
      </trkpt>
      <trkpt lat="42.47046" lon="2.23606">
        <ele>1716.09</ele>
        <time>2017-05-20T15:06:19Z</time>
      </trkpt>
      <trkpt lat="42.47043" lon="2.23599">
        <ele>1716.57</ele>
        <time>2017-05-20T15:06:29Z</time>
      </trkpt>
      <trkpt lat="42.4704" lon="2.23589">
        <ele>1717.05</ele>
        <time>2017-05-20T15:06:41Z</time>
      </trkpt>
      <trkpt lat="42.47039" lon="2.23583">
        <ele>1718.01</ele>
        <time>2017-05-20T15:06:51Z</time>
      </trkpt>
      <trkpt lat="42.47033" lon="2.23579">
        <ele>1718.01</ele>
        <time>2017-05-20T15:07:02Z</time>
      </trkpt>
      <trkpt lat="42.47026" lon="2.23578">
        <ele>1718.01</ele>
        <time>2017-05-20T15:07:13Z</time>
      </trkpt>
      <trkpt lat="42.47027" lon="2.2357">
        <ele>1719.46</ele>
        <time>2017-05-20T15:07:23Z</time>
      </trkpt>
      <trkpt lat="42.47023" lon="2.23563">
        <ele>1719.94</ele>
        <time>2017-05-20T15:07:33Z</time>
      </trkpt>
      <trkpt lat="42.47019" lon="2.23556">
        <ele>1721.38</ele>
        <time>2017-05-20T15:07:43Z</time>
      </trkpt>
      <trkpt lat="42.47014" lon="2.2355">
        <ele>1721.86</ele>
        <time>2017-05-20T15:07:54Z</time>
      </trkpt>
      <trkpt lat="42.47012" lon="2.23546">
        <ele>1722.34</ele>
        <time>2017-05-20T15:08:06Z</time>
      </trkpt>
      <trkpt lat="42.47014" lon="2.23547">
        <ele>1722.34</ele>
        <time>2017-05-20T15:08:19Z</time>
      </trkpt>
      <trkpt lat="42.47007" lon="2.23545">
        <ele>1722.34</ele>
        <time>2017-05-20T15:08:37Z</time>
      </trkpt>
      <trkpt lat="42.47002" lon="2.23541">
        <ele>1723.78</ele>
        <time>2017-05-20T15:08:46Z</time>
      </trkpt>
      <trkpt lat="42.46995" lon="2.23534">
        <ele>1724.74</ele>
        <time>2017-05-20T15:08:58Z</time>
      </trkpt>
      <trkpt lat="42.46992" lon="2.2353">
        <ele>1724.74</ele>
        <time>2017-05-20T15:09:10Z</time>
      </trkpt>
      <trkpt lat="42.46988" lon="2.23526">
        <ele>1726.18</ele>
        <time>2017-05-20T15:09:16Z</time>
      </trkpt>
      <trkpt lat="42.46983" lon="2.23521">
        <ele>1726.67</ele>
        <time>2017-05-20T15:09:23Z</time>
      </trkpt>
      <trkpt lat="42.46978" lon="2.23512">
        <ele>1727.63</ele>
        <time>2017-05-20T15:09:35Z</time>
      </trkpt>
      <trkpt lat="42.46972" lon="2.23506">
        <ele>1729.07</ele>
        <time>2017-05-20T15:09:45Z</time>
      </trkpt>
      <trkpt lat="42.46967" lon="2.235">
        <ele>1730.51</ele>
        <time>2017-05-20T15:09:56Z</time>
      </trkpt>
      <trkpt lat="42.46961" lon="2.23492">
        <ele>1731.95</ele>
        <time>2017-05-20T15:10:09Z</time>
      </trkpt>
      <trkpt lat="42.46959" lon="2.23484">
        <ele>1733.39</ele>
        <time>2017-05-20T15:10:20Z</time>
      </trkpt>
      <trkpt lat="42.46955" lon="2.23478">
        <ele>1734.36</ele>
        <time>2017-05-20T15:10:33Z</time>
      </trkpt>
      <trkpt lat="42.46952" lon="2.2347">
        <ele>1735.8</ele>
        <time>2017-05-20T15:10:46Z</time>
      </trkpt>
      <trkpt lat="42.46949" lon="2.23465">
        <ele>1736.76</ele>
        <time>2017-05-20T15:10:57Z</time>
      </trkpt>
      <trkpt lat="42.46946" lon="2.23457">
        <ele>1738.68</ele>
        <time>2017-05-20T15:11:09Z</time>
      </trkpt>
      <trkpt lat="42.4694" lon="2.23451">
        <ele>1739.16</ele>
        <time>2017-05-20T15:11:21Z</time>
      </trkpt>
      <trkpt lat="42.46933" lon="2.23446">
        <ele>1739.64</ele>
        <time>2017-05-20T15:11:31Z</time>
      </trkpt>
      <trkpt lat="42.46923" lon="2.23442">
        <ele>1740.12</ele>
        <time>2017-05-20T15:11:41Z</time>
      </trkpt>
      <trkpt lat="42.46916" lon="2.23437">
        <ele>1740.12</ele>
        <time>2017-05-20T15:11:52Z</time>
      </trkpt>
      <trkpt lat="42.46909" lon="2.23433">
        <ele>1740.6</ele>
        <time>2017-05-20T15:12:00Z</time>
      </trkpt>
      <trkpt lat="42.46899" lon="2.23428">
        <ele>1741.57</ele>
        <time>2017-05-20T15:12:13Z</time>
      </trkpt>
      <trkpt lat="42.46893" lon="2.23422">
        <ele>1742.53</ele>
        <time>2017-05-20T15:12:25Z</time>
      </trkpt>
      <trkpt lat="42.46884" lon="2.23416">
        <ele>1743.49</ele>
        <time>2017-05-20T15:12:37Z</time>
      </trkpt>
      <trkpt lat="42.46877" lon="2.23408">
        <ele>1743.49</ele>
        <time>2017-05-20T15:12:49Z</time>
      </trkpt>
      <trkpt lat="42.46873" lon="2.23401">
        <ele>1743.97</ele>
        <time>2017-05-20T15:13:01Z</time>
      </trkpt>
      <trkpt lat="42.4687" lon="2.23392">
        <ele>1743.97</ele>
        <time>2017-05-20T15:13:12Z</time>
      </trkpt>
      <trkpt lat="42.46867" lon="2.23383">
        <ele>1743.97</ele>
        <time>2017-05-20T15:13:24Z</time>
      </trkpt>
      <trkpt lat="42.46865" lon="2.23376">
        <ele>1745.41</ele>
        <time>2017-05-20T15:13:35Z</time>
      </trkpt>
      <trkpt lat="42.46864" lon="2.23366">
        <ele>1745.41</ele>
        <time>2017-05-20T15:13:46Z</time>
      </trkpt>
      <trkpt lat="42.46865" lon="2.23357">
        <ele>1745.41</ele>
        <time>2017-05-20T15:13:56Z</time>
      </trkpt>
      <trkpt lat="42.46865" lon="2.23349">
        <ele>1745.89</ele>
        <time>2017-05-20T15:14:08Z</time>
      </trkpt>
      <trkpt lat="42.46863" lon="2.23339">
        <ele>1746.37</ele>
        <time>2017-05-20T15:14:19Z</time>
      </trkpt>
      <trkpt lat="42.46861" lon="2.23326">
        <ele>1747.33</ele>
        <time>2017-05-20T15:14:30Z</time>
      </trkpt>
      <trkpt lat="42.46863" lon="2.23314">
        <ele>1747.33</ele>
        <time>2017-05-20T15:14:41Z</time>
      </trkpt>
      <trkpt lat="42.46862" lon="2.23308">
        <ele>1747.81</ele>
        <time>2017-05-20T15:14:54Z</time>
      </trkpt>
      <trkpt lat="42.46861" lon="2.23305">
        <ele>1747.81</ele>
        <time>2017-05-20T15:15:12Z</time>
      </trkpt>
      <trkpt lat="42.46861" lon="2.23303">
        <ele>1746.37</ele>
        <time>2017-05-20T15:15:24Z</time>
      </trkpt>
      <trkpt lat="42.46862" lon="2.23299">
        <ele>1746.37</ele>
        <time>2017-05-20T15:15:49Z</time>
      </trkpt>
      <trkpt lat="42.46861" lon="2.233">
        <ele>1746.37</ele>
        <time>2017-05-20T15:16:18Z</time>
      </trkpt>
      <trkpt lat="42.46859" lon="2.23304">
        <ele>1746.37</ele>
        <time>2017-05-20T15:16:44Z</time>
      </trkpt>
      <trkpt lat="42.46856" lon="2.23305">
        <ele>1746.85</ele>
        <time>2017-05-20T15:17:04Z</time>
      </trkpt>
      <trkpt lat="42.46858" lon="2.23303">
        <ele>1746.85</ele>
        <time>2017-05-20T15:17:06Z</time>
      </trkpt>
      <trkpt lat="42.46861" lon="2.23306">
        <ele>1746.85</ele>
        <time>2017-05-20T15:17:13Z</time>
      </trkpt>
      <trkpt lat="42.46861" lon="2.23307">
        <ele>1748.29</ele>
        <time>2017-05-20T15:17:23Z</time>
      </trkpt>
      <trkpt lat="42.46861" lon="2.23307">
        <ele>1748.29</ele>
        <time>2017-05-20T15:17:37Z</time>
      </trkpt>
      <trkpt lat="42.46858" lon="2.23307">
        <ele>1746.85</ele>
        <time>2017-05-20T15:17:43Z</time>
      </trkpt>
      <trkpt lat="42.46852" lon="2.23304">
        <ele>1745.41</ele>
        <time>2017-05-20T15:17:55Z</time>
      </trkpt>
      <trkpt lat="42.46849" lon="2.23303">
        <ele>1745.89</ele>
        <time>2017-05-20T15:18:11Z</time>
      </trkpt>
      <trkpt lat="42.4685" lon="2.23303">
        <ele>1745.89</ele>
        <time>2017-05-20T15:18:38Z</time>
      </trkpt>
      <trkpt lat="42.46846" lon="2.233">
        <ele>1744.45</ele>
        <time>2017-05-20T15:18:47Z</time>
      </trkpt>
      <trkpt lat="42.46843" lon="2.23297">
        <ele>1744.45</ele>
        <time>2017-05-20T15:18:51Z</time>
      </trkpt>
      <trkpt lat="42.46834" lon="2.23285">
        <ele>1743.97</ele>
        <time>2017-05-20T15:19:03Z</time>
      </trkpt>
      <trkpt lat="42.4683" lon="2.23272">
        <ele>1745.89</ele>
        <time>2017-05-20T15:19:14Z</time>
      </trkpt>
      <trkpt lat="42.4682" lon="2.23263">
        <ele>1746.85</ele>
        <time>2017-05-20T15:19:27Z</time>
      </trkpt>
      <trkpt lat="42.46815" lon="2.23253">
        <ele>1744.93</ele>
        <time>2017-05-20T15:19:38Z</time>
      </trkpt>
      <trkpt lat="42.46816" lon="2.23245">
        <ele>1743.97</ele>
        <time>2017-05-20T15:19:49Z</time>
      </trkpt>
      <trkpt lat="42.46813" lon="2.23237">
        <ele>1741.57</ele>
        <time>2017-05-20T15:20:01Z</time>
      </trkpt>
      <trkpt lat="42.46807" lon="2.23228">
        <ele>1740.6</ele>
        <time>2017-05-20T15:20:11Z</time>
      </trkpt>
      <trkpt lat="42.46799" lon="2.23214">
        <ele>1740.6</ele>
        <time>2017-05-20T15:20:23Z</time>
      </trkpt>
      <trkpt lat="42.46797" lon="2.23201">
        <ele>1742.05</ele>
        <time>2017-05-20T15:20:34Z</time>
      </trkpt>
      <trkpt lat="42.46794" lon="2.23193">
        <ele>1743.49</ele>
        <time>2017-05-20T15:20:44Z</time>
      </trkpt>
      <trkpt lat="42.46792" lon="2.23189">
        <ele>1743.97</ele>
        <time>2017-05-20T15:20:48Z</time>
      </trkpt>
      <trkpt lat="42.4679" lon="2.23182">
        <ele>1744.45</ele>
        <time>2017-05-20T15:20:54Z</time>
      </trkpt>
      <trkpt lat="42.46787" lon="2.23174">
        <ele>1745.41</ele>
        <time>2017-05-20T15:21:02Z</time>
      </trkpt>
      <trkpt lat="42.46783" lon="2.2316">
        <ele>1745.89</ele>
        <time>2017-05-20T15:21:14Z</time>
      </trkpt>
      <trkpt lat="42.46778" lon="2.23154">
        <ele>1747.33</ele>
        <time>2017-05-20T15:21:25Z</time>
      </trkpt>
      <trkpt lat="42.46775" lon="2.23145">
        <ele>1748.29</ele>
        <time>2017-05-20T15:21:37Z</time>
      </trkpt>
      <trkpt lat="42.4677" lon="2.23136">
        <ele>1748.78</ele>
        <time>2017-05-20T15:21:49Z</time>
      </trkpt>
      <trkpt lat="42.46761" lon="2.23128">
        <ele>1748.78</ele>
        <time>2017-05-20T15:22:00Z</time>
      </trkpt>
      <trkpt lat="42.46759" lon="2.2312">
        <ele>1748.78</ele>
        <time>2017-05-20T15:22:12Z</time>
      </trkpt>
      <trkpt lat="42.46756" lon="2.2311">
        <ele>1748.78</ele>
        <time>2017-05-20T15:22:23Z</time>
      </trkpt>
      <trkpt lat="42.46754" lon="2.23104">
        <ele>1749.26</ele>
        <time>2017-05-20T15:22:33Z</time>
      </trkpt>
      <trkpt lat="42.46753" lon="2.23097">
        <ele>1750.7</ele>
        <time>2017-05-20T15:22:45Z</time>
      </trkpt>
      <trkpt lat="42.46753" lon="2.2309">
        <ele>1752.14</ele>
        <time>2017-05-20T15:22:56Z</time>
      </trkpt>
      <trkpt lat="42.4675" lon="2.23083">
        <ele>1753.1</ele>
        <time>2017-05-20T15:23:09Z</time>
      </trkpt>
      <trkpt lat="42.46751" lon="2.23075">
        <ele>1754.06</ele>
        <time>2017-05-20T15:23:20Z</time>
      </trkpt>
      <trkpt lat="42.46748" lon="2.23068">
        <ele>1755.5</ele>
        <time>2017-05-20T15:23:31Z</time>
      </trkpt>
      <trkpt lat="42.46745" lon="2.23064">
        <ele>1755.5</ele>
        <time>2017-05-20T15:23:43Z</time>
      </trkpt>
      <trkpt lat="42.46741" lon="2.2306">
        <ele>1755.5</ele>
        <time>2017-05-20T15:23:57Z</time>
      </trkpt>
      <trkpt lat="42.46742" lon="2.23058">
        <ele>1756.95</ele>
        <time>2017-05-20T15:24:10Z</time>
      </trkpt>
      <trkpt lat="42.46743" lon="2.23051">
        <ele>1758.87</ele>
        <time>2017-05-20T15:24:21Z</time>
      </trkpt>
      <trkpt lat="42.46738" lon="2.23046">
        <ele>1758.39</ele>
        <time>2017-05-20T15:24:32Z</time>
      </trkpt>
      <trkpt lat="42.46734" lon="2.23041">
        <ele>1758.39</ele>
        <time>2017-05-20T15:24:43Z</time>
      </trkpt>
      <trkpt lat="42.46732" lon="2.23035">
        <ele>1759.35</ele>
        <time>2017-05-20T15:24:52Z</time>
      </trkpt>
      <trkpt lat="42.46727" lon="2.2303">
        <ele>1760.31</ele>
        <time>2017-05-20T15:25:02Z</time>
      </trkpt>
      <trkpt lat="42.46725" lon="2.23026">
        <ele>1761.27</ele>
        <time>2017-05-20T15:25:12Z</time>
      </trkpt>
      <trkpt lat="42.46724" lon="2.2302">
        <ele>1763.2</ele>
        <time>2017-05-20T15:25:21Z</time>
      </trkpt>
      <trkpt lat="42.46724" lon="2.23014">
        <ele>1764.16</ele>
        <time>2017-05-20T15:25:34Z</time>
      </trkpt>
      <trkpt lat="42.46723" lon="2.23011">
        <ele>1764.64</ele>
        <time>2017-05-20T15:25:47Z</time>
      </trkpt>
      <trkpt lat="42.4672" lon="2.23006">
        <ele>1766.56</ele>
        <time>2017-05-20T15:25:58Z</time>
      </trkpt>
      <trkpt lat="42.46716" lon="2.23003">
        <ele>1766.56</ele>
        <time>2017-05-20T15:26:09Z</time>
      </trkpt>
      <trkpt lat="42.46711" lon="2.23001">
        <ele>1768</ele>
        <time>2017-05-20T15:26:22Z</time>
      </trkpt>
      <trkpt lat="42.46706" lon="2.22999">
        <ele>1768</ele>
        <time>2017-05-20T15:26:36Z</time>
      </trkpt>
      <trkpt lat="42.467" lon="2.22997">
        <ele>1768</ele>
        <time>2017-05-20T15:26:46Z</time>
      </trkpt>
      <trkpt lat="42.46696" lon="2.22993">
        <ele>1768.96</ele>
        <time>2017-05-20T15:26:57Z</time>
      </trkpt>
      <trkpt lat="42.4669" lon="2.22981">
        <ele>1768.96</ele>
        <time>2017-05-20T15:27:10Z</time>
      </trkpt>
      <trkpt lat="42.46687" lon="2.22973">
        <ele>1768.96</ele>
        <time>2017-05-20T15:27:22Z</time>
      </trkpt>
      <trkpt lat="42.46685" lon="2.22965">
        <ele>1770.89</ele>
        <time>2017-05-20T15:27:34Z</time>
      </trkpt>
      <trkpt lat="42.46682" lon="2.22954">
        <ele>1770.41</ele>
        <time>2017-05-20T15:27:46Z</time>
      </trkpt>
      <trkpt lat="42.46683" lon="2.22946">
        <ele>1771.85</ele>
        <time>2017-05-20T15:27:59Z</time>
      </trkpt>
      <trkpt lat="42.4668" lon="2.22937">
        <ele>1772.33</ele>
        <time>2017-05-20T15:28:10Z</time>
      </trkpt>
      <trkpt lat="42.46681" lon="2.2293">
        <ele>1773.29</ele>
        <time>2017-05-20T15:28:22Z</time>
      </trkpt>
      <trkpt lat="42.46678" lon="2.22927">
        <ele>1774.25</ele>
        <time>2017-05-20T15:28:33Z</time>
      </trkpt>
      <trkpt lat="42.46676" lon="2.2292">
        <ele>1775.21</ele>
        <time>2017-05-20T15:28:45Z</time>
      </trkpt>
      <trkpt lat="42.46671" lon="2.22914">
        <ele>1775.21</ele>
        <time>2017-05-20T15:28:55Z</time>
      </trkpt>
      <trkpt lat="42.46669" lon="2.22907">
        <ele>1777.13</ele>
        <time>2017-05-20T15:29:07Z</time>
      </trkpt>
      <trkpt lat="42.46667" lon="2.22898">
        <ele>1778.58</ele>
        <time>2017-05-20T15:29:19Z</time>
      </trkpt>
      <trkpt lat="42.46663" lon="2.22893">
        <ele>1780.98</ele>
        <time>2017-05-20T15:29:31Z</time>
      </trkpt>
      <trkpt lat="42.46663" lon="2.22884">
        <ele>1781.94</ele>
        <time>2017-05-20T15:29:44Z</time>
      </trkpt>
      <trkpt lat="42.4666" lon="2.22879">
        <ele>1781.46</ele>
        <time>2017-05-20T15:29:54Z</time>
      </trkpt>
      <trkpt lat="42.46655" lon="2.22863">
        <ele>1782.42</ele>
        <time>2017-05-20T15:30:07Z</time>
      </trkpt>
      <trkpt lat="42.46652" lon="2.22854">
        <ele>1783.38</ele>
        <time>2017-05-20T15:30:18Z</time>
      </trkpt>
      <trkpt lat="42.46647" lon="2.22846">
        <ele>1783.86</ele>
        <time>2017-05-20T15:30:29Z</time>
      </trkpt>
      <trkpt lat="42.46638" lon="2.22841">
        <ele>1785.31</ele>
        <time>2017-05-20T15:30:41Z</time>
      </trkpt>
      <trkpt lat="42.46636" lon="2.22833">
        <ele>1786.27</ele>
        <time>2017-05-20T15:30:53Z</time>
      </trkpt>
      <trkpt lat="42.46634" lon="2.22827">
        <ele>1787.71</ele>
        <time>2017-05-20T15:31:05Z</time>
      </trkpt>
      <trkpt lat="42.46631" lon="2.22817">
        <ele>1789.15</ele>
        <time>2017-05-20T15:31:16Z</time>
      </trkpt>
      <trkpt lat="42.46627" lon="2.22809">
        <ele>1790.59</ele>
        <time>2017-05-20T15:31:26Z</time>
      </trkpt>
      <trkpt lat="42.46624" lon="2.228">
        <ele>1791.07</ele>
        <time>2017-05-20T15:31:37Z</time>
      </trkpt>
      <trkpt lat="42.46623" lon="2.22793">
        <ele>1793</ele>
        <time>2017-05-20T15:31:49Z</time>
      </trkpt>
      <trkpt lat="42.46621" lon="2.22781">
        <ele>1794.44</ele>
        <time>2017-05-20T15:32:03Z</time>
      </trkpt>
      <trkpt lat="42.46616" lon="2.22772">
        <ele>1794.92</ele>
        <time>2017-05-20T15:32:13Z</time>
      </trkpt>
      <trkpt lat="42.46609" lon="2.22765">
        <ele>1795.4</ele>
        <time>2017-05-20T15:32:24Z</time>
      </trkpt>
      <trkpt lat="42.46603" lon="2.22759">
        <ele>1796.36</ele>
        <time>2017-05-20T15:32:36Z</time>
      </trkpt>
      <trkpt lat="42.46597" lon="2.22749">
        <ele>1796.84</ele>
        <time>2017-05-20T15:32:47Z</time>
      </trkpt>
      <trkpt lat="42.46593" lon="2.22741">
        <ele>1797.8</ele>
        <time>2017-05-20T15:32:59Z</time>
      </trkpt>
      <trkpt lat="42.46592" lon="2.22737">
        <ele>1798.28</ele>
        <time>2017-05-20T15:33:10Z</time>
      </trkpt>
      <trkpt lat="42.46593" lon="2.22727">
        <ele>1799.24</ele>
        <time>2017-05-20T15:33:20Z</time>
      </trkpt>
      <trkpt lat="42.46595" lon="2.22719">
        <ele>1800.69</ele>
        <time>2017-05-20T15:33:31Z</time>
      </trkpt>
      <trkpt lat="42.46592" lon="2.22711">
        <ele>1801.17</ele>
        <time>2017-05-20T15:33:44Z</time>
      </trkpt>
      <trkpt lat="42.46589" lon="2.227">
        <ele>1799.73</ele>
        <time>2017-05-20T15:33:55Z</time>
      </trkpt>
      <trkpt lat="42.46588" lon="2.22695">
        <ele>1801.17</ele>
        <time>2017-05-20T15:33:59Z</time>
      </trkpt>
      <trkpt lat="42.46584" lon="2.22688">
        <ele>1801.17</ele>
        <time>2017-05-20T15:34:07Z</time>
      </trkpt>
      <trkpt lat="42.46579" lon="2.22682">
        <ele>1801.17</ele>
        <time>2017-05-20T15:34:19Z</time>
      </trkpt>
      <trkpt lat="42.46569" lon="2.22674">
        <ele>1801.17</ele>
        <time>2017-05-20T15:34:33Z</time>
      </trkpt>
      <trkpt lat="42.46564" lon="2.22672">
        <ele>1801.17</ele>
        <time>2017-05-20T15:34:40Z</time>
      </trkpt>
      <trkpt lat="42.46552" lon="2.22665">
        <ele>1801.17</ele>
        <time>2017-05-20T15:34:52Z</time>
      </trkpt>
      <trkpt lat="42.46542" lon="2.2266">
        <ele>1801.17</ele>
        <time>2017-05-20T15:35:04Z</time>
      </trkpt>
      <trkpt lat="42.46533" lon="2.22653">
        <ele>1803.09</ele>
        <time>2017-05-20T15:35:17Z</time>
      </trkpt>
      <trkpt lat="42.46526" lon="2.22649">
        <ele>1803.57</ele>
        <time>2017-05-20T15:35:27Z</time>
      </trkpt>
      <trkpt lat="42.4652" lon="2.22643">
        <ele>1804.05</ele>
        <time>2017-05-20T15:35:38Z</time>
      </trkpt>
      <trkpt lat="42.46516" lon="2.22637">
        <ele>1805.01</ele>
        <time>2017-05-20T15:35:48Z</time>
      </trkpt>
      <trkpt lat="42.46512" lon="2.22632">
        <ele>1805.97</ele>
        <time>2017-05-20T15:35:59Z</time>
      </trkpt>
      <trkpt lat="42.46509" lon="2.22627">
        <ele>1806.45</ele>
        <time>2017-05-20T15:36:11Z</time>
      </trkpt>
      <trkpt lat="42.46508" lon="2.22626">
        <ele>1806.45</ele>
        <time>2017-05-20T15:36:13Z</time>
      </trkpt>
      <trkpt lat="42.46503" lon="2.22621">
        <ele>1806.94</ele>
        <time>2017-05-20T15:36:23Z</time>
      </trkpt>
      <trkpt lat="42.46498" lon="2.22615">
        <ele>1808.38</ele>
        <time>2017-05-20T15:36:35Z</time>
      </trkpt>
      <trkpt lat="42.46495" lon="2.22606">
        <ele>1809.82</ele>
        <time>2017-05-20T15:36:45Z</time>
      </trkpt>
      <trkpt lat="42.46494" lon="2.22597">
        <ele>1810.78</ele>
        <time>2017-05-20T15:36:54Z</time>
      </trkpt>
      <trkpt lat="42.46492" lon="2.22585">
        <ele>1811.74</ele>
        <time>2017-05-20T15:37:05Z</time>
      </trkpt>
      <trkpt lat="42.46492" lon="2.22573">
        <ele>1812.22</ele>
        <time>2017-05-20T15:37:16Z</time>
      </trkpt>
      <trkpt lat="42.46489" lon="2.22559">
        <ele>1813.18</ele>
        <time>2017-05-20T15:37:27Z</time>
      </trkpt>
      <trkpt lat="42.46484" lon="2.22549">
        <ele>1814.15</ele>
        <time>2017-05-20T15:37:38Z</time>
      </trkpt>
      <trkpt lat="42.46479" lon="2.22539">
        <ele>1814.15</ele>
        <time>2017-05-20T15:37:48Z</time>
      </trkpt>
      <trkpt lat="42.46477" lon="2.22527">
        <ele>1815.11</ele>
        <time>2017-05-20T15:37:57Z</time>
      </trkpt>
      <trkpt lat="42.46478" lon="2.22511">
        <ele>1815.11</ele>
        <time>2017-05-20T15:38:07Z</time>
      </trkpt>
      <trkpt lat="42.46478" lon="2.2251">
        <ele>1815.11</ele>
        <time>2017-05-20T15:38:08Z</time>
      </trkpt>
      <trkpt lat="42.46477" lon="2.22492">
        <ele>1815.11</ele>
        <time>2017-05-20T15:38:21Z</time>
      </trkpt>
      <trkpt lat="42.46476" lon="2.22481">
        <ele>1815.59</ele>
        <time>2017-05-20T15:38:30Z</time>
      </trkpt>
      <trkpt lat="42.46467" lon="2.22469">
        <ele>1816.07</ele>
        <time>2017-05-20T15:38:42Z</time>
      </trkpt>
      <trkpt lat="42.46463" lon="2.22463">
        <ele>1816.07</ele>
        <time>2017-05-20T15:38:48Z</time>
      </trkpt>
      <trkpt lat="42.4646" lon="2.22446">
        <ele>1817.51</ele>
        <time>2017-05-20T15:39:01Z</time>
      </trkpt>
      <trkpt lat="42.46455" lon="2.22433">
        <ele>1818.95</ele>
        <time>2017-05-20T15:39:12Z</time>
      </trkpt>
      <trkpt lat="42.46455" lon="2.22432">
        <ele>1818.95</ele>
        <time>2017-05-20T15:39:13Z</time>
      </trkpt>
      <trkpt lat="42.4645" lon="2.22424">
        <ele>1819.43</ele>
        <time>2017-05-20T15:39:23Z</time>
      </trkpt>
      <trkpt lat="42.46449" lon="2.2242">
        <ele>1819.43</ele>
        <time>2017-05-20T15:39:39Z</time>
      </trkpt>
      <trkpt lat="42.46448" lon="2.22415">
        <ele>1819.43</ele>
        <time>2017-05-20T15:39:49Z</time>
      </trkpt>
      <trkpt lat="42.46442" lon="2.2241">
        <ele>1819.91</ele>
        <time>2017-05-20T15:40:02Z</time>
      </trkpt>
      <trkpt lat="42.46437" lon="2.22403">
        <ele>1819.91</ele>
        <time>2017-05-20T15:40:13Z</time>
      </trkpt>
      <trkpt lat="42.46437" lon="2.22399">
        <ele>1819.91</ele>
        <time>2017-05-20T15:40:30Z</time>
      </trkpt>
      <trkpt lat="42.46437" lon="2.22389">
        <ele>1820.87</ele>
        <time>2017-05-20T15:40:43Z</time>
      </trkpt>
      <trkpt lat="42.4644" lon="2.22387">
        <ele>1821.35</ele>
        <time>2017-05-20T15:40:54Z</time>
      </trkpt>
      <trkpt lat="42.46437" lon="2.22401">
        <ele>1821.35</ele>
        <time>2017-05-20T15:41:20Z</time>
      </trkpt>
      <trkpt lat="42.46427" lon="2.22401">
        <ele>1821.35</ele>
        <time>2017-05-20T15:41:47Z</time>
      </trkpt>
      <trkpt lat="42.46427" lon="2.22403">
        <ele>1820.87</ele>
        <time>2017-05-20T15:42:16Z</time>
      </trkpt>
      <trkpt lat="42.46426" lon="2.224">
        <ele>1820.87</ele>
        <time>2017-05-20T15:42:39Z</time>
      </trkpt>
      <trkpt lat="42.46422" lon="2.22415">
        <ele>1820.87</ele>
        <time>2017-05-20T15:43:03Z</time>
      </trkpt>
      <trkpt lat="42.4642" lon="2.22412">
        <ele>1820.87</ele>
        <time>2017-05-20T15:43:33Z</time>
      </trkpt>
      <trkpt lat="42.46423" lon="2.22407">
        <ele>1820.87</ele>
        <time>2017-05-20T15:43:55Z</time>
      </trkpt>
      <trkpt lat="42.46428" lon="2.22401">
        <ele>1820.87</ele>
        <time>2017-05-20T15:44:19Z</time>
      </trkpt>
      <trkpt lat="42.46427" lon="2.22393">
        <ele>1820.39</ele>
        <time>2017-05-20T15:44:38Z</time>
      </trkpt>
      <trkpt lat="42.46423" lon="2.22402">
        <ele>1820.39</ele>
        <time>2017-05-20T15:44:56Z</time>
      </trkpt>
      <trkpt lat="42.46418" lon="2.22414">
        <ele>1820.39</ele>
        <time>2017-05-20T15:45:19Z</time>
      </trkpt>
      <trkpt lat="42.46419" lon="2.22402">
        <ele>1820.39</ele>
        <time>2017-05-20T15:45:37Z</time>
      </trkpt>
      <trkpt lat="42.46425" lon="2.224">
        <ele>1818.47</ele>
        <time>2017-05-20T15:45:59Z</time>
      </trkpt>
      <trkpt lat="42.46426" lon="2.22401">
        <ele>1819.91</ele>
        <time>2017-05-20T15:46:04Z</time>
      </trkpt>
      <trkpt lat="42.46424" lon="2.22402">
        <ele>1819.91</ele>
        <time>2017-05-20T15:46:17Z</time>
      </trkpt>
      <trkpt lat="42.46437" lon="2.22394">
        <ele>1819.91</ele>
        <time>2017-05-20T15:47:13Z</time>
      </trkpt>
      <trkpt lat="42.46433" lon="2.22389">
        <ele>1819.91</ele>
        <time>2017-05-20T15:47:24Z</time>
      </trkpt>
      <trkpt lat="42.4643" lon="2.22388">
        <ele>1819.91</ele>
        <time>2017-05-20T15:47:40Z</time>
      </trkpt>
      <trkpt lat="42.46438" lon="2.22383">
        <ele>1819.43</ele>
        <time>2017-05-20T15:47:52Z</time>
      </trkpt>
      <trkpt lat="42.46424" lon="2.22406">
        <ele>1819.43</ele>
        <time>2017-05-20T15:48:12Z</time>
      </trkpt>
      <trkpt lat="42.46424" lon="2.22411">
        <ele>1815.11</ele>
        <time>2017-05-20T15:48:21Z</time>
      </trkpt>
      <trkpt lat="42.46423" lon="2.22411">
        <ele>1821.84</ele>
        <time>2017-05-20T15:48:22Z</time>
      </trkpt>
      <trkpt lat="42.46423" lon="2.22411">
        <ele>1817.51</ele>
        <time>2017-05-20T15:48:23Z</time>
      </trkpt>
      <trkpt lat="42.46422" lon="2.22412">
        <ele>1822.32</ele>
        <time>2017-05-20T15:48:24Z</time>
      </trkpt>
      <trkpt lat="42.4643" lon="2.22412">
        <ele>1820.87</ele>
        <time>2017-05-20T15:48:37Z</time>
      </trkpt>
      <trkpt lat="42.46434" lon="2.22405">
        <ele>1820.87</ele>
        <time>2017-05-20T15:48:52Z</time>
      </trkpt>
      <trkpt lat="42.46425" lon="2.22395">
        <ele>1819.43</ele>
        <time>2017-05-20T15:49:03Z</time>
      </trkpt>
      <trkpt lat="42.46428" lon="2.22395">
        <ele>1819.43</ele>
        <time>2017-05-20T15:49:24Z</time>
      </trkpt>
      <trkpt lat="42.46431" lon="2.22389">
        <ele>1819.43</ele>
        <time>2017-05-20T15:49:41Z</time>
      </trkpt>
      <trkpt lat="42.46424" lon="2.22385">
        <ele>1819.43</ele>
        <time>2017-05-20T15:49:56Z</time>
      </trkpt>
    </trkseg>
  </trk>
</gpx>